[[{"header":{"parameterUnit":"m.s-1","parameterCategory":1,"la1":30.6,"la2":29.2853,"lo1":-89.7004,"lo2":-87.6739,"dx":0.0162,"dy":0.0183,"nx":112,"ny":82,"refTime":"2023-01-20T06:00:00:Z","depth":0,"parameterNumber":2,"parameterNumberName":"U-component_of_WINDS"},"data":[0.0,0.0,0.0,0.0,0.0,0.0,0.0,0.0,0.0,0.0,0.0,0.0,0.0,0.0,0.0,0.0,0.0,0.0,0.0,0.0,0.0,0.0,0.0,0.0,0.0,0.0,0.0,0.0,0.0,0.0,0.0,0.0,0.0,0.0,0.0,0.0,0.0,0.0,0.0,0.0,0.0,0.0,0.0,0.0,0.0,0.0,0.0,0.0,0.0,0.0,0.0,0.0,0.0,0.0,0.0,0.0,0.0,0.0,0.0,0.0,0.0,0.0,0.0,0.0,0.0,0.0,0.0,0.0,0.0,0.0,0.0,0.0,0.0,0.0,0.0,0.0,0.0,0.0,0.0,0.0,0.0,0.0,0.0,0.0,0.0,0.0,0.0,0.0,0.0,0.0,0.0,0.0,0.0,0.0,0.0,0.0,0.0,0.0,0.0,0.0,0.0,0.0,0.0,0.0,0.0,0.0,0.0,0.0,0.0,0.0,0.0,0.0,0.0,0.0,0.0,0.0,0.0,0.0,0.0,0.0,0.0,0.0,0.0,0.0,0.0,0.0,0.0,0.0,0.0,0.0,0.0,0.0,0.0,0.0,0.0,0.0,0.0,0.0,0.0,0.0,0.0,0.0,0.0,0.0,0.0,0.0,0.0,0.0,0.0,0.0,0.0,0.0,0.0,0.0,0.0,0.0,0.0,0.0,0.0,0.0,0.0,0.0,0.0,0.0,0.0,0.0,0.0,0.0,0.0,0.0,0.0,0.0,0.0,0.0,0.0,0.0,0.0,0.0,0.0,0.0,0.0,0.0,0.0,0.0,0.0,0.0,0.0,0.0,0.0,0.0,0.0,0.0,0.0,0.0,0.0,0.0,0.0,0.0,0.0,0.0,0.0,0.0,0.0,0.0,0.0,0.0,0.0,0.0,0.0,0.0,0.0,0.0,0.0,0.0,0.0,0.0,0.0,0.0,0.0,0.0,0.0,0.0,0.0,0.0,0.0,0.0,0.0,0.0,0.0,0.0,0.0,0.0,0.0,0.0,0.0,0.0,0.0,0.0,0.0,0.0,0.0,0.0,0.0,0.0,0.0,0.0,0.0,0.0,0.0,0.0,0.0,0.0,0.0,0.0,0.0,0.0,0.0,0.0,0.0,0.0,0.0,0.0,0.0,0.0,0.0,0.0,0.0,0.0,0.0,0.0,0.0,0.0,0.0,0.0,0.0,0.0,0.0,0.0,0.0,0.0,0.0,0.0,0.0,0.0,0.0,0.0,0.0,0.0,0.0,0.0,0.0,0.0,0.0,0.0,0.0,0.0,0.0,0.0,0.0,0.0,0.0,0.0,0.0,0.0,0.0,0.0,0.0,0.0,0.0,0.0,0.0,0.0,0.0,0.0,0.0,0.0,0.0,0.0,0.0,0.0,0.0,0.0,0.0,0.0,0.0,0.0,0.0,0.0,0.0,0.0,0.0,0.0,0.0,0.0,0.0,0.0,0.0,0.0,0.0,0.0,0.0,0.0,0.0,0.0,0.0,0.0,0.0,0.0,0.0,0.0,0.0,0.0,0.0,0.0,0.0,0.0,0.0,0.0,0.0,0.0,0.0,0.0,0.0,0.0,0.0,0.0,0.0,0.0,0.0,0.0,0.0,0.0,0.0,0.0,0.0,0.0,0.0,0.0,0.0,0.0,0.0,0.0,0.0,0.0,0.0,0.0,0.0,0.0,0.0,0.0,0.0,0.0,0.0,0.0,0.0,0.0,0.0,0.0,0.0,0.0,0.0,0.0,0.0,0.0,0.0,0.0,0.0,0.0,0.0,0.0,0.0,0.0,0.0,0.0,0.0,0.0,0.0,0.0,0.0,0.0,0.0,0.0,0.0,0.0,0.0,0.0,0.0,0.0,0.0,0.0,0.0,0.0,0.0,0.0,0.0,0.0,0.0,0.0,0.0,0.0,0.0,0.0,0.0,0.0,0.0,0.0,0.0,0.0,0.0,0.0,0.0,0.0,0.0,0.0,0.0,0.0,0.0,0.0,0.0,0.0,0.0,0.0,0.0,0.0,0.0,0.0,0.0,0.0,0.0,0.0,0.0,0.0,0.0,0.0,0.0,0.0,0.0,0.0,0.0,0.0,0.0,0.0,0.0,0.0,0.0,0.0,0.0,0.0,0.0,0.0,0.0,0.0,0.0,0.0,0.0,0.0,0.0,0.0,0.0,0.0,0.0,0.0,0.0,0.0,0.0,0.0,0.0,0.0,0.0,0.0,0.0,0.0,0.0,0.0,0.0,0.0,0.0,0.0,0.0,0.0,0.0,0.0,0.0,0.0,0.0,0.0,0.0,0.0,0.0,0.0,0.0,0.0,0.0,0.0,0.0,0.0,0.0,0.0,0.0,0.0,0.0,0.0,0.0,0.0,0.0,0.0,0.0,0.0,0.0,0.0,0.0,0.0,0.0,0.0,0.0,0.0,0.0,0.0,0.0,0.0,0.0,0.0,0.0,0.0,0.0,0.0,0.0,0.0,0.0,0.0,0.0,0.0,0.0,0.0,0.0,0.0,0.0,0.0,0.0,0.0,0.0,0.0,0.0,0.0,0.0,0.0,0.0,0.0,0.0,0.0,0.0,0.0,0.0,0.0,0.0,0.0,0.0,0.0,0.0,0.0,0.0,0.0,0.0,0.0,0.0,0.0,0.0,0.0,0.0,0.0,0.0,0.0,0.0,0.0,0.0,0.0,0.0,0.0,0.0,0.0,0.0,0.0,0.0,0.0,0.0,0.0,0.0,0.0,0.0,0.0,0.0,0.0,0.0,0.0,0.0,0.0,0.0,0.0,0.0,0.0,0.0,0.0,0.0,0.0,0.0,0.0,0.0,0.0,0.0,0.0,0.0,0.0,0.0,0.0,0.0,0.0,0.0,0.0,0.0,0.0,0.0,0.0,0.0,0.0,0.0,0.0,0.0,0.0,0.0,0.0,0.0,0.0,0.0,0.0,0.0,0.0,0.0,0.0,0.0,0.0,0.0,0.0,0.0,0.0,0.0,0.0,0.0,0.0,0.0,0.0,0.0,0.0,0.0,0.0,0.0,0.0,0.0,0.0,0.0,0.0,0.0,0.0,0.0,0.0,0.0,0.0,0.0,0.0,0.0,0.0,0.0,0.0,0.0,0.0,0.0,0.0,0.0,0.0,0.0,0.0,0.0,0.0,0.0,0.0,0.0,0.0,0.0,0.0,0.0,0.0,0.0,0.0,0.0,0.0,0.0,0.0,0.0,0.0,0.0,0.0,0.0,0.0,0.0,0.0,0.0,0.0,0.0,0.0,0.0,0.0,0.0,0.0,0.0,0.0,0.0,0.0,0.0,0.0,0.0,0.0,0.0,0.0,0.0,0.0,0.0,0.0,0.0,0.0,0.0,0.0,0.0,0.0,0.0,0.0,0.0,0.0,0.0,0.0,0.0,0.0,0.0,0.0,0.0,0.0,0.0,0.0,0.0,0.0,0.0,0.0,0.0,0.0,0.0,0.0,0.0,0.0,0.0,0.0,0.0,0.0,0.0,0.0,0.0,0.0,0.0,0.0,0.0,0.0,0.0,0.0,0.0,0.0,0.0,0.0,0.0,0.0,0.0,0.0,0.0,0.0,0.0,0.0,0.0,0.0,0.0,0.0,0.0,0.0,0.0,0.0,0.0,0.0,0.0,0.0,0.0,0.0,0.0,0.0,0.0,0.0,0.0,0.0,0.0,0.0,0.0,0.0,0.0,0.0,0.0,0.0,0.0,0.0,0.0,0.0,0.0,0.0,0.0,0.0,0.0,0.0,0.0,0.0,0.0,0.0,0.0,0.0,0.0,0.0,0.0,0.0,0.0,0.0,0.0,0.0,0.0,0.0,0.0,0.0,0.0,0.0,0.0,0.0,0.0,0.0,0.0,0.0,0.0,0.0,0.0,0.0,0.0,0.0,0.0,0.0,0.0,0.0,0.0,0.0,0.0,0.0,0.0,0.0,0.0,0.0,0.0,0.0,0.0,0.0,0.0,0.0,0.0,0.0,0.0,0.0,0.0,0.0,0.0,0.0,0.0,0.0,0.0,0.0,0.0,0.0,0.0,0.0,0.0,0.0,0.0,0.0,0.0,0.0,0.0,0.0,0.0,0.0,0.0,0.0,0.0,0.0,0.0,0.0,0.0,0.0,0.0,0.0,0.0,0.0,0.0,0.0,0.0,0.0,0.0,0.0,0.0,0.0,0.0,0.0,0.0,0.0,0.0,0.0,0.0,0.0,0.0,0.0,0.0,0.0,0.0,0.0,0.0,0.0,0.0,0.0,0.0,0.0,0.0,0.0,0.0,0.0,0.0,0.0,0.0,0.0,0.0,0.0,0.0,0.0,0.0,0.0,0.0,0.0,0.0,0.0,0.0,0.0,0.0,0.0,0.0,0.0,0.0,0.0,0.0,0.0,0.0,0.0,0.0,0.0,0.0,0.0,0.0,0.0,0.0,0.0,0.0,0.0,0.0,0.0,0.0,0.0,0.0,0.0,0.0,0.0,0.0,0.0,0.0,0.0,0.0,0.0,0.0,0.0,0.0,0.0,0.0,0.0,0.0,0.0,0.0,0.0,0.0,0.0,0.0,0.0,0.0,0.0,0.0,0.0,0.0,0.0,0.0,0.0,0.0,0.0,0.0,0.0,0.0,0.0,0.0,0.0,0.0,0.0,0.0,0.0,0.0,0.0,0.0,0.0,0.0,0.0,0.0,0.0,0.0,0.0,0.0,0.0,0.0,0.0,0.0,0.0,0.0,0.0,0.0,0.0,0.0,0.0,0.0,0.0,0.0,0.0,0.0,0.0,0.0,0.0,0.0,0.0,0.0,0.0,0.0,0.0,0.0,0.0,0.0,-0.088,-0.1404,-0.1398,0.0,0.0,0.0,0.0,0.0,0.0,0.0,0.0,0.0,0.0,0.0,0.0,0.0,0.0,0.0,0.0,0.0,0.0,0.0,0.0,0.0,0.0,0.0,0.0,0.0,0.0,0.0,0.0,0.0,0.0,0.0,0.0,0.0,0.0,0.0,0.0,0.0,0.0,0.0,0.0,0.0,0.0,0.0,0.0,0.0,0.0,0.0,0.0,0.0,0.0,0.0,0.0,0.0,0.0,0.0,0.0,0.0,0.0,0.0,0.0,0.0,0.0,0.0,0.0,0.0,0.0,0.0,0.0,0.0,0.0,0.0,0.0,0.0,0.0,0.0,0.0,0.0,0.0,0.0,0.0,0.0,0.0,0.0,0.0,0.0,0.0,0.0,0.0,0.0,0.0,0.0,0.0,0.0,0.0,0.0,0.0,0.0,0.0,0.0,0.0,0.0,0.0,-0.0265,-0.0178,-0.009,-0.0269,-0.0359,-0.0359,-0.0359,-0.2509,-0.3921,-0.3883,0.0,0.0,0.0,0.0,0.0,0.0,0.0,0.0,0.0,0.0,0.0,0.0,0.0,0.0,0.0,0.0,0.0,0.0,0.0,0.0,0.0,0.0,0.0,0.0,0.0,0.0,0.0,0.0,0.0,0.0,0.0,0.0,0.0,0.0,0.0,0.0,0.0,0.0,0.0,0.0,0.0,0.0,0.0,0.0,0.0,0.0,0.0,0.0,0.0,0.0,0.0,0.0,0.0,0.0,0.0,0.0,0.0,0.0,0.0,0.0,0.0,0.0,0.0,0.0,0.0,0.0,0.0,0.0,0.0,0.0,0.0,0.0,0.0,0.0,0.0,0.0,0.0,0.0,0.0,0.0,0.0,0.0,0.0,0.0,0.0,0.0,0.0,0.0,0.0,0.0,0.0,0.0,0.0,0.0,0.0,0.0,0.0,0.0,0.0,0.0,0.0,0.0,-0.2588,-0.1164,-0.0718,-0.2597,-0.2866,-0.2866,-0.2866,-0.5008,-0.6338,-0.6326,0.0,0.0,0.0,0.0,0.0,0.0,0.0,0.0,0.0,0.0,0.0,0.0,0.0,0.0,0.0,0.0,0.0,0.0,0.0,0.0,0.0,0.0,0.0,0.0,0.0,0.0,0.0,0.0,0.0,0.0,0.0,0.0,0.0,0.0,0.0,0.0,0.0,0.0,0.0,0.0,0.0,0.0,0.0,0.0,0.0,0.0,0.0,0.0,0.0,0.0,0.0,0.0,0.0,0.0,0.0,0.0,0.0,0.0,0.0,0.0,0.0,0.0,0.0,0.0,0.0,0.0,0.0,0.0,0.0,0.0,0.0,0.0,0.0,0.0,0.0,0.0,0.0,0.0,0.0,0.0,0.0,0.0,0.0,0.0,0.0,0.0,0.0,0.0,0.0,0.0,0.0,0.0,0.0,0.0,0.0,0.0,0.0,0.0,0.0,0.0,0.0,0.0,-0.1703,-0.0807,-0.0449,-0.1703,-0.1882,-0.1882,-0.1882,-0.4027,-0.5901,-0.706,-0.7057,0.0,0.0,0.0,0.0,0.0,0.0,0.0,0.0,0.0,0.0,0.0,0.0,0.0,0.0,0.0,0.0,0.0,0.0,0.0,0.0,0.0,0.0,0.0,0.0,0.0,0.0,0.0,0.0,0.0,0.0,0.0,0.0,0.0,0.0,0.0,0.0,0.0,0.0,0.0,0.0,0.0,0.0,0.0,0.0,0.0,0.0,0.0,0.0,0.0,0.0,0.0,0.0,0.0,0.0,0.0,0.0,0.0,0.0,0.0,0.0,0.0,0.0,0.0,0.0,0.0,0.0,0.0,0.0,0.0,0.0,0.0,0.0,0.0,0.0,0.0,0.0,0.0,0.0,0.0,0.0,0.0,0.0,0.0,0.0,0.0,0.0,0.0,0.0,0.0,0.0,0.0,0.0,0.0,0.0,0.0,0.0,0.0,0.0,0.0,0.0,0.0,-0.0538,-0.0269,-0.018,-0.0538,-0.0628,-0.0807,-0.1166,-0.3045,-0.5365,-0.8219,-0.7951,-0.8664,0.0,0.0,0.0,0.0,0.0,0.0,0.0,0.0,0.0,0.0,0.0,0.0,0.0,0.0,0.0,0.0,0.0,0.0,0.0,0.0,0.0,0.0,0.0,0.0,0.0,0.0,0.0,0.0,0.0,0.0,0.0,0.0,0.0,0.0,0.0,0.0,0.0,0.0,0.0,0.0,0.0,0.0,0.0,0.0,0.0,0.0,0.0,0.0,0.0,0.0,0.0,0.0,0.0,0.0,0.0,0.0,0.0,0.0,0.0,0.0,0.0,0.0,0.0,0.0,0.0,0.0,0.0,0.0,0.0,0.0,0.0,0.0,0.0,0.0,0.0,0.0,0.0,0.0,0.0,0.0,0.0,0.0,0.0,0.0,0.0,0.0,0.0,0.0,0.0,0.0,-0.0628,-0.2687,0.0,0.0,0.0,0.0,0.0,0.0,0.0,0.0,-0.2866,-0.1255,-0.0807,-0.2866,-0.3134,-0.3938,-0.5987,-0.6433,-0.8575,-1.304,-1.1344,-1.0357,-1.0717,-1.0091,0.0,0.0,0.0,0.0,0.0,0.0,0.0,0.0,0.0,0.0,0.0,0.0,0.0,0.0,0.0,0.0,0.0,0.0,0.0,0.0,0.0,0.0,0.0,0.0,0.0,0.0,0.0,0.0,0.0,0.0,0.0,0.0,0.0,0.0,0.0,0.0,0.0,0.0,0.0,0.0,0.0,0.0,0.0,0.0,0.0,0.0,0.0,0.0,0.0,0.0,0.0,0.0,0.0,0.0,0.0,0.0,0.0,0.0,0.0,0.0,0.0,0.0,0.0,0.0,0.0,0.0,0.0,0.0,0.0,0.0,0.0,0.0,0.0,0.0,0.0,0.0,0.0,0.0,0.0,0.0,0.0,0.0,0.0,0.0,0.0,0.0,0.0,0.0,-0.0271,0.0,-0.1614,-0.1614,-0.1614,0.0,0.0,0.0,0.0,0.0,-0.5276,-0.4651,-0.4383,-0.5454,-0.5544,-0.599,-0.6968,-0.7057,-0.8575,-1.2059,-1.125,-1.1344,-1.2686,-1.1433,-0.9735,0.0,0.0,0.0,0.0,0.0,0.0,0.0,0.0,0.0,0.0,0.0,0.0,0.0,0.0,0.0,0.0,0.0,0.0,0.0,0.0,0.0,0.0,0.0,0.0,0.0,0.0,0.0,0.0,0.0,0.0,0.0,0.0,0.0,0.0,0.0,0.0,0.0,0.0,0.0,0.0,0.0,0.0,0.0,0.0,0.0,0.0,0.0,0.0,0.0,0.0,0.0,0.0,0.0,0.0,0.0,0.0,0.0,0.0,0.0,0.0,0.0,0.0,0.0,0.0,0.0,0.0,0.0,0.0,0.0,0.0,0.0,0.0,0.0,0.0,0.0,0.0,0.0,0.0,0.0,0.0,0.0,0.0,0.0,0.0,0.0,0.0,-0.0546,-0.1185,0.0,-0.1893,-0.2077,-0.2708,0.0,0.0,0.0,0.0,-0.5228,-0.7024,-0.7204,-0.7204,-0.7204,-0.7204,-0.7466,-0.7982,-0.7535,-0.8421,-1.1433,-1.1072,-1.1788,-1.421,-1.2597,-1.1344,-1.0717,0.0,0.0,0.0,0.0,0.0,0.0,0.0,0.0,0.0,0.0,0.0,0.0,0.0,0.0,0.0,0.0,0.0,0.0,0.0,0.0,0.0,0.0,0.0,0.0,0.0,0.0,0.0,0.0,0.0,0.0,0.0,0.0,0.0,0.0,0.0,0.0,0.0,0.0,0.0,0.0,0.0,0.0,0.0,0.0,0.0,0.0,0.0,0.0,0.0,0.0,0.0,0.0,0.0,0.0,0.0,0.0,0.0,0.0,0.0,0.0,0.0,0.0,0.0,0.0,0.0,0.0,0.0,0.0,0.0,0.0,0.0,0.0,0.0,0.0,0.0,0.0,0.0,0.0,0.0,0.0,0.0,0.0,0.0,0.0,0.0,-0.194,-0.4322,0.0,-0.7036,-0.7816,-1.0201,0.0,-0.9926,-0.7724,-0.7357,-0.7449,-0.7541,-0.7541,-0.7541,-0.7541,-0.7541,-0.8426,-1.0515,-0.8701,-0.9298,-1.3856,-1.1965,-1.1788,-1.421,-1.421,-1.304,-1.0717,-1.054,0.0,0.0,0.0,0.0,0.0,0.0,0.0,0.0,0.0,0.0,0.0,0.0,0.0,0.0,0.0,0.0,0.0,0.0,0.0,0.0,0.0,0.0,0.0,0.0,0.0,0.0,0.0,0.0,0.0,0.0,0.0,0.0,0.0,0.0,0.0,0.0,0.0,0.0,0.0,0.0,0.0,0.0,0.0,0.0,0.0,0.0,0.0,0.0,0.0,0.0,0.0,0.0,0.0,0.0,0.0,0.0,0.0,0.0,0.0,0.0,0.0,0.0,0.0,0.0,0.0,0.0,0.0,-0.0275,-0.192,-0.2469,-0.247,-0.2479,-0.1288,0.0,0.0,0.0,0.0,0.0,0.0,0.0,0.0,-0.1295,-0.2403,-0.2403,-0.4453,-0.6972,-0.9442,-0.8672,-0.7827,-0.8748,-0.884,-0.9115,-0.9853,-0.9945,-1.0494,-1.1969,-1.2152,-1.2152,-1.2152,-1.2152,-1.25,-1.3284,-1.2545,-1.2806,-1.4493,-1.3758,-1.3623,-1.4441,-1.4434,-1.3942,-1.3046,-1.3046,-1.1072,0.0,0.0,0.0,0.0,0.0,0.0,0.0,0.0,0.0,0.0,0.0,0.0,0.0,0.0,0.0,0.0,0.0,0.0,0.0,0.0,0.0,0.0,0.0,0.0,0.0,0.0,0.0,0.0,0.0,0.0,0.0,0.0,0.0,0.0,0.0,0.0,0.0,0.0,0.0,0.0,0.0,0.0,0.0,0.0,0.0,0.0,0.0,0.0,0.0,0.0,0.0,0.0,0.0,-0.0464,-0.1301,-0.1301,-0.1769,-0.2518,-0.1576,-0.1849,-0.2586,-0.2586,-0.2586,-0.2586,-0.2586,-0.2586,-0.2863,-0.4522,-0.5073,-0.5078,-0.5094,-0.3896,-0.2602,-0.2518,-0.252,-0.252,-0.252,-0.252,-0.252,-0.252,-0.3823,-0.5127,-0.5127,-0.7113,-0.9398,-1.1086,-0.9999,-0.9115,-1.0046,-1.0134,-1.0416,-1.1161,-1.1998,-1.2835,-1.3493,-1.4329,-1.4889,-1.4889,-1.4889,-1.4869,-1.4821,-1.4821,-1.4794,-1.474,-1.474,-1.4692,-1.459,-1.459,-1.4523,-1.4373,-1.4326,-1.2325,-0.8308,0.0,0.0,0.0,0.0,0.0,0.0,0.0,0.0,0.0,0.0,0.0,0.0,0.0,0.0,0.0,0.0,0.0,0.0,0.0,0.0,0.0,0.0,0.0,0.0,0.0,0.0,0.0,0.0,0.0,0.0,0.0,0.0,0.0,0.0,0.0,0.0,0.0,0.0,0.0,0.0,0.0,0.0,0.0,0.0,0.0,0.0,0.0,0.0,0.0,0.0,0.0,-0.0093,-0.1489,-0.3842,-0.384,-0.5461,-0.7484,-0.4932,-0.5447,-0.7558,-0.7558,-0.7558,-0.7558,-0.7558,-0.765,-0.7742,-0.7742,-0.7742,-0.7756,-0.7742,-0.7673,-0.7594,-0.7572,-0.7595,-0.7595,-0.7595,-0.7595,-0.7595,-0.7595,-0.769,-0.769,-0.769,-0.9681,-1.1485,-1.1485,-1.1485,-1.2334,-1.4798,-1.5181,-1.4328,-1.1862,-1.3664,0.0,-1.1862,-1.3664,-1.5181,-1.5181,-1.5181,-1.5126,-1.4991,-1.4977,-1.4916,-1.476,-1.4753,-1.4753,-1.4746,-1.4746,-1.4672,-1.4523,-1.4291,-1.3053,-1.0728,0.0,0.0,0.0,0.0,0.0,0.0,0.0,0.0,0.0,0.0,0.0,0.0,0.0,0.0,0.0,0.0,0.0,0.0,0.0,0.0,0.0,0.0,0.0,0.0,0.0,0.0,0.0,0.0,0.0,0.0,0.0,0.0,0.0,0.0,0.0,0.0,0.0,0.0,0.0,0.0,0.0,0.0,0.0,0.0,0.0,0.0,0.0,0.0,0.0,0.0,-0.0095,-0.1984,-0.3118,-0.3977,-0.5771,-0.8047,-1.0054,-0.7551,-0.697,-0.7625,-0.7625,-0.7625,-0.7625,-0.7625,-0.8848,-1.0352,-1.0352,-1.0352,-1.0357,-1.0385,-0.9073,-0.7568,-0.7589,-0.7595,-0.7595,-0.7595,-0.7595,-0.7595,-0.7595,-0.9015,-1.0342,-1.0342,-1.2334,-1.414,-1.414,-1.414,-1.4422,-1.5087,-1.5181,-1.4993,-1.4234,-1.4711,0.0,-1.4234,-1.4805,-1.5181,-1.5181,-1.5181,-1.5167,-1.5126,-1.5126,-1.5106,-1.5065,-1.5059,-1.5011,-1.4909,-1.4909,-1.4835,-1.4679,-1.2896,-1.1688,0.0,0.0,0.0,0.0,0.0,0.0,0.0,0.0,0.0,0.0,0.0,0.0,0.0,0.0,0.0,0.0,0.0,0.0,0.0,0.0,0.0,0.0,0.0,0.0,0.0,0.0,0.0,0.0,0.0,0.0,0.0,0.0,0.0,0.0,0.0,0.0,0.0,0.0,0.0,0.0,0.0,0.0,0.0,0.0,0.0,0.0,0.0,-0.0572,-0.162,-0.162,-0.219,0.0,-0.4753,-0.5984,-0.7122,-0.8542,-1.072,0.0,0.0,0.0,0.0,0.0,-1.0814,-1.0814,-1.0814,-1.1763,-1.2999,-1.2999,-1.2999,-1.2999,-1.2999,-1.1951,-1.0814,-1.0814,-1.0848,-1.0882,-1.0882,-1.0916,-1.095,-1.095,-1.2101,-1.3161,-1.3161,-1.4317,-1.5371,-1.5371,0.0,0.0,-1.5371,-1.5269,-1.4805,-1.3758,-1.4516,-1.4805,-1.3758,-1.4516,-1.5181,-1.5181,-1.5181,-1.5181,-1.5181,-1.5181,0.0,0.0,0.0,-1.5147,-1.5065,-1.5004,0.0,0.0,0.0,-1.2706,-1.2706,0.0,0.0,0.0,-0.9639,-0.908,0.0,0.0,0.0,0.0,0.0,0.0,0.0,0.0,0.0,0.0,0.0,0.0,0.0,0.0,0.0,0.0,0.0,0.0,0.0,0.0,0.0,0.0,0.0,0.0,0.0,0.0,0.0,0.0,0.0,0.0,0.0,0.0,0.0,0.0,0.0,-0.0382,-0.0382,-0.0668,-0.0858,-0.0858,-0.0858,-0.2,-0.4183,-0.4183,-0.5415,-0.7595,-0.7887,-0.9315,-1.1406,-1.1705,-1.3234,-1.504,-1.2727,-1.3187,-1.5181,-1.5201,-1.5208,-1.5208,-1.5228,0.0,0.0,-1.5235,-1.5235,-1.5235,-1.5235,-1.5235,-1.5235,-1.5235,-1.533,-1.5438,-1.5438,-1.554,-1.5642,-1.5642,-1.5642,-1.5642,-1.5642,-1.5642,-1.5642,-1.5642,-1.5642,-1.5642,-1.5642,-1.5411,-1.4467,-1.2188,-1.3807,-1.4467,-1.2188,-1.3807,-1.5228,-1.5208,0.0,0.0,-1.5181,-1.5181,-1.5181,-1.5181,-1.5181,-1.5181,-1.5181,-1.5059,-1.4997,-1.4997,-1.4862,-1.4787,-1.4787,-1.4787,-1.4787,-1.4696,-1.023,-0.9359,0.0,0.0,0.0,0.0,0.0,0.0,0.0,0.0,0.0,0.0,0.0,0.0,0.0,0.0,0.0,0.0,0.0,0.0,0.0,0.0,0.0,0.0,0.0,0.0,0.0,0.0,0.0,0.0,0.0,0.0,0.0,0.0,0.0,0.0,-0.2,-0.3044,-0.3044,-0.5133,-0.6174,-0.6174,0.0,0.0,-0.6838,-0.6838,-0.7122,-0.7694,-0.985,-1.1131,-1.1714,-1.3945,-1.5066,-1.543,-1.4708,-1.4805,-1.5201,-1.5323,-1.5364,-1.5384,-1.5506,-1.5554,-1.5554,-1.5554,-1.5554,-1.5554,-1.5554,-1.5554,0.0,-1.5554,-1.5574,-1.5594,-1.5594,-1.5615,-1.5642,-1.5642,-1.5642,-1.5642,-1.5642,-1.5642,-1.5642,-1.5642,-1.5642,-1.5642,-1.5642,-1.5588,-1.5355,-1.4873,-1.5162,-1.5355,-1.4867,-1.5258,-1.5506,-1.5377,-1.5364,-1.5316,-1.5194,-1.5181,-1.5181,-1.5181,-1.5181,-1.5181,-1.5181,-1.5153,-1.514,-1.514,-1.5113,-1.5099,-1.5099,-1.5099,-1.5099,-1.5092,-1.3891,-1.3497,0.0,0.0,0.0,0.0,0.0,0.0,0.0,0.0,0.0,0.0,0.0,0.0,0.0,0.0,0.0,0.0,0.0,0.0,0.0,0.0,0.0,0.0,0.0,0.0,0.0,0.0,0.0,0.0,0.0,-0.0572,-0.181,-0.1905,-0.2476,-0.3805,-0.5036,-0.57,-0.57,-0.6929,-0.7595,-0.7595,-0.7633,-0.8413,-0.956,-0.9702,-1.0399,-1.1654,-1.3062,-1.3578,-1.368,-1.5022,-1.5642,-1.5622,-1.5472,-1.5411,-1.5418,-1.5499,-1.5527,-1.5533,-1.5615,-1.5642,-1.5642,-1.5642,-1.5642,-1.5642,-1.5642,-1.5642,-1.5642,-1.5642,-1.5689,-1.5744,-1.5744,-1.5805,-1.5859,-1.5859,-1.5859,-1.5859,-1.5859,-1.5859,-1.5859,-1.5859,-1.5859,-1.5859,-1.5859,-1.5859,-1.5811,-1.5662,-1.5642,-1.5642,-1.5642,-1.5642,-1.5608,-1.5533,-1.5527,-1.5493,-1.5418,-1.5343,-1.5262,-1.5187,-1.5181,-1.5181,-1.5181,-1.5181,-1.5181,-1.5181,-1.5181,-1.5181,-1.5181,-1.5181,-1.5181,-1.5181,-1.5031,-1.4923,0.0,0.0,0.0,0.0,0.0,0.0,0.0,0.0,0.0,0.0,0.0,0.0,0.0,0.0,0.0,0.0,0.0,0.0,0.0,0.0,0.0,0.0,0.0,0.0,0.0,0.0,-0.0191,-0.0668,-0.0763,-0.181,-0.4373,-0.4561,-0.551,-0.7501,-0.8069,-0.8353,-0.8353,-0.8842,-0.9134,-0.9138,-0.9228,-1.0427,-1.2357,-1.2455,-1.3673,-1.5642,-1.5669,-1.5696,-1.5723,-1.5723,-1.5723,-1.5723,-1.5723,-1.5723,-1.5723,-1.5689,-1.5683,-1.5683,-1.5716,-1.5723,-1.5723,-1.5723,-1.5723,-1.5723,-1.5723,-1.5723,-1.5723,-1.5723,-1.5805,-1.59,-1.59,-1.5988,-1.6083,-1.6083,-1.6083,-1.6083,-1.6083,-1.6083,-1.6083,-1.6083,-1.6083,-1.6083,-1.6083,-1.6083,-1.6001,-1.5764,-1.5723,-1.5723,-1.5723,-1.5723,-1.5716,-1.5683,-1.5683,-1.5669,-1.5642,-1.5527,-1.5404,-1.5276,-1.5242,-1.5228,-1.5228,-1.5201,-1.5181,-1.5181,-1.5181,-1.5181,-1.5181,-1.5181,-1.5181,-1.5181,-1.5181,-1.512,0.0,0.0,0.0,0.0,0.0,0.0,0.0,0.0,0.0,0.0,0.0,0.0,0.0,0.0,0.0,0.0,0.0,0.0,0.0,0.0,0.0,0.0,0.0,0.0,0.0,0.0,-0.0954,-0.3234,-0.3328,-0.4466,-0.7024,-0.7213,-0.7308,-0.7595,-0.9775,-1.1008,-1.1008,-1.3305,-1.4514,-1.452,-1.4661,-1.4925,-1.5125,-1.5138,-1.5345,-1.5649,-1.5778,-1.5906,-1.6029,-1.6029,-1.6029,-1.6029,-1.6029,-1.6029,-1.6015,-1.5879,-1.5832,-1.5852,-1.5988,-1.6029,-1.6029,-1.6029,-1.6029,-1.6029,-1.6029,-1.6029,-1.6029,-1.6029,-1.6042,-1.6056,-1.6056,-1.6069,-1.6083,-1.6083,-1.6083,-1.6083,-1.6083,-1.6083,-1.6083,-1.6083,-1.6083,-1.6083,-1.6083,-1.6083,-1.6069,-1.6035,-1.6029,-1.6029,-1.6029,-1.6029,-1.5981,-1.5845,-1.5832,-1.5778,-1.5649,-1.5622,-1.5608,-1.5588,-1.5459,-1.5384,-1.5384,-1.5255,-1.5181,-1.5181,-1.5181,-1.5181,-1.5181,-1.5181,-1.5181,-1.5181,-1.5181,-1.5174,0.0,0.0,0.0,0.0,0.0,0.0,0.0,0.0,0.0,0.0,0.0,0.0,0.0,0.0,0.0,0.0,0.0,-0.0477,-0.2,-0.219,-0.276,-0.428,-0.4468,-0.3805,-0.2381,-0.352,-0.4848,-0.5889,-0.5984,-0.7122,-0.9681,-0.9775,-1.0559,-1.2053,-1.3204,-1.3727,-1.3806,-1.493,-1.5547,-1.5547,-1.5696,-1.5764,-1.5771,-1.5852,-1.5893,-1.59,-1.5961,-1.6022,-1.6083,-1.6083,-1.6083,-1.6083,-1.6083,-1.6083,-1.6076,-1.6008,-1.5988,-1.5995,-1.6056,-1.6083,-1.6083,-1.6083,-1.6083,-1.6083,-1.6083,-1.6083,-1.6083,-1.6083,-1.6083,-1.6083,-1.6083,-1.6083,-1.6083,-1.6083,-1.6083,-1.6083,-1.6083,-1.6083,-1.6083,-1.6083,-1.6083,-1.6083,-1.6083,-1.6083,-1.6083,-1.6083,-1.6083,-1.6083,-1.6083,-1.6083,-1.6056,-1.5995,-1.5988,-1.5927,-1.5778,-1.5764,-1.573,-1.5642,-1.5581,-1.5547,-1.5547,-1.5398,-1.5316,-1.5316,-1.5228,-1.5181,-1.5181,-1.5181,-1.5181,-1.5275,-1.6658,-1.7305,0.0,0.0,0.0,0.0,0.0,0.0,0.0,0.0,0.0,0.0,0.0,0.0,0.0,0.0,0.0,0.0,-0.0572,-0.1715,-0.3518,-0.4371,-0.551,-0.7406,-0.8258,-0.788,-0.6079,-0.6929,-0.788,-0.8637,-0.8637,-0.9775,-1.2334,-1.2461,-1.3382,-1.5309,-1.5452,-1.5527,-1.5635,-1.5676,-1.5696,-1.5696,-1.5845,-1.592,-1.592,-1.6029,-1.6083,-1.6083,-1.6083,-1.6083,-1.6083,-1.6083,-1.6083,-1.6083,-1.6083,-1.6083,-1.6083,-1.6083,-1.6083,-1.6083,-1.6083,-1.6083,-1.6083,-1.6083,-1.6083,-1.6083,-1.6083,-1.6083,-1.6083,-1.6083,-1.6083,-1.6083,-1.6083,-1.6083,-1.6083,-1.6083,-1.6083,-1.6083,-1.6083,-1.6083,-1.6083,-1.6083,-1.6083,-1.6083,-1.6083,-1.6083,-1.6083,-1.6083,-1.6083,-1.6083,-1.6083,-1.6083,-1.6083,-1.6083,-1.6083,-1.6035,-1.5927,-1.592,-1.5872,-1.5771,-1.5723,-1.5696,-1.5696,-1.5554,-1.5472,-1.5472,-1.5364,-1.5289,-1.5248,-1.5894,-1.6242,-1.6292,-1.8778,-1.9882,0.0,0.0,0.0,0.0,0.0,0.0,0.0,0.0,0.0,0.0,0.0,0.0,0.0,0.0,0.0,0.0,-0.2095,-0.3708,-0.3803,-0.5889,-0.7501,-0.7595,-0.9775,-1.1291,0.0,-0.9015,-0.8637,-1.1102,-1.1291,-1.2428,-1.4993,-1.5228,-1.5309,-1.5411,-1.5554,-1.5635,-1.5642,-1.5778,-1.5845,-1.5845,-1.6001,-1.6076,-1.6076,-1.6083,-1.6083,-1.6083,-1.6083,-1.6083,-1.6083,-1.6083,-1.6083,-1.6083,-1.6083,-1.6083,-1.6083,-1.6083,-1.6083,-1.6083,-1.6083,-1.6083,-1.6083,-1.6083,-1.6083,-1.6083,-1.6083,-1.6083,-1.6083,-1.6083,-1.6083,-1.6083,-1.6083,-1.6083,-1.6083,-1.6083,-1.6083,-1.6083,-1.6083,-1.6083,-1.6083,-1.6083,-1.6083,-1.6083,-1.6083,-1.6083,-1.6083,-1.6083,-1.6083,-1.6083,-1.6083,-1.6083,-1.6083,-1.6083,-1.6083,-1.6083,-1.6076,-1.6076,-1.6076,-1.6069,-1.5927,-1.5845,-1.5845,-1.571,-1.5635,-1.5635,-1.5628,-1.5554,-1.5404,-1.7836,-1.8955,-1.8871,-2.1267,-2.2372,0.0,0.0,0.0,0.0,0.0,0.0,0.0,0.0,0.0,0.0,0.0,0.0,0.0,0.0,-0.0572,-0.2285,-0.3234,-0.4941,-0.8353,-0.9586,-1.072,-1.2428,-1.3375,0.0,0.0,0.0,0.0,-1.3852,-1.4033,-1.4469,-1.5337,-1.5479,-1.5608,-1.5703,-1.5757,-1.5832,-1.5934,-1.5981,-1.6001,-1.6008,-1.6056,-1.6083,-1.6083,-1.6083,-1.6083,-1.6083,-1.6083,-1.6083,-1.6083,-1.6083,-1.6083,-1.6083,-1.6083,-1.6083,-1.6083,-1.6083,-1.6083,-1.6083,-1.6083,-1.6083,-1.6083,-1.6083,-1.6083,-1.6083,-1.6083,-1.6083,-1.6083,-1.6083,-1.6083,-1.6083,-1.6083,-1.6083,-1.6083,-1.6083,-1.6083,-1.6083,-1.6083,-1.6083,-1.6573,-1.8327,-1.8714,-1.9199,-2.096,-1.9888,-1.8129,-1.6374,-1.6083,-1.6083,-1.6083,-1.6083,-1.6083,-1.6083,-1.6083,-1.6083,-1.6083,-1.6083,-1.6083,-1.6083,-1.6035,-1.6778,-1.8529,-1.8461,-1.9237,-2.0946,-2.0828,-2.0729,-2.0751,-2.1508,-2.1933,-2.1959,-2.4402,-2.5518,0.0,0.0,0.0,0.0,0.0,0.0,0.0,0.0,0.0,0.0,0.0,0.0,0.0,-0.0763,-0.162,-0.2285,-0.3993,-0.6266,-0.9586,-1.0819,-1.2334,-1.4899,-1.5181,-1.5181,0.0,0.0,0.0,-1.5262,-1.5357,-1.5438,-1.5493,-1.5635,-1.5757,-1.595,-1.5906,-1.5981,-1.6083,-1.6083,-1.6083,-1.6083,-1.6083,-1.6083,-1.6083,-1.6083,-1.6083,-1.6083,-1.6083,-1.6083,-1.6083,-1.6083,-1.6083,-1.6083,-1.6083,-1.6083,-1.6083,-1.6083,-1.6083,-1.6083,-1.6083,-1.6083,-1.6083,-1.6083,-1.6083,-1.6083,-1.6083,-1.6083,-1.6083,-1.6083,-1.6083,-1.6083,-1.6083,-1.6083,-1.6083,-1.6083,-1.6765,-1.7444,-1.7444,-1.8228,-1.9405,-2.1049,-2.1441,-2.193,-2.3578,-2.2516,-2.0853,-1.9109,-1.8912,-1.8228,-1.6374,-1.6963,-1.7444,-1.7444,-1.8327,-1.8912,-1.8912,-1.8912,-1.8912,-1.8912,-1.8912,-1.9593,-2.1343,-2.1323,-2.2026,-2.3754,-2.3622,-2.3606,-2.3524,-2.4377,-2.4818,-2.4826,-2.7285,-2.8415,0.0,0.0,0.0,0.0,0.0,0.0,0.0,0.0,0.0,0.0,0.0,0.0,0.0,0.0,-0.3044,-0.0763,-0.4563,-0.788,-0.7974,-1.0059,-1.2528,0.0,0.0,0.0,0.0,0.0,0.0,-1.5411,0.0,-1.5493,-1.5642,-1.5784,-1.5866,-1.5866,-1.6008,-1.6083,-1.6083,-1.6083,-1.6083,-1.6083,-1.6083,-1.6083,-1.6083,-1.6083,-1.6083,-1.6083,-1.6083,-1.6083,-1.6083,-1.6083,-1.6083,-1.6083,-1.6083,-1.6083,-1.6083,-1.6083,-1.6083,-1.6083,-1.6083,-1.6083,-1.6083,-1.6083,-1.6083,-1.6083,-1.6083,-1.6083,-1.6083,-1.6083,-1.6182,-1.6275,-1.6275,-1.6374,-1.6474,-1.6474,-1.8426,-2.0175,-2.0175,-2.2126,-2.3977,-2.4074,-2.4172,-2.4269,-2.4172,-2.4074,-2.4074,-2.3987,-2.389,-2.2135,-1.7162,-1.8714,-2.0175,-2.0175,-2.2409,-2.388,-2.388,-2.388,-2.388,-2.388,-2.388,-2.3967,-2.4074,-2.4074,-2.4172,-2.4269,-2.4269,-2.4252,-2.4131,-2.6443,-2.7475,-2.7414,-2.9791,-3.0835,0.0,0.0,0.0,0.0,0.0,0.0,0.0,0.0,0.0,0.0,0.0,0.0,0.0,0.0,0.0,-0.5415,-0.8353,0.0,-1.2993,-1.3852,0.0,-1.5087,0.0,-1.5181,-1.5181,-1.5289,0.0,0.0,-1.5581,-1.5642,-1.5791,-1.594,-1.6022,-1.6022,-1.6062,-1.6083,-1.6083,-1.6083,-1.6083,-1.6083,-1.6083,-1.6083,-1.6083,-1.6083,-1.6083,-1.6083,-1.6083,-1.6083,-1.6083,-1.6083,-1.6083,-1.6083,-1.6083,-1.6083,-1.6083,-1.6083,-1.6083,-1.6083,-1.6083,-1.6083,-1.6083,-1.6083,-1.6083,-1.6083,-1.6083,-1.6083,-1.6083,-1.6083,-1.7543,-1.9002,-1.9002,-2.047,-2.193,-2.193,-2.2419,-2.2897,-2.2897,-2.3384,-2.4463,-2.6409,-2.8356,-2.9135,-2.7095,-2.6806,-2.6186,-2.4484,-2.4221,-2.367,-2.2144,-2.2516,-2.2897,-2.2897,-2.3481,-2.388,-2.388,-2.388,-2.388,-2.388,-2.388,-2.4754,-2.671,-2.6806,-2.7672,-2.9708,-2.9721,-2.9683,-2.9703,-3.0285,-3.0544,-3.0574,-3.1154,-3.145,0.0,0.0,0.0,0.0,0.0,0.0,0.0,0.0,-0.0286,-0.1429,-0.1715,-0.2,-0.3141,-0.5418,-0.7217,0.0,0.0,0.0,-1.3281,-1.3569,-1.3946,0.0,-1.5181,0.0,-1.5181,-1.5262,-1.5404,0.0,-1.5696,-1.5798,-1.5947,-1.6035,-1.6083,-1.6083,-1.6083,-1.6083,-1.6083,-1.6083,-1.6083,-1.6083,-1.6083,-1.6083,-1.6083,-1.6083,-1.6083,-1.6083,0.0,-1.6083,-1.6083,-1.6083,-1.6083,-1.6083,-1.6083,-1.6083,-1.6083,-1.6083,-1.6083,-1.6083,-1.6083,-1.6864,-1.7642,-1.6474,-1.6083,-1.6275,-1.7452,-1.784,-1.8031,-1.9207,-2.0568,-2.1735,-2.1735,-2.2799,-2.388,-2.388,-2.4754,-2.5625,-2.5625,-2.6505,-2.7768,-2.923,-3.079,-3.1373,-2.9896,-2.9804,-2.9444,-2.8101,-2.7917,-2.787,-2.7731,-2.6722,-2.6038,-2.6038,-2.7015,-2.7708,-2.7708,-2.7708,-2.7708,-2.7708,-2.7604,-2.8138,-2.9608,-2.9592,-3.021,-3.1664,-3.1664,-3.1664,-3.1664,-3.1664,-3.1664,-3.1664,-3.1664,-3.1664,-0.0463,-0.028,0.0,0.0,0.0,-0.0095,-0.0382,-0.0477,-0.1239,-0.3803,-0.4276,-0.4941,-0.7213,-0.9681,-1.0725,-0.8447,0.0,-1.1862,-1.1862,-1.1862,-1.2716,-1.4899,-1.5181,-1.5181,-1.5181,-1.5201,-1.533,-1.5615,-1.5771,-1.592,-1.6076,-1.6083,-1.6083,-1.6083,-1.6083,-1.6083,-1.6083,-1.6083,-1.6083,-1.6083,-1.6083,-1.6083,-1.6083,-1.6083,-1.6083,-1.6083,0.0,0.0,-1.6083,-1.6083,-1.6083,-1.6083,-1.6083,-1.6083,-1.6083,-1.6083,-1.6275,-1.6665,-1.6665,-1.8327,-2.0077,-1.7452,-1.6864,-1.7551,-1.9782,-2.0559,-2.0951,-2.3286,-2.4172,-2.4463,-2.4494,-2.4699,-2.5,-2.5032,-2.68,-2.8464,-2.8464,-3.0217,-3.1784,-3.1784,-3.1984,-3.2158,-3.2158,-3.2372,-3.2656,-3.2696,-3.2599,-3.271,-3.2652,-3.0685,-2.9246,-2.9246,-3.1248,-3.2643,-3.2643,-3.2643,-3.2643,-3.2643,-3.2305,-3.2158,-3.2158,-3.1917,-3.1784,-3.1784,-3.1784,-3.177,-3.173,-3.173,-3.1704,-3.1664,-3.1664,-3.1664,-0.3076,-0.1603,0.0,0.0,0.0,-0.0572,-0.2665,-0.3139,0.0,-0.6458,-0.6929,-0.7119,-0.7501,-0.9681,-1.1291,-1.0819,-1.2904,-1.4516,-1.4516,-1.4516,-1.4704,0.0,-1.5181,-1.5181,-1.5181,0.0,0.0,0.0,0.0,-1.592,-1.6076,-1.6083,-1.6083,-1.6083,-1.6083,-1.6083,-1.6083,-1.6083,-1.6083,-1.6083,-1.6083,-1.6083,-1.6083,-1.6083,-1.6083,-1.6083,0.0,0.0,-1.6083,-1.6083,-1.6083,-1.6083,-1.6083,-1.6083,-1.6083,-1.6083,-1.7444,-1.9298,-1.9298,-2.1049,-2.2809,-2.0175,-2.0764,-2.2614,-2.3101,-2.3189,-2.3296,-2.3773,-2.5432,-2.7141,-2.7444,-2.9068,-3.0702,-3.1043,-3.14,-3.1789,-3.1789,-3.2094,-3.2398,-3.2398,-3.2438,-3.2465,-3.2465,-3.2519,-3.2723,-3.2866,-3.2906,-3.2986,-3.3227,-3.2432,-3.1946,-3.1946,-3.235,-3.2643,-3.2643,-3.2643,-3.2643,-3.2643,-3.2589,-3.2465,-3.2465,-3.2425,-3.2398,-3.2398,-3.2398,-3.2278,-3.2024,-3.2024,-3.1904,-3.1664,-3.1664,-3.1664,-0.4108,-0.3868,-0.3615,-0.2285,-0.295,-0.4278,-0.551,-0.5795,-0.6458,-0.9015,-0.9582,-0.9964,-1.1286,-1.2522,-1.3375,-1.3375,-1.4422,-1.5181,-1.5181,-1.5181,-1.5181,-1.5181,-1.5181,-1.5181,0.0,0.0,0.0,0.0,0.0,-1.5839,-1.6069,-1.6083,-1.6083,-1.6083,-1.6083,-1.6083,-1.6083,-1.6083,-1.6083,-1.6083,-1.6083,-1.6083,-1.6083,-1.6083,-1.6083,-1.6083,-1.6083,0.0,-1.6083,-1.6083,-1.6864,-1.8129,-1.8129,-1.901,-2.0183,-2.0183,-2.096,-2.2028,-2.2028,-2.3783,-2.5733,-2.4463,-2.3977,-2.4192,-2.568,-2.6113,-2.6427,-2.8035,-2.9347,-3.0379,-3.0505,-3.1432,-3.2372,-3.2519,-3.2643,-3.2643,-3.2643,-3.2643,-3.2643,-3.2643,-3.2666,-3.2772,-3.2772,-3.2893,-3.304,-3.3187,-3.32,-3.3253,-3.3387,-3.3173,-3.3,-3.3,-3.3,-3.3,-3.3,-3.3,-3.3,-3.3,-3.2853,-3.2772,-3.2772,-3.2625,-3.2643,-3.2643,-3.2643,-3.2478,-3.2332,-3.2332,-3.2265,-3.2131,-3.2131,-3.2131,-0.5877,-0.65,-0.7122,-0.513,-0.6079,-0.7785,-0.8258,-0.8447,-0.9109,-1.1673,-1.2239,-1.281,-1.4805,-1.5181,-1.5181,-1.5181,-1.5181,-1.5181,-1.5181,-1.5181,-1.5181,-1.5181,-1.5181,0.0,-1.5181,0.0,0.0,0.0,0.0,0.0,-1.6069,-1.6083,-1.6083,-1.6083,-1.6083,-1.6083,-1.6083,-1.6083,-1.6083,-1.6083,-1.6083,-1.6083,-1.6083,-1.6083,-1.6083,-1.6083,-1.6665,0.0,0.0,-1.7551,-1.901,-2.0853,-2.0853,-2.2116,-2.388,-2.388,-2.4269,-2.4754,-2.4754,-2.6409,-2.8668,-2.8716,-2.7368,-2.6122,-2.8389,-2.908,-2.9664,-3.1978,-3.2643,-3.2656,-3.2625,-3.2737,-3.2652,-3.2719,-3.2732,-3.2732,-3.2732,-3.2732,-3.2732,-3.2732,-3.2919,-3.3066,-3.3066,-3.3253,-3.3414,-3.3414,-3.3414,-3.3414,-3.3414,-3.3414,-3.3414,-3.3414,-3.3414,-3.3414,-3.3414,-3.3414,-3.3414,-3.3414,-3.32,-3.3066,-3.3066,-3.2853,-3.2732,-3.2732,-3.2732,-3.2706,-3.2737,-3.2737,-3.271,-3.2643,-3.2643,-3.2643,-1.0533,-0.9134,-0.7497,-0.7308,-0.7403,-0.8164,-1.0531,-1.1008,-1.1768,-1.4328,-1.4899,-1.4899,-1.5181,-1.5181,-1.5181,-1.5181,-1.5181,-1.5181,-1.5181,-1.5181,-1.5181,-1.5181,0.0,0.0,-1.5181,0.0,0.0,0.0,0.0,0.0,-1.6076,-1.6083,-1.6083,-1.6083,-1.6083,-1.6083,-1.6083,-1.6083,-1.6083,-1.6083,-1.6083,-1.6083,-1.6083,-1.6083,-1.6083,-1.6275,0.0,0.0,0.0,-2.2223,-2.3296,-2.3578,-2.3578,-2.3676,-2.388,-2.388,-2.5432,-2.748,-2.748,-2.9135,-3.1418,-3.1587,-3.157,-3.1378,-3.1693,-3.1988,-3.2213,-3.2532,-3.2643,-3.271,-3.2866,-3.2933,-3.3,-3.3267,-3.3334,-3.3334,-3.3334,-3.3334,-3.3334,-3.3334,-3.336,-3.3374,-3.3374,-3.3387,-3.3414,-3.3414,-3.3414,-3.3414,-3.3414,-3.3414,-3.3414,-3.3414,-3.3414,-3.3414,-3.3414,-3.3414,-3.3414,-3.3414,-3.3387,-3.3374,-3.3374,-3.3347,-3.3334,-3.3334,-3.3334,-3.32,-3.2933,-3.2933,-3.2799,-3.2643,-3.2643,-3.2643,-1.1557,-1.1673,-1.1857,-1.0248,-1.1003,-1.2428,-1.3469,-1.3664,-1.3946,-1.4993,-1.5181,-1.5181,-1.5181,-1.5181,-1.5181,-1.5181,-1.5181,-1.5181,-1.5181,-1.5181,-1.5181,-1.5181,-1.5181,0.0,0.0,0.0,0.0,0.0,0.0,0.0,-1.5934,-1.6029,-1.6083,-1.6083,-1.6083,-1.6083,-1.6083,-1.6083,-1.6083,-1.6083,-1.6083,-1.6083,-1.6182,-1.7741,-1.8418,-1.8616,0.0,0.0,0.0,-2.3481,-2.4851,-2.6216,-2.6216,-2.7191,-2.8548,-2.8548,-2.923,-3.0115,-3.0115,-3.0795,-3.1717,-3.2011,-3.2225,-3.2398,-3.2572,-3.2706,-3.2839,-3.3013,-3.3066,-3.3093,-3.3213,-3.324,-3.3267,-3.3387,-3.3414,-3.3414,-3.3414,-3.3414,-3.3414,-3.3414,-3.3414,-3.3414,-3.3414,-3.3414,-3.3414,-3.3414,-3.3414,-3.3414,-3.3414,-3.3414,-3.3414,-3.3414,-3.3414,-3.3414,-3.3414,-3.3414,-3.3414,-3.3414,-3.3414,-3.3414,-3.3414,-3.3414,-3.3414,-3.3414,-3.3414,-3.336,-3.324,-3.324,-3.3187,-3.3066,-3.3066,-3.3066,-1.2714,-1.3691,-1.4752,-1.2993,-1.3852,-1.5181,-1.5181,-1.5181,-1.5181,-1.5181,-1.5181,-1.5181,-1.5181,-1.5181,-1.5181,-1.5181,-1.5181,-1.5181,-1.5181,-1.5181,-1.5181,-1.5181,0.0,0.0,0.0,0.0,0.0,0.0,0.0,0.0,0.0,-1.5906,-1.6035,-1.6083,-1.6083,-1.6083,-1.6083,-1.6083,-1.6083,-1.6083,-1.6864,-1.7253,-1.7353,-1.9978,-2.1147,-2.1343,0.0,0.0,0.0,-2.5915,-2.7287,-2.8943,-2.8943,-3.0115,-3.1664,-3.1664,-3.1664,-3.1664,-3.1664,-3.1664,-3.173,-3.2118,-3.2372,-3.2612,-3.2986,-3.3106,-3.3146,-3.336,-3.3414,-3.3414,-3.3414,-3.3414,-3.3414,-3.3414,-3.3414,-3.3414,-3.3414,-3.3414,-3.3414,-3.3414,-3.3414,-3.3414,-3.3414,-3.3414,-3.3414,-3.3414,-3.3414,-3.3414,-3.3414,-3.3414,-3.3414,-3.3414,-3.3414,-3.3414,-3.3414,-3.3414,-3.3414,-3.3414,-3.3414,-3.3414,-3.3414,-3.3414,-3.3414,-3.3414,-3.3414,-3.3414,-3.3414,-3.3414,-3.3414,-3.3414,-3.3414,-3.3414,-1.4608,-1.4855,-1.5004,-1.5147,-1.5181,-1.5181,-1.5181,-1.5181,-1.5181,-1.5181,-1.5181,-1.5181,-1.5181,-1.5181,-1.5181,-1.5181,-1.5181,-1.5181,-1.5181,-1.5181,-1.5181,0.0,0.0,-1.5181,0.0,0.0,0.0,0.0,0.0,0.0,0.0,-1.5696,-1.5927,-1.6076,-1.6083,-1.6083,-1.6083,-1.6083,-1.6083,-1.6083,-1.8714,-1.9978,-2.0077,-2.2711,-2.388,0.0,0.0,0.0,0.0,-3.0592,-3.1664,-3.1664,-3.1664,-3.1677,-3.1664,-3.1664,-3.1664,-3.1664,-3.1664,-3.1664,-3.177,-3.2358,-3.2643,-3.2652,-3.3227,-3.3414,-3.3414,-3.3414,-3.3414,-3.3414,-3.3414,-3.3414,-3.3414,-3.3414,-3.3414,-3.3414,-3.3414,-3.3414,-3.3414,-3.3414,-3.3414,-3.3414,-3.3414,-3.3414,-3.3414,-3.3414,-3.3414,-3.3414,-3.3414,-3.3414,-3.3414,-3.3414,-3.3414,-3.3414,-3.3414,-3.3414,-3.3414,-3.3414,-3.3414,-3.3414,-3.3414,-3.3414,-3.3414,-3.3414,-3.3414,-3.3414,-3.3414,-3.3414,-3.3414,-3.3414,-3.3414,-3.3414,-1.457,-1.4774,-1.4984,-1.5025,-1.5113,-1.5181,-1.5181,-1.5181,-1.5181,-1.5181,-1.5181,-1.5181,-1.5181,-1.5181,-1.5181,-1.5181,-1.5181,-1.5181,-1.5181,-1.5181,0.0,-1.5181,-1.5181,-1.5181,0.0,0.0,0.0,0.0,0.0,0.0,0.0,-1.5499,-1.5662,-1.592,-1.6029,-1.6083,-1.6083,-1.6083,-1.6963,-1.8813,-1.9585,-2.0951,-2.2702,-2.5335,0.0,0.0,0.0,0.0,0.0,-3.1379,-3.1664,-3.1664,-3.1664,-3.1664,-3.1664,-3.1664,-3.1664,-3.1664,-3.1664,-3.1664,-3.177,-3.2358,-3.2643,-3.2652,-3.324,-3.3414,-3.3414,-3.3414,-3.3414,-3.3414,-3.3414,-3.3414,-3.3414,-3.3414,-3.3414,-3.3414,-3.3414,-3.3414,-3.3414,-3.3414,-3.3414,-3.3414,-3.3414,-3.3414,-3.3414,-3.3414,-3.3414,-3.3414,-3.3414,-3.3414,-3.3414,-3.3414,-3.3414,-3.3414,-3.3414,-3.3414,-3.3414,-3.3414,-3.3414,-3.3414,-3.3414,-3.3414,-3.3414,-3.3414,-3.3414,-3.3414,-3.3414,-3.3414,-3.3414,-3.3414,-3.3414,-3.3414,-1.4496,-1.4652,-1.4828,-1.4943,-1.5038,-1.512,-1.5167,-1.5181,-1.5181,-1.5181,-1.5181,-1.5181,-1.5181,-1.5181,-1.5181,-1.5181,-1.5181,-1.5181,-1.5181,0.0,0.0,-1.5181,0.0,0.0,0.0,0.0,0.0,0.0,0.0,0.0,0.0,-1.678,-1.7287,-1.844,-1.7825,-1.7977,-1.901,-1.901,-1.9888,-2.1441,-2.2516,-2.3783,-2.5432,-2.8068,0.0,0.0,0.0,0.0,0.0,-3.1664,-3.1664,-3.1664,-3.1664,-3.1664,-3.1664,-3.1664,-3.1664,-3.1664,-3.1664,-3.1744,-3.1917,-3.2398,-3.2692,-3.2933,-3.3307,-3.3414,-3.3414,-3.3414,-3.3414,-3.3414,-3.3414,-3.3414,-3.3414,-3.3414,-3.3414,-3.3414,-3.3414,-3.3414,-3.3414,-3.3414,-3.3414,-3.3414,-3.3414,-3.3414,-3.3414,-3.3414,-3.3414,-3.3414,-3.3414,-3.3414,-3.3414,-3.3414,-3.3414,-3.3414,-3.3414,-3.3414,-3.3414,-3.3414,-3.3414,-3.3414,-3.3414,-3.3414,-3.3414,-3.3414,-3.3414,-3.3414,-3.3414,-3.3414,-3.3414,-3.3414,-3.3414,-3.3414,0.0,-1.4502,-1.4577,-1.4869,-1.4957,-1.5004,-1.514,-1.5174,0.0,-1.5181,-1.5181,-1.5181,-1.5181,-1.5181,-1.5181,-1.5181,-1.5181,-1.5181,-1.5181,-1.5181,0.0,0.0,-1.5181,0.0,0.0,0.0,0.0,0.0,0.0,0.0,0.0,-1.9312,-2.0533,-2.2972,-2.1296,-2.1408,-2.385,-2.387,-2.3977,-2.4172,-2.6613,-2.7876,-2.8164,-3.0592,0.0,0.0,0.0,0.0,0.0,-3.1664,-3.1664,-3.1664,-3.1664,-3.1664,-3.1664,-3.1664,-3.1664,-3.1664,-3.1664,-3.1864,-3.2158,-3.2478,-3.2959,-3.3414,-3.3414,-3.3414,-3.3414,-3.3414,-3.3414,-3.3414,-3.3414,-3.3414,-3.3414,-3.3414,-3.3414,-3.3414,-3.3414,-3.3414,-3.3414,-3.3414,-3.3414,-3.3414,-3.3414,-3.3414,-3.3414,-3.3414,-3.3414,-3.3414,-3.3414,-3.3414,-3.3414,-3.3414,-3.3414,-3.3414,-3.3414,-3.3414,-3.3414,-3.3414,-3.3414,-3.3414,-3.3414,-3.3414,-3.3414,-3.3414,-3.3414,-3.3414,-3.3414,-3.3414,-3.3414,-3.3414,-3.3414,-3.3414,-1.434,0.0,-1.4529,-1.4604,-1.4794,-1.4977,0.0,-1.5106,-1.5181,-1.5181,-1.5181,-1.5181,-1.5181,-1.5181,-1.5181,-1.5181,-1.5181,-1.5181,-1.5181,0.0,0.0,-1.5181,0.0,0.0,0.0,0.0,0.0,0.0,0.0,0.0,0.0,-2.1685,-2.2984,-2.5672,-2.5333,-2.4554,-2.3521,-2.3789,-2.4948,-2.6902,-2.7492,-2.8847,-3.0795,-3.1379,0.0,0.0,0.0,0.0,-3.1664,-3.1664,-3.1664,-3.1664,-3.1664,-3.1664,-3.1664,-3.1664,-3.1664,-3.1664,-3.1664,-3.1864,-3.2185,-3.2706,-3.312,-3.3414,-3.3414,-3.3414,-3.3414,-3.3414,-3.3414,-3.3414,-3.3414,-3.3414,-3.3414,-3.3414,-3.3414,-3.3414,-3.3414,-3.3414,-3.3414,-3.3414,-3.3414,-3.3414,-3.3414,-3.3414,-3.3414,-3.3414,-3.3414,-3.3414,-3.3414,-3.3414,-3.3414,-3.3414,-3.3414,-3.3414,-3.3414,-3.3414,-3.3414,-3.3414,-3.3414,-3.3414,-3.3414,-3.3414,-3.3414,-3.3414,-3.3414,-3.3414,-3.3414,-3.3414,-3.3414,-3.3414,-3.3414,-3.3414,0.0,-1.4353,-1.4428,-1.4496,-1.4638,-1.478,-1.4848,-1.4977,-1.5086,-1.5086,-1.514,-1.5181,-1.5181,-1.6104,-1.6565,-1.5368,-1.6198,0.0,0.0,0.0,-1.5643,-1.6752,0.0,0.0,0.0,0.0,0.0,0.0,0.0,0.0,0.0,-2.4204,-2.5468,-2.8107,-2.8323,-2.7896,-2.699,-2.7129,-2.8033,-2.9625,-2.9625,-3.0306,-3.1664,-3.1664,-3.1664,0.0,0.0,0.0,-3.1664,-3.1664,-3.1664,-3.1664,-3.1664,-3.1664,-3.1664,-3.1664,-3.1664,-3.1664,-3.1664,-3.1944,-3.2398,-3.2986,-3.328,-3.3414,-3.3414,-3.3414,-3.3414,-3.3414,-3.3414,-3.3414,-3.3414,-3.3414,-3.3414,-3.3414,-3.3414,-3.3414,-3.3414,-3.3414,-3.3414,-3.3414,-3.3414,-3.3414,-3.3414,-3.3414,-3.3414,-3.3414,-3.3414,-3.3414,-3.3414,-3.3414,-3.3414,-3.3414,-3.3414,-3.3414,-3.3414,-3.3414,-3.3414,-3.3414,-3.3414,-3.3414,-3.3414,-3.3414,-3.3414,-3.3414,-3.3414,-3.3414,-3.3414,-3.3414,-3.3414,-3.3414,-3.3414,-3.3414,-1.4299,-1.4299,-1.4326,-1.4448,-1.4496,-1.4543,-1.4672,-1.4828,-1.4936,-1.4936,-1.5052,-1.524,-1.5608,-1.7196,-1.7763,-1.6011,0.0,0.0,-1.6572,-1.6292,-1.7126,0.0,0.0,0.0,0.0,0.0,0.0,0.0,0.0,0.0,0.0,-2.6785,-2.7702,-2.9824,-3.0167,-3.0555,-3.1089,-3.1183,-3.1356,-3.1597,-3.165,-3.1664,-3.1664,-3.1664,-3.1664,0.0,0.0,0.0,-3.1664,-3.1664,-3.1664,-3.1664,-3.1664,-3.1664,-3.1664,-3.1664,-3.1664,-3.1677,-3.177,-3.2131,-3.2639,-3.3227,-3.3414,-3.3414,-3.3414,-3.3414,-3.3414,-3.3414,-3.3414,-3.3414,-3.3414,-3.3414,-3.3414,-3.3414,-3.3414,-3.3414,-3.3414,-3.3414,-3.3414,-3.3414,-3.3414,-3.3414,-3.3414,-3.3414,-3.3414,-3.3414,-3.3414,-3.3414,-3.3414,-3.3414,-3.3414,-3.3414,-3.3414,-3.3414,-3.3414,-3.3414,-3.3414,-3.3414,-3.3414,-3.3414,-3.3414,-3.3414,-3.3414,-3.3414,-3.3414,-3.3414,-3.3414,-3.3414,-3.3414,-3.3414,-3.3414,-3.3414,-1.4299,-1.4299,-1.4306,-1.4326,-1.4421,-1.4516,-1.4543,-1.4665,-1.4774,-1.4774,-1.4896,-1.5639,-1.7732,-1.684,-1.6292,-1.8042,0.0,-1.9511,0.0,0.0,0.0,0.0,0.0,0.0,0.0,0.0,0.0,0.0,0.0,0.0,0.0,-2.9362,-2.9541,-2.9913,-2.9967,-3.0154,-3.0488,-3.0982,-3.1249,-3.1289,-3.1543,-3.1664,-3.1664,-3.1664,-3.1664,0.0,0.0,-3.1664,-3.1664,-3.1664,-3.1664,-3.1664,-3.1664,-3.1664,-3.1664,-3.1664,-3.1664,-3.1744,-3.2238,-3.2562,-3.2639,-3.3227,-3.3414,-3.3414,-3.3414,-3.3414,-3.3414,-3.3414,-3.3414,-3.3414,-3.3414,-3.3414,-3.3414,-3.3414,-3.3414,-3.3414,-3.3414,-3.3414,-3.3414,-3.3414,-3.3414,-3.3414,-3.3414,-3.3414,-3.3414,-3.3414,-3.3414,-3.3414,-3.3414,-3.3414,-3.3414,-3.3414,-3.3414,-3.3414,-3.3414,-3.3414,-3.3414,-3.3414,-3.3414,-3.3414,-3.3414,-3.3414,-3.3414,-3.3414,-3.3414,-3.3414,-3.3414,-3.3414,-3.3414,-3.3414,-3.3414,-3.3414,-1.4299,-1.4299,-1.4299,-1.4299,-1.4346,-1.4394,-1.4394,-1.5488,-1.613,-1.4882,-1.5727,-1.7131,-1.84,-1.8852,-1.9849,-2.2434,0.0,-2.1267,0.0,0.0,0.0,0.0,0.0,0.0,0.0,0.0,0.0,0.0,0.0,0.0,0.0,0.0,-2.9913,-2.9913,-2.9913,-2.998,-3.0114,-3.0541,-3.0915,-3.1223,-3.153,-3.1664,-3.1664,-3.1664,-3.1664,-3.1664,0.0,-3.1664,-3.1664,-3.1664,-3.1664,-3.1664,-3.1664,-3.1664,-3.1664,-3.1664,-3.1664,-3.1757,-3.2442,-3.2643,-3.2639,-3.3227,-3.3414,-3.3414,-3.3414,-3.3414,-3.3414,-3.3414,-3.3414,-3.3414,-3.3414,-3.3414,-3.3414,-3.3414,-3.3414,-3.3414,-3.3414,-3.3414,-3.3414,-3.3414,-3.3414,-3.3414,-3.3414,-3.3414,-3.3414,-3.3414,-3.3414,-3.3414,-3.3414,-3.3414,-3.3414,-3.3414,-3.3414,-3.3414,-3.3414,-3.3414,-3.3414,-3.3414,-3.3414,-3.3414,-3.3414,-3.3414,-3.3414,-3.3414,-3.3414,-3.3414,-3.3414,-3.3414,-3.3414,-3.3414,-3.3414,-3.3414,-1.4299,-1.4299,-1.4299,-1.4299,-1.4299,-1.4476,-1.4992,-1.6567,-1.7629,-1.6306,-1.7599,-1.9195,-1.997,-2.179,0.0,-2.582,-2.4671,0.0,0.0,0.0,0.0,0.0,0.0,0.0,0.0,0.0,0.0,0.0,0.0,0.0,0.0,0.0,-2.9913,-2.9913,-2.9913,-2.9913,-2.9913,-3.0207,-3.0621,-3.1129,-3.1423,-3.1597,-3.1664,-3.1664,-3.1664,-3.1664,-3.1664,-3.1664,-3.1664,-3.1664,-3.1664,-3.1664,-3.1664,-3.1664,-3.1664,-3.1664,-3.1664,-3.1757,-3.2442,-3.2643,-3.2639,-3.3227,-3.3414,-3.3414,-3.3414,-3.3414,-3.35,-3.4186,-3.4286,-3.4186,-3.3614,-3.3414,-3.3414,-3.3414,-3.3414,-3.3414,-3.3414,-3.3414,-3.3414,-3.3414,-3.3414,-3.36,-3.4186,-3.4286,-3.4471,-3.5153,-3.5253,-3.5253,-3.5253,-3.5253,-3.5253,-3.5253,-3.5253,-3.5253,-3.5253,-3.5253,-3.5253,-3.5153,-3.41,-3.3414,-3.3414,-3.3414,-3.3414,-3.3414,-3.3414,-3.3414,-3.3414,-3.3414,-3.3414,-3.3414,-3.3414,-3.37,-1.4299,-1.4299,-1.4299,-1.4299,-1.4299,-1.4911,-1.7071,-1.7684,-1.8392,-2.0289,-2.0987,-2.1849,-2.4243,-2.516,-2.5655,-2.6104,-2.6048,0.0,0.0,0.0,0.0,0.0,0.0,0.0,0.0,0.0,0.0,0.0,0.0,0.0,0.0,0.0,0.0,-2.9913,-2.9913,-2.9913,-2.9913,-3.0207,-3.0515,-3.0822,-3.1116,-3.1396,-3.1664,-3.1664,-3.1664,-3.1664,-3.1664,-3.1664,-3.1664,-3.1664,-3.1664,-3.1664,-3.1664,-3.1664,-3.1664,-3.1664,-3.1664,-3.1757,-3.2442,-3.2643,-3.2639,-3.3227,-3.3414,-3.3414,-3.3414,-3.3414,-3.39,-3.6312,-3.6987,-3.6411,-3.3987,-3.3414,-3.3414,-3.3414,-3.3414,-3.3414,-3.3414,-3.3414,-3.3414,-3.3414,-3.3414,-3.4186,-3.6608,-3.6987,-3.7855,-4.0271,-4.0657,-4.0657,-4.0657,-4.0657,-4.0657,-4.0657,-4.0657,-4.0657,-4.0657,-4.0657,-4.0577,-4.0577,-3.603,-3.3414,-3.3414,-3.3414,-3.3414,-3.3414,-3.3414,-3.3414,-3.3414,-3.3414,-3.3414,-3.3414,-3.3414,-3.467,-1.4299,-1.5344,-1.6466,-1.6466,-1.7509,-1.8462,-1.7938,-1.8889,-2.0183,-2.1048,-2.2417,-2.3746,-2.4858,0.0,-2.8156,-2.8258,-2.8424,0.0,0.0,0.0,0.0,0.0,0.0,0.0,0.0,0.0,0.0,0.0,0.0,0.0,0.0,0.0,0.0,-2.9913,-2.9913,-2.9913,-2.9913,-3.0034,-3.0327,-3.0795,-3.1089,-3.1383,-3.1664,-3.1664,-3.1664,-3.1664,-3.1664,-3.1664,-3.1664,-3.1664,-3.1664,-3.1664,-3.1664,-3.1664,-3.1664,-3.1664,-3.1784,-3.2272,-3.4276,-3.399,-3.3456,-3.7034,-3.7183,-3.6129,-3.7772,-3.8246,-3.8441,-3.9399,-3.969,-3.9496,-3.8539,-3.8246,-3.8246,-3.8246,-3.8246,-3.8246,-3.8246,-3.8246,-3.8246,-3.8246,-3.8246,-3.8539,-3.9512,-3.9706,-4.0078,-4.1043,-4.1235,-4.1235,-4.1235,-4.1235,-4.1235,-4.1235,-4.1235,-4.1235,-4.1235,-4.1235,-4.1139,-4.1156,-3.9318,-3.8246,-3.8246,-3.8246,-3.8246,-3.8246,-3.8246,-3.8246,-3.8246,-3.8246,-3.8246,-3.8246,-3.8246,-3.8831,-1.6473,-1.7684,-1.8889,-1.8889,-2.0009,-2.0962,-2.0183,-2.1221,-2.2525,-2.3287,-2.4679,-2.5897,-2.6167,-2.7856,0.0,0.0,0.0,0.0,0.0,0.0,0.0,0.0,0.0,0.0,0.0,0.0,0.0,0.0,0.0,0.0,0.0,0.0,0.0,0.0,-2.9913,-2.9913,-2.9913,-2.9913,-3.0207,-3.0795,-3.0996,-3.1289,-3.1664,-3.1664,-3.1664,-3.1664,-3.1664,-3.1664,-3.1664,-3.1664,-3.1664,-3.1664,-3.1664,-3.1664,-3.1758,-3.2583,-3.306,-3.3734,-3.6571,-3.6615,-3.6085,-3.9965,-3.9981,-3.8831,-4.0657,-4.1235,-4.1332,-4.2195,-4.2386,-4.2577,-4.3452,-4.2386,-4.1235,-4.1235,-4.1235,-4.1235,-4.1235,-4.1235,-4.1235,-4.1235,-4.1235,-4.1428,-4.2212,-4.2386,-4.2673,-4.3547,-4.3642,-4.3642,-4.3642,-4.3642,-4.3642,-4.3642,-4.3642,-4.3642,-4.3642,-4.3642,-4.3642,-4.3642,-4.3642,-4.2881,-4.1235,-4.1235,-4.1235,-4.1235,-4.1235,-4.1235,-4.1235,-4.1235,-4.1235,-4.1235,-4.1139,-4.162,-2.1221,-2.1221,-2.1221,-2.1221,-2.1221,-2.1911,-2.4166,-2.4691,-2.5373,-2.7714,-2.8221,-2.8315,-2.8551,-2.8604,0.0,0.0,0.0,0.0,0.0,0.0,0.0,0.0,0.0,0.0,0.0,0.0,0.0,0.0,0.0,0.0,0.0,0.0,0.0,0.0,-2.9913,-2.9913,-2.9913,-2.9913,-3.0207,-3.0795,-3.0795,-3.1102,-3.1664,-3.1664,-3.1664,-3.1664,-3.1664,-3.1664,-3.1664,-3.1758,-3.1758,-3.1758,-3.1758,-3.1758,-3.2043,-3.442,-3.5626,-3.6427,-3.9201,-4.0391,-4.0755,-4.112,-4.1235,-4.1235,-4.1235,-4.1235,-4.1812,-4.4305,-4.5079,-4.5661,-4.8273,-4.5079,-4.1235,-4.1235,-4.1235,-4.1235,-4.1235,-4.1235,-4.1235,-4.1235,-4.1235,-4.2099,-4.4589,-4.5079,-4.5943,-4.8478,-4.8867,-4.8867,-4.8867,-4.8867,-4.8867,-4.8867,-4.8867,-4.8867,-4.8867,-4.8867,-4.8867,-4.8867,-4.8867,-4.6635,-4.1524,-4.1235,-4.1235,-4.1235,-4.1235,-4.1235,-4.1235,-4.1235,-4.1235,-4.1235,-4.1252,-4.2594,-2.1221,-2.2428,-2.3652,-2.3652,-2.4935,-2.6321,-2.7012,-2.5896,-2.5373,-2.7714,-2.8221,-2.8261,-2.827,-2.8457,0.0,0.0,0.0,0.0,0.0,0.0,0.0,0.0,0.0,0.0,0.0,0.0,0.0,0.0,0.0,0.0,0.0,0.0,0.0,0.0,-2.9913,-2.9913,-2.9913,-2.9913,-3.0207,-3.0795,-3.0795,-3.1102,-3.1664,-3.1664,-3.1664,-3.1664,-3.1664,-3.1664,-3.1853,-3.3497,-3.5245,-3.6791,-3.6791,-3.6791,-3.6914,-3.7983,-3.8566,-3.9295,-4.2207,-4.2287,-4.1661,-4.5437,-4.5379,-4.4211,-4.6055,-4.6635,-4.6728,-4.7493,-4.7791,-4.7883,-4.8663,-4.7791,-4.6635,-4.6635,-4.6635,-4.6635,-4.6635,-4.6635,-4.6635,-4.6635,-4.6635,-4.6822,-4.7605,-4.7791,-4.7976,-4.8755,-4.8867,-4.8867,-4.8867,-4.8867,-4.8867,-4.8867,-4.8867,-4.8867,-4.8867,-4.8867,-4.8867,-4.8867,-4.8867,-4.8181,-4.6635,-4.6635,-4.6635,-4.6635,-4.6635,-4.6635,-4.6635,-4.6635,-4.6635,-4.6635,-4.6635,-4.7008,-2.3984,-2.502,-2.6066,-2.6066,-2.7194,-2.8221,-2.8221,-2.7109,-2.6503,-2.7883,-2.8221,-2.8221,-2.8221,-2.8297,0.0,0.0,0.0,0.0,0.0,0.0,0.0,0.0,0.0,0.0,0.0,0.0,0.0,0.0,0.0,0.0,0.0,0.0,0.0,0.0,-2.9913,-2.9913,-2.9913,-2.9913,-3.0646,-3.2211,-3.2211,-3.3087,-3.4514,-3.2597,-3.2219,-3.3229,-3.4139,-3.4607,-3.4701,-3.6159,-3.762,-3.8993,-3.8993,-3.8993,-3.9209,-4.0583,-4.1326,-4.1983,-4.5021,-4.5238,-4.4796,-4.7883,-4.7791,-4.6822,-4.8459,-4.8867,-4.8867,-4.8867,-4.8867,-4.8867,-4.8867,-4.8867,-4.8867,-4.8867,-4.8867,-4.8867,-4.8867,-4.8867,-4.8867,-4.8867,-4.8867,-4.8867,-4.8867,-4.8867,-4.8867,-4.8867,-4.8867,-4.8867,-4.8867,-4.8867,-4.8867,-4.8867,-4.8867,-4.8867,-4.8867,-4.8867,-4.8867,-4.8867,-4.8867,-4.8867,-4.8867,-4.8867,-4.8867,-4.8867,-4.8867,-4.8867,-4.8867,-4.8867,-4.8867,-4.8867,-4.8867,-4.8867,-2.8221,-2.8221,-2.8221,-2.8221,-2.8221,-2.8221,-2.8221,-2.8221,-2.8221,-2.8221,-2.8221,-2.8221,-2.8221,-2.8221,0.0,0.0,0.0,0.0,0.0,0.0,0.0,0.0,0.0,0.0,0.0,0.0,0.0,0.0,0.0,0.0,0.0,0.0,0.0,-2.9913,-2.9913,-3.0003,-3.0182,-3.0258,-3.1699,0.0,-3.4698,-3.6212,-3.8902,-3.442,-3.3591,-3.5788,-3.7987,-3.9068,-3.9358,-3.9358,-3.9432,-3.963,-3.963,-3.9647,-4.0078,-4.2674,-4.3997,-4.4673,-4.7357,-4.8535,-4.8867,-4.8867,-4.8867,-4.8867,-4.8867,-4.8867,-4.8867,-4.8867,-4.8867,-4.8867,-4.8867,-4.8867,-4.8867,-4.8867,-4.8867,-4.8867,-4.8867,-4.8867,-4.8867,-4.8867,-4.8867,-4.8867,-4.8867,-4.8867,-4.8867,-4.8867,-4.8867,-4.8867,-4.8867,-4.8867,-4.8867,-4.8867,-4.8867,-4.8867,-4.8867,-4.8867,-4.8867,-4.8867,-4.8867,-4.8867,-4.8867,-4.8867,-4.8867,-4.8867,-4.8867,-4.8867,-4.8867,-4.8867,-4.8867,-4.8867,-4.8867,-4.8867,-2.8221,-2.8221,-2.8221,-2.8221,-2.8221,-2.8221,-2.8221,-2.8221,-2.8221,-2.8221,-2.8221,-2.8221,-2.8221,0.0,0.0,0.0,0.0,0.0,0.0,0.0,0.0,0.0,0.0,0.0,0.0,0.0,0.0,0.0,0.0,0.0,0.0,0.0,0.0,-2.9913,-2.9913,-3.0781,-3.2602,-3.2602,-3.4152,0.0,-3.7104,-3.7835,-3.8993,-3.7895,-3.7712,-3.8246,-3.8811,-4.0084,-4.1816,-4.1816,-4.2996,-4.4738,-4.4738,-4.4927,-4.5356,-4.6351,-4.6953,-4.7468,-4.8371,-4.8789,-4.8867,-4.8867,-4.8867,-4.8867,-4.8867,-4.8867,-4.8867,-4.8867,-4.8867,-4.8867,-4.8867,-4.8867,-4.8867,-4.8867,-4.8867,-4.8867,-4.8867,-4.8867,-4.8867,-4.8867,-4.8867,-4.8867,-4.8867,-4.8867,-4.8867,-4.8867,-4.8867,-4.8867,-4.8867,-4.8867,-4.8867,-4.8867,-4.8867,-4.8867,-4.8867,-4.8867,-4.8867,-4.8867,-4.8867,-4.8867,-4.8867,-4.8867,-4.8867,-4.8867,-4.8867,-4.8867,-4.8867,-4.8867,-4.8867,-4.8867,-4.8867,-4.8867,-2.8221,-2.8221,-2.8221,-2.8221,-2.8221,-2.8221,-2.8221,-2.8221,-2.8221,-2.8221,-2.8221,-2.8221,-2.8221,0.0,0.0,0.0,0.0,0.0,0.0,0.0,0.0,0.0,0.0,0.0,0.0,0.0,0.0,0.0,0.0,0.0,0.0,-3.0959,-3.1568,-3.1568,-3.2602,-3.3819,-3.5027,-3.5027,-3.6583,-3.9685,-3.9685,-4.0613,-4.2461,-4.1259,-4.0718,-4.0808,-4.1995,-4.3193,-4.4365,-4.4365,-4.5109,-4.6308,-4.6308,-4.6562,-4.6992,-4.7422,-4.7851,-4.8281,-4.8711,-4.8867,-4.8867,-4.8867,-4.8867,-4.8867,-4.8867,-4.8867,-4.8867,-4.8867,-4.8867,-4.8867,-4.8867,-4.8867,-4.8867,-4.8867,-4.8867,-4.8867,-4.8867,-4.8867,-4.8867,-4.8867,-4.8867,-4.8867,-4.8867,-4.8867,-4.8867,-4.8867,-4.8867,-4.8867,-4.8867,-4.8867,-4.8867,-4.8867,-4.8867,-4.8867,-4.8867,-4.8867,-4.8867,-4.8867,-4.8867,-4.8867,-4.8867,-4.8867,-4.8867,-4.8867,-4.8867,-4.8867,-4.8867,-4.8867,-4.8867,-4.8867,-4.9082,-4.918,-2.8221,-2.8221,-2.8221,-2.8221,-2.8221,-2.8221,-2.8221,-2.8221,-2.8221,-2.8221,-2.8221,-2.8221,0.0,0.0,0.0,0.0,0.0,0.0,0.0,0.0,0.0,0.0,0.0,0.0,0.0,0.0,0.0,0.0,0.0,0.0,-3.1048,-3.2955,-3.3994,-3.3994,-3.5793,-3.7003,-3.7432,-3.75,-3.908,-4.2179,-4.2326,-4.3815,-4.6201,-4.4188,-4.3264,-4.3353,-4.5392,-4.6308,-4.6308,-4.6308,-4.6308,-4.6308,-4.6387,-4.666,-4.709,-4.7519,-4.7949,-4.8379,-4.873,-4.8867,-4.8867,-4.8867,-4.8867,-4.8867,-4.8867,-4.8867,-4.8867,-4.8867,-4.8867,-4.8867,-4.8867,-4.8867,-4.8867,-4.8867,-4.8867,-4.8867,-4.8867,-4.8867,-4.8867,-4.8867,-4.8926,-4.9004,-4.9082,-4.9082,-4.9082,-4.9082,-4.9082,-4.9082,-4.9082,-4.9082,-4.9082,-4.9082,-4.9082,-4.9082,-4.9082,-4.9082,-4.9082,-4.9082,-4.9082,-4.9082,-4.9082,-4.9082,-4.9082,-4.9082,-4.9004,-4.9004,-4.9082,-4.9082,-4.9082,-4.9101,-4.9473,-4.9648,-2.8221,-2.8221,-2.8221,-2.8221,-2.8221,-2.8221,-2.8221,-2.8221,-2.8221,0.0,-2.8221,0.0,0.0,0.0,0.0,0.0,0.0,0.0,0.0,0.0,0.0,0.0,0.0,0.0,0.0,0.0,0.0,0.0,0.0,0.0,-3.5793,-3.614,-3.6313,-3.6313,-3.6658,-3.7775,-3.9818,-4.0175,-4.1721,-4.4593,-4.5329,-4.591,-4.6308,-4.5939,-4.5851,-4.5832,-4.6114,-4.6308,-4.6308,-4.6308,-4.6308,-4.6328,-4.6699,-4.7109,-4.7539,-4.7969,-4.8398,-4.8789,-4.8848,-4.8867,-4.8867,-4.8867,-4.8867,-4.8867,-4.8867,-4.8867,-4.8867,-4.8867,-4.8867,-4.8867,-4.8867,-4.8867,-4.8867,-4.8867,-4.8867,-4.8867,-4.8867,-4.8867,-4.8867,-4.8867,-4.918,-4.9551,-4.9941,-5.0,-5.0,-5.0,-5.0,-5.0,-5.0,-5.0,-5.0,-5.0,-5.0,-5.0,-5.0,-5.0,-5.0,-5.0,-5.0,-5.0,-5.0,-5.0,-5.0,-5.0,-4.9629,-4.9629,-5.0,-5.0,-5.0,-5.0,-5.0058,-5.0098,-2.8221,-2.8221,-2.8221,-2.8221,-2.8221,-2.8221,-2.8221,-2.8221,-2.8221,-2.8221,-2.8221,0.0,0.0,0.0,0.0,0.0,0.0,0.0,0.0,0.0,0.0,0.0,0.0,0.0,0.0,0.0,0.0,0.0,0.0,-3.5707,-3.6744,-3.8032,-3.88,-3.88,-4.0005,-4.1118,-4.2141,-4.2677,-4.3755,-4.5391,-4.6016,-4.6308,-4.6308,-4.6308,-4.6308,-4.6308,-4.6308,-4.6308,-4.6308,-4.6308,-4.6445,-4.668,-4.6855,-4.7344,-4.7949,-4.8144,-4.8476,-4.8867,-4.8867,-4.8867,-4.8867,-4.8867,-4.8867,-4.8867,-4.8867,-4.8867,-4.8867,-4.8867,-4.8867,-4.8867,-4.8867,-4.8867,-4.8926,-4.918,-4.9238,-4.9297,-4.9551,-4.9394,-4.9297,-4.9551,-4.9746,-4.9961,-5.0137,-5.0176,-5.0176,-5.0176,-5.0176,-5.0176,-5.0176,-5.0176,-5.0176,-5.0176,-5.0176,-5.0176,-5.0176,-5.0176,-5.0176,-5.0176,-5.0176,-5.0176,-5.0176,-5.0176,-5.0293,-5.0527,-5.0117,-4.998,-5.0176,-5.0176,-5.0176,-5.0195,-5.041,-5.0527,-2.8221,-2.8221,-2.8221,-2.8221,-2.8221,-2.8221,-2.8221,-2.8221,-2.8221,0.0,0.0,0.0,0.0,0.0,0.0,0.0,0.0,0.0,0.0,0.0,0.0,0.0,0.0,0.0,0.0,0.0,0.0,0.0,0.0,-3.7947,-3.8545,-4.0174,-4.1202,-4.1202,-4.2844,-4.3769,-4.3887,-4.4433,-4.5098,-4.584,-4.6152,-4.6308,-4.6308,-4.6308,-4.6308,-4.6308,-4.6308,-4.6308,-4.6308,-4.6426,-4.6641,-4.6953,-4.7168,-4.7637,-4.8223,-4.832,-4.8574,-4.8867,-4.8867,-4.8867,-4.8867,-4.8867,-4.8867,-4.8867,-4.8867,-4.8867,-4.8867,-4.8867,-4.8867,-4.8887,-4.9004,-4.9023,-4.9141,-4.959,-4.9687,-4.9785,-5.0098,-4.9922,-4.9824,-5.0254,-5.0332,-5.0371,-5.0488,-5.0488,-5.0488,-5.0488,-5.0488,-5.0488,-5.0488,-5.0488,-5.0488,-5.0488,-5.0488,-5.0488,-5.0488,-5.0488,-5.0488,-5.0488,-5.0488,-5.0488,-5.0488,-5.0488,-5.0644,-5.0957,-5.0664,-5.0488,-5.0488,-5.0488,-5.0488,-5.0508,-5.082,-5.0957,-2.8221,-2.8221,-2.8221,-2.8221,-2.8221,-2.8221,-2.8221,0.0,-2.8221,-2.8221,0.0,0.0,0.0,0.0,0.0,0.0,0.0,0.0,0.0,0.0,0.0,0.0,0.0,0.0,0.0,0.0,0.0,0.0,0.0,-4.1034,-4.3195,-4.3443,-4.3526,-4.3526,-4.3628,-4.3926,-4.4355,-4.5195,-4.584,-4.6269,-4.6289,-4.6308,-4.6308,-4.6308,-4.6308,-4.6308,-4.6308,-4.6308,-4.6328,-4.6738,-4.6914,-4.7012,-4.7832,-4.8164,-4.8262,-4.8672,-4.8848,-4.8867,-4.8867,-4.8867,-4.8867,-4.8867,-4.8867,-4.8867,-4.8867,-4.8867,-4.8867,-4.8867,-4.8867,-4.8965,-4.9375,-4.9492,-4.9609,-5.0039,-5.0137,-5.0156,-5.0176,-5.0156,-5.0273,-5.0683,-5.0781,-5.0898,-5.1308,-5.1367,-5.1367,-5.1367,-5.1367,-5.1367,-5.1367,-5.1367,-5.1367,-5.1367,-5.1367,-5.1367,-5.1367,-5.1367,-5.1367,-5.1367,-5.1367,-5.1367,-5.1367,-5.1367,-5.1367,-5.1406,-5.1387,-5.1367,-5.1367,-5.1367,-5.1367,-5.1367,-5.1387,-5.1406,-2.8221,-2.8221,-2.8221,-2.8221,-2.8221,-2.8221,-2.8221,-2.9286,-2.9857,-2.8473,0.0,0.0,0.0,0.0,0.0,0.0,0.0,0.0,0.0,0.0,0.0,0.0,0.0,0.0,0.0,0.0,0.0,0.0,0.0,0.0,-4.3628,-4.3711,-4.3711,-4.3711,-4.3711,-4.4062,-4.4785,-4.5391,-4.5879,-4.6308,-4.6308,-4.6308,-4.6308,-4.6308,-4.6308,-4.6308,-4.6308,-4.6465,-4.6719,-4.6875,-4.7246,-4.7773,-4.8086,-4.8379,-4.8652,-4.8808,-4.8867,-4.8867,-4.8867,-4.8867,-4.8867,-4.8867,-4.8867,-4.8867,-4.8867,-4.8867,-4.8926,-4.9199,-4.9297,-4.9394,-4.9824,-4.9941,-5.0058,-5.0469,-5.0781,-5.0976,-5.0976,-5.0976,-5.1035,-5.1172,-5.1211,-5.125,-5.1406,-5.1426,-5.1426,-5.1426,-5.1426,-5.1426,-5.1426,-5.1426,-5.1426,-5.1426,-5.1426,-5.1426,-5.1426,-5.1426,-5.1426,-5.1426,-5.1426,-5.1426,-5.1426,-5.1426,-5.1426,-5.1426,-5.1426,-5.1426,-5.1426,-5.1426,-5.1426,-5.1426,-5.1426,-5.1426,-2.8221,-2.8221,-2.8221,-2.8221,-2.8221,-2.8389,-2.9118,-3.0343,-3.1241,-3.0509,0.0,0.0,0.0,0.0,0.0,0.0,0.0,0.0,0.0,0.0,0.0,0.0,0.0,0.0,0.0,0.0,0.0,0.0,0.0,0.0,-4.3711,-4.3711,-4.3769,-4.3926,-4.4082,-4.4492,-4.5234,-4.5664,-4.6035,-4.6308,-4.6308,-4.6308,-4.6308,-4.6308,-4.6308,-4.6308,-4.6445,-4.668,-4.6933,-4.709,-4.7558,-4.8223,-4.8359,-4.8613,-4.8867,-4.8867,-4.8867,-4.8867,-4.8867,-4.8867,-4.8867,-4.8867,-4.8867,-4.8887,-4.9043,-4.9082,-4.918,-4.9629,-4.9746,-4.9844,-5.0273,-5.0488,-5.0664,-5.0957,-5.123,-5.1426,-5.1426,-5.1426,-5.1426,-5.1426,-5.1426,-5.1426,-5.1426,-5.1426,-5.1426,-5.1426,-5.1426,-5.1426,-5.1426,-5.1426,-5.1426,-5.1426,-5.1426,-5.1426,-5.1426,-5.1426,-5.1426,-5.1426,-5.1426,-5.1426,-5.1426,-5.1426,-5.1426,-5.1426,-5.1426,-5.1426,-5.1426,-5.1426,-5.1426,-5.1426,-5.1426,-5.1426,0.0,0.0,0.0,-2.8221,-2.8221,-2.8796,-3.091,0.0,-3.2134,0.0,0.0,0.0,0.0,0.0,0.0,0.0,0.0,0.0,0.0,0.0,0.0,0.0,0.0,0.0,0.0,0.0,0.0,0.0,0.0,-4.3711,-4.3711,-4.3711,-4.3926,-4.4375,-4.4805,-4.5234,-4.5664,-4.6094,-4.6308,-4.6308,-4.6308,-4.6308,-4.6308,-4.6308,-4.6308,-4.6348,-4.6758,-4.6933,-4.6992,-4.7422,-4.7851,-4.8262,-4.8691,-4.8867,-4.8867,-4.8867,-4.8867,-4.8867,-4.8867,-4.8867,-4.8867,-4.8867,-4.8867,-4.8965,-4.9394,-4.9531,-4.9648,-5.0078,-5.0195,-5.0293,-5.0723,-5.1133,-5.1426,-5.1426,-5.1426,-5.1426,-5.1426,-5.1426,-5.1426,-5.1426,-5.1426,-5.1426,-5.1426,-5.1426,-5.1426,-5.1426,-5.1426,-5.1426,-5.1426,-5.1426,-5.1426,-5.1426,-5.1426,-5.1426,-5.1426,-5.1426,-5.1426,-5.1426,-5.1426,-5.1426,-5.1426,-5.1426,-5.1426,-5.1426,-5.1426,-5.1426,-5.1426,-5.1426,-5.1426,-5.1426,-5.1426,-5.1426,-2.8221,0.0,0.0,0.0,0.0,0.0,0.0,0.0,0.0,0.0,0.0,0.0,0.0,0.0,0.0,0.0,0.0,0.0,0.0,0.0,0.0,0.0,0.0,0.0,0.0,0.0,0.0,0.0,-4.3711,-4.3711,-4.3711,-4.3711,-4.3926,-4.4375,-4.4805,-4.5234,-4.5664,-4.6094,-4.6308,-4.6308,-4.6308,-4.6308,-4.6308,-4.6308,-4.6465,-4.6758,-4.6875,-4.7285,-4.7871,-4.7988,-4.8281,-4.8691,-4.8808,-4.8867,-4.8867,-4.8867,-4.8867,-4.8867,-4.8867,-4.8867,-4.8867,-4.8867,-4.9082,-4.9355,-4.9492,-4.9746,-5.0078,-5.0508,-5.0625,-5.0723,-5.1152,-5.1348,-5.1426,-5.1426,-5.1426,-5.1426,-5.1426,-5.1426,-5.1426,-5.1426,-5.1426,-5.1426,-5.1426,-5.1426,-5.1426,-5.1426,-5.1426,-5.1426,-5.1426,-5.1426,-5.1426,-5.1426,-5.1426,-5.1426,-5.1426,-5.1426,-5.1426,-5.1426,-5.1426,-5.1426,-5.1426,-5.1426,-5.1426,-5.1426,-5.1426,-5.1426,-5.1426,-5.1426,-5.1426,-5.1426,-5.1426,-5.1426,0.0,0.0,0.0,0.0,0.0,0.0,-3.3594,-3.5137,-3.6281,0.0,0.0,0.0,0.0,0.0,0.0,0.0,0.0,0.0,0.0,0.0,0.0,0.0,0.0,0.0,0.0,0.0,0.0,-4.3711,-4.3711,-4.3711,-4.3711,-4.3711,-4.4004,-4.4629,-4.4902,-4.5312,-4.5937,-4.6191,-4.6308,-4.6308,-4.6308,-4.6308,-4.6308,-4.6308,-4.6523,-4.6933,-4.7129,-4.7578,-4.8223,-4.8398,-4.8633,-4.8867,-4.8867,-4.8867,-4.8867,-4.8867,-4.8867,-4.8867,-4.8867,-4.9683,-5.0538,-4.9492,-5.0139,-5.1169,-5.0263,-5.0234,-5.0527,-5.0957,-5.1074,-5.1113,-5.1367,-5.1426,-5.1426,-5.1426,-5.1426,-5.1426,-5.1426,-5.1426,-5.1426,-5.1426,-5.1426,-5.1426,-5.1426,-5.1426,-5.1426,-5.1426,-5.1426,-5.1426,-5.1426,-5.1426,-5.1426,-5.1426,-5.1426,-5.1426,-5.1426,-5.1426,-5.1426,-5.1426,-5.1426,-5.1426,-5.1426,-5.1426,-5.1426,-5.1426,-5.1426,-5.1426,-5.1426,-5.1426,-5.1426,-5.1426,-5.1426,-5.1426,0.0,0.0,0.0,0.0,0.0,0.0,-3.7419,-3.7896,-3.8548,0.0,0.0,0.0,0.0,0.0,0.0,0.0,0.0,0.0,0.0,0.0,0.0,0.0,0.0,0.0,0.0,-4.3711,-4.3711,-4.3711,-4.3711,-4.3711,-4.3711,-4.375,-4.416,-4.5,-4.5078,-4.5488,-4.6289,-4.6308,-4.6308,-4.6308,-4.6308,-4.6308,-4.6308,-4.6348,-4.6601,-4.7031,-4.7461,-4.7891,-4.8301,-4.8691,-4.8867,-4.8867,-4.8867,-4.8867,-4.8867,-4.8867,-4.9032,-4.9308,-4.9348,-5.1037,-5.2806,-5.065,-5.1582,-5.3178,-5.1313,-5.084,-5.0957,-5.1328,-5.1426,-5.1426,-5.1426,-5.1426,-5.1426,-5.1426,-5.1426,-5.1426,-5.1426,-5.1426,-5.1426,-5.1426,-5.1426,-5.1426,-5.1426,-5.1426,-5.1426,-5.1426,-5.1426,-5.1426,-5.1426,-5.1426,-5.1426,-5.1426,-5.1426,-5.1426,-5.1426,-5.1426,-5.1426,-5.1426,-5.1426,-5.1426,-5.1426,-5.1426,-5.1426,-5.1426,-5.1426,-5.1426,-5.1426,-5.1426,-5.1426,-5.1426,-5.1426,-5.1426,0.0,0.0,0.0,0.0,0.0,0.0,-3.7419,-3.7896,-3.8548,0.0,0.0,0.0,0.0,0.0,0.0,0.0,0.0,0.0,0.0,0.0,0.0,0.0,0.0,0.0,0.0,-4.3711,-4.3711,-4.3711,-4.3711,-4.3711,-4.3711,-4.4062,-4.4492,-4.5,-4.5371,-4.5801,-4.6289,-4.6308,-4.6308,-4.6308,-4.6308,-4.6308,-4.6308,-4.666,-4.7051,-4.748,-4.791,-4.832,-4.873,-4.8828,-4.8867,-4.8867,-4.8867,-4.8867,-4.8867,-4.8867,-5.0094,-5.1819,-5.2193,-5.2632,-5.303,-5.2948,-5.2214,-5.1333,-5.0953,-5.1035,-5.1328,-5.1406,-5.1426,-5.1426,-5.1426,-5.1426,-5.1426,-5.1426,-5.1426,-5.1426,-5.1426,-5.1426,-5.1426,-5.1426,-5.1426,-5.1426,-5.1426,-5.1426,-5.1426,-5.1426,-5.1426,-5.1426,-5.1426,-5.1426,-5.1426,-5.1426,-5.1426,-5.1426,-5.1426,-5.1426,-5.1426,-5.1426,-5.1426,-5.1426,-5.1426,-5.1426,-5.1426,-5.1426,-5.1426,-5.1426,-5.1426,-5.1426,-5.1426,-5.1426,-5.1426,-5.1426,0.0,0.0,0.0,-3.6316,0.0,0.0,0.0,-3.9531,-3.9864,-4.0997,0.0,0.0,0.0,0.0,0.0,0.0,0.0,0.0,0.0,0.0,0.0,0.0,0.0,0.0,0.0,-4.3711,-4.3711,-4.3711,-4.3711,-4.3711,-4.3711,-4.4141,-4.459,-4.5019,-4.5449,-4.5879,-4.6289,-4.6308,-4.6308,-4.6308,-4.6308,-4.6308,-4.6308,-4.6738,-4.7168,-4.7598,-4.8027,-4.8457,-4.8867,-4.8867,-4.8867,-4.8867,-4.8867,-4.8867,-4.9032,-5.0185,-5.1561,-5.3014,-5.4485,-5.5213,-5.5557,-5.5887,-5.5379,-5.4518,-5.3311,-5.2175,-5.1426,-5.1426,-5.1426,-5.1426,-5.1426,-5.1426,-5.1426,-5.1426,-5.1426,-5.1426,-5.1426,-5.1426,-5.1426,-5.1426,-5.1426,-5.1426,-5.1426,-5.1426,-5.1426,-5.1426,-5.1426,-5.1426,-5.1426,-5.1426,-5.1426,-5.1426,-5.1426,-5.1426,-5.1426,-5.1426,-5.1426,-5.1426,-5.1426,-5.1426,-5.1426,-5.1426,-5.1426,-5.1426,-5.1426,-5.1426,-5.1426,-5.1426,-5.1426,-5.1426,-5.1426,-5.1426,0.0,0.0,0.0,0.0,0.0,-4.1289,0.0,0.0,0.0,-4.1172,0.0,0.0,0.0,0.0,0.0,0.0,0.0,0.0,0.0,0.0,0.0,0.0,0.0,0.0,0.0,-4.3711,-4.3711,-4.3711,-4.3711,-4.375,-4.3828,-4.4277,-4.4707,-4.5137,-4.5566,-4.5957,-4.6289,-4.6308,-4.6308,-4.6308,-4.6308,-4.6348,-4.6445,-4.6855,-4.7285,-4.7715,-4.8144,-4.8535,-4.8867,-4.8867,-4.8867,-4.8867,-4.8867,-4.9216,-4.9839,-5.1861,-5.3353,-5.4862,-5.6974,-5.8182,-5.8751,-5.8954,-5.891,-5.8447,-5.6408,-5.4379,-5.272,-5.2258,-5.2065,-5.1988,-5.1523,-5.1426,-5.1426,-5.1426,-5.1426,-5.1426,-5.1426,-5.1426,-5.1426,-5.1426,-5.1426,-5.1426,-5.1426,-5.1426,-5.1426,-5.1426,-5.1426,-5.1426,-5.1426,-5.1426,-5.1426,-5.1426,-5.1426,-5.1426,-5.1426,-5.1426,-5.1426,-5.1426,-5.1426,-5.1426,-5.1426,-5.1426,-5.1426,-5.1426,-5.1426,-5.1426,-5.1426,-5.1426,-5.1426,-5.1426,-5.1426,-5.1426,0.0,0.0,0.0,0.0,-4.1833,0.0,0.0,0.0,-4.1172,-4.1172,0.0,0.0,0.0,0.0,0.0,0.0,0.0,0.0,0.0,0.0,0.0,0.0,0.0,0.0,0.0,0.0,-4.3711,-4.3711,-4.3711,-4.3887,-4.4297,-4.4726,-4.5156,-4.5586,-4.6016,-4.625,-4.6308,-4.6308,-4.6308,-4.6308,-4.6308,-4.6504,-4.6875,-4.7305,-4.7734,-4.8164,-4.8594,-4.8808,-4.8867,-4.8867,-4.8867,-4.8867,-4.8867,-5.0185,-5.2069,-5.2827,-5.5755,-5.9547,-6.0813,-6.1215,-6.1292,-6.1853,-6.0586,-5.8722,-5.8447,-5.8171,-5.7524,-5.5304,-5.4642,-5.4189,-5.1988,-5.1426,-5.1426,-5.1426,-5.1426,-5.1426,-5.1426,-5.1426,-5.1426,-5.1426,-5.1426,-5.1426,-5.1426,-5.1426,-5.1426,-5.1426,-5.1426,-5.1426,-5.1426,-5.1426,-5.1426,-5.1426,-5.1426,-5.1426,-5.1426,-5.1426,-5.1426,-5.1426,-5.1426,-5.1426,-5.1426,-5.1426,-5.1426,-5.1426,-5.1426,-5.1426,-5.1426,-5.1426,-5.1426,-5.1426,-5.1426,-5.1426,0.0,0.0,0.0,0.0,0.0,0.0,-4.2168,0.0,-4.1543,0.0,0.0,0.0,0.0,0.0,0.0,0.0,0.0,0.0,0.0,0.0,0.0,0.0,0.0,0.0,0.0,0.0,0.0,0.0,0.0,-4.3906,-4.4375,-4.4805,-4.5234,-4.5664,-4.6094,-4.6308,-4.6308,-4.6308,-4.6308,-4.6308,-4.6543,-4.6758,-4.6953,-4.7637,-4.8047,-4.8223,-4.8672,-4.8867,-4.8867,-4.8867,-4.9748,-5.1005,-5.125,-5.1969,-5.3236,-5.6176,-5.8913,-6.135,-6.324,-6.306,-6.216,-6.2398,-6.1846,-6.0926,-6.0926,-5.9908,-5.8539,-5.7524,-5.7246,-5.706,-5.5962,-5.568,-5.568,-5.568,-5.568,-5.568,-5.568,-5.4568,-5.3542,-5.3542,-5.2354,-5.1426,-5.1426,-5.1426,-5.1426,-5.1426,-5.1426,-5.1426,-5.1426,-5.1426,-5.1426,-5.1426,-5.1426,-5.1426,-5.1426,-5.1426,-5.1426,-5.1426,-5.1426,-5.1426,-5.1426,-5.1426,-5.1426,-5.1426,-5.1426,-5.1426,-5.1426,-5.1426,-5.1426,-5.1426,-5.1426,-5.1426,-4.334,0.0,0.0,0.0,0.0,0.0,0.0,0.0,0.0,0.0,0.0,0.0,0.0,0.0,0.0,0.0,0.0,0.0,0.0,0.0,0.0,0.0,0.0,0.0,0.0,0.0,0.0,0.0,0.0,0.0,-4.4531,-4.4863,-4.5273,-4.584,-4.6152,-4.6308,-4.6308,-4.6308,-4.6308,-4.6308,-4.6738,-4.6992,-4.7129,-4.7871,-4.8281,-4.8398,-4.873,-4.8867,-4.894,-4.9564,-5.0955,-5.2776,-5.4421,-5.5351,-5.5929,-5.9395,-6.1562,-6.304,-6.4922,-6.4593,-6.3466,-6.3466,-6.3466,-6.3466,-6.3466,-6.2179,-6.0632,-5.9999,-5.9817,-5.9636,-5.8997,-5.8814,-5.8814,-5.8814,-5.8814,-5.8814,-5.8814,-5.7432,-5.6128,-5.6128,-5.4663,-5.3467,-5.3467,-5.2258,-5.1426,-5.1426,-5.1426,-5.1426,-5.1426,-5.1426,-5.1426,-5.1426,-5.1426,-5.1426,-5.1426,-5.1426,-5.1426,-5.1426,-5.1426,-5.1426,-5.1426,-5.1426,-5.1426,-5.1426,-5.1426,-5.1426,-5.1426,-5.1426,-5.1426,-5.1426,-5.1426,-5.1426,0.0,0.0,0.0,-4.3672,0.0,0.0,0.0,0.0,-4.2402,0.0,0.0,0.0,0.0,0.0,0.0,0.0,0.0,0.0,0.0,0.0,0.0,0.0,0.0,0.0,0.0,0.0,0.0,0.0,0.0,0.0,-4.4961,-4.5019,-4.541,-4.625,-4.6289,-4.6308,-4.6308,-4.6308,-4.6308,-4.6308,-4.6738,-4.7148,-4.7578,-4.8008,-4.8437,-4.8848,-4.8848,-4.8867,-4.9032,-5.1326,-5.2638,-5.3671,-5.8172,-6.0647,-6.1549,-6.1725,-6.3189,-6.5273,-6.5911,-6.6,-6.6026,-6.6026,-6.6026,-6.6026,-6.6026,-6.594,-6.5372,-6.3025,-6.238,-6.1822,-5.9454,-5.8814,-5.8814,-5.8814,-5.8814,-5.8814,-5.8814,-5.8722,-5.8722,-5.8722,-5.863,-5.8539,-5.8539,-5.4568,-5.1426,-5.1426,-5.1426,-5.1426,-5.1426,-5.1426,-5.1426,-5.1426,-5.1426,-5.1426,-5.1426,-5.1426,-5.1426,-5.1426,-5.1426,-5.1426,-5.1426,-5.1426,-5.1426,-5.1426,-5.1426,-5.1426,-5.1426,-5.1426,-5.1426,-5.1426,-5.1426,-5.1426,0.0,0.0,-4.3711,-4.3711,0.0,0.0,0.0,0.0,0.0,0.0,0.0,0.0,0.0,0.0,0.0,0.0,0.0,0.0,0.0,0.0,0.0,0.0,0.0,0.0,0.0,0.0,0.0,0.0,0.0,0.0,0.0,-4.5293,-4.5723,-4.6289,-4.6308,-4.6308,-4.6308,-4.6308,-4.6445,-4.6719,-4.8682,-4.9902,-5.0353,-5.2369,-5.2576,-5.1326,-5.2813,-5.2634,-5.1417,-5.3792,-5.5995,-5.8044,-5.9978,-6.2127,-6.4124,-6.4124,-6.48,-6.586,-6.6036,-6.6112,-6.6112,-6.6112,-6.6112,-6.6112,-6.6112,-6.6112,-6.594,-6.5112,-6.4827,-6.4653,-6.3841,-6.3642,-6.3642,-6.3642,-6.3642,-6.3642,-6.3642,-6.238,-6.1285,-6.1285,-5.9908,-5.8814,-5.8814,-5.7432,-5.5774,-5.4094,-5.5209,-5.5136,-5.1794,-5.2816,-5.318,-5.162,-5.1426,-5.1426,-5.1426,-5.1426,-5.1426,-5.1426,-5.1426,-5.1426,-5.1426,-5.1426,-5.1426,-5.1426,-5.1426,-5.1426,-5.1426,-5.1426,-5.1426,-5.1426,-5.1426,-5.1426,-4.3711,-4.3711,0.0,-4.3711,-4.3711,0.0,-4.3711,0.0,0.0,0.0,0.0,0.0,0.0,0.0,0.0,0.0,0.0,0.0,0.0,0.0,0.0,0.0,0.0,0.0,0.0,0.0,0.0,0.0,0.0,0.0,0.0,0.0,-4.5859,-4.6289,-4.6308,-4.6726,-4.7468,-4.7468,-4.8082,-4.9358,-5.1356,-5.252,-5.2972,-5.5046,-5.5093,-5.3703,-5.5268,-5.5005,-5.3881,-5.6407,-5.8616,-6.062,-6.1944,-6.3755,-6.5584,-6.5584,-6.581,-6.6112,-6.6112,-6.6112,-6.6112,-6.6112,-6.6112,-6.6112,-6.6112,-6.6112,-6.6112,-6.6112,-6.6112,-6.6112,-6.6112,-6.6112,-6.6112,-6.6112,-6.6112,-6.6112,-6.6112,-6.4827,-6.3754,-6.3754,-6.2469,-6.1375,-6.1375,-6.1375,-6.0271,-5.6946,-5.7802,-5.7617,-5.4474,-5.4663,-5.4453,-5.2912,-5.1891,-5.1426,-5.1426,-5.1426,-5.1426,-5.1426,-5.1426,-5.1426,-5.1426,-5.1426,-5.1504,-5.166,-5.1504,-5.1504,-5.166,-5.1504,-5.1426,-5.1426,-5.1426,-5.1426]},{"header":{"parameterUnit":"m.s-1","parameterCategory":1,"la1":30.6,"la2":29.2853,"lo1":-89.7004,"lo2":-87.6739,"dx":0.0162,"dy":0.0183,"nx":112,"ny":82,"refTime":"2023-01-20T06:00:00:Z","depth":0,"parameterNumber":3,"parameterNumberName":"V-component_of_WINDS"},"data":[0.0,0.0,0.0,0.0,0.0,0.0,0.0,0.0,0.0,0.0,0.0,0.0,0.0,0.0,0.0,0.0,0.0,0.0,0.0,0.0,0.0,0.0,0.0,0.0,0.0,0.0,0.0,0.0,0.0,0.0,0.0,0.0,0.0,0.0,0.0,0.0,0.0,0.0,0.0,0.0,0.0,0.0,0.0,0.0,0.0,0.0,0.0,0.0,0.0,0.0,0.0,0.0,0.0,0.0,0.0,0.0,0.0,0.0,0.0,0.0,0.0,0.0,0.0,0.0,0.0,0.0,0.0,0.0,0.0,0.0,0.0,0.0,0.0,0.0,0.0,0.0,0.0,0.0,0.0,0.0,0.0,0.0,0.0,0.0,0.0,0.0,0.0,0.0,0.0,0.0,0.0,7.1992,7.1992,7.1992,7.1992,7.1992,7.1992,7.1992,0.0,0.0,0.0,0.0,0.0,0.0,0.0,0.0,0.0,0.0,0.0,0.0,0.0,0.0,0.0,0.0,0.0,0.0,0.0,0.0,0.0,0.0,0.0,0.0,0.0,0.0,0.0,0.0,0.0,0.0,0.0,0.0,0.0,0.0,0.0,0.0,0.0,0.0,0.0,0.0,0.0,0.0,0.0,0.0,0.0,0.0,0.0,0.0,0.0,0.0,0.0,0.0,0.0,0.0,0.0,0.0,0.0,0.0,0.0,0.0,0.0,0.0,0.0,0.0,0.0,0.0,0.0,0.0,0.0,0.0,0.0,0.0,0.0,0.0,0.0,0.0,0.0,0.0,0.0,0.0,0.0,0.0,0.0,0.0,0.0,0.0,0.0,0.0,0.0,0.0,0.0,0.0,0.0,0.0,0.0,0.0,0.0,0.0,0.0,0.0,0.0,0.0,0.0,0.0,7.1992,7.1992,7.1992,7.1992,7.1992,7.1992,7.1992,7.1992,0.0,0.0,0.0,0.0,0.0,0.0,0.0,0.0,0.0,0.0,0.0,0.0,0.0,0.0,0.0,0.0,0.0,0.0,0.0,0.0,0.0,0.0,0.0,0.0,0.0,0.0,0.0,0.0,0.0,0.0,0.0,0.0,0.0,0.0,0.0,0.0,0.0,0.0,0.0,0.0,0.0,0.0,0.0,0.0,0.0,0.0,0.0,0.0,0.0,0.0,0.0,0.0,0.0,0.0,0.0,0.0,0.0,0.0,0.0,0.0,0.0,0.0,0.0,0.0,0.0,0.0,0.0,0.0,0.0,0.0,0.0,0.0,0.0,0.0,0.0,0.0,0.0,0.0,0.0,0.0,0.0,0.0,0.0,0.0,0.0,0.0,0.0,0.0,0.0,0.0,0.0,0.0,0.0,0.0,0.0,0.0,0.0,0.0,0.0,0.0,0.0,0.0,0.0,7.3125,7.3398,7.3398,7.3398,7.3398,7.3398,7.3398,7.3203,7.2734,7.2695,0.0,0.0,0.0,0.0,0.0,0.0,0.0,0.0,0.0,0.0,0.0,0.0,0.0,0.0,0.0,0.0,0.0,0.0,0.0,0.0,0.0,0.0,0.0,0.0,0.0,0.0,0.0,0.0,0.0,0.0,0.0,0.0,0.0,0.0,0.0,0.0,0.0,0.0,0.0,0.0,0.0,0.0,0.0,0.0,0.0,0.0,0.0,0.0,0.0,0.0,0.0,0.0,0.0,0.0,0.0,0.0,0.0,0.0,0.0,0.0,0.0,0.0,0.0,0.0,0.0,0.0,0.0,0.0,0.0,0.0,0.0,0.0,0.0,0.0,0.0,0.0,0.0,0.0,0.0,0.0,0.0,0.0,0.0,0.0,0.0,0.0,0.0,0.0,0.0,0.0,0.0,0.0,0.0,0.0,0.0,0.0,0.0,0.0,0.0,0.0,0.0,0.0,7.418,7.4609,7.4609,7.4609,7.4609,7.4609,7.4609,7.4336,7.3633,7.3594,0.0,0.0,0.0,0.0,0.0,0.0,0.0,0.0,0.0,0.0,0.0,0.0,0.0,0.0,0.0,0.0,0.0,0.0,0.0,0.0,0.0,0.0,0.0,0.0,0.0,0.0,0.0,0.0,0.0,0.0,0.0,0.0,0.0,0.0,0.0,0.0,0.0,0.0,0.0,0.0,0.0,0.0,0.0,0.0,0.0,0.0,0.0,0.0,0.0,0.0,0.0,0.0,0.0,0.0,0.0,0.0,0.0,0.0,0.0,0.0,0.0,0.0,0.0,0.0,0.0,0.0,0.0,0.0,0.0,0.0,0.0,0.0,0.0,0.0,0.0,0.0,0.0,0.0,0.0,0.0,0.0,0.0,0.0,0.0,0.0,0.0,0.0,0.0,0.0,0.0,0.0,0.0,0.0,0.0,0.0,0.0,0.0,0.0,0.0,0.0,0.0,0.0,7.457,7.4609,7.4609,7.4609,7.4609,7.4609,7.4609,7.457,7.4492,7.4492,0.0,0.0,0.0,0.0,0.0,0.0,0.0,0.0,0.0,0.0,0.0,0.0,0.0,0.0,0.0,0.0,0.0,0.0,0.0,0.0,0.0,0.0,0.0,0.0,0.0,0.0,0.0,0.0,0.0,0.0,0.0,0.0,0.0,0.0,0.0,0.0,0.0,0.0,0.0,0.0,0.0,0.0,0.0,0.0,0.0,0.0,0.0,0.0,0.0,0.0,0.0,0.0,0.0,0.0,0.0,0.0,0.0,0.0,0.0,0.0,0.0,0.0,0.0,0.0,0.0,0.0,0.0,0.0,0.0,0.0,0.0,0.0,0.0,0.0,0.0,0.0,0.0,0.0,0.0,0.0,0.0,0.0,0.0,0.0,0.0,0.0,0.0,0.0,0.0,0.0,0.0,0.0,0.0,0.0,0.0,0.0,0.0,0.0,0.0,0.0,0.0,0.0,7.5898,7.6211,0.0,7.6211,7.6211,7.6211,7.6211,7.5976,7.5469,0.0,0.0,0.0,0.0,0.0,0.0,0.0,0.0,0.0,0.0,0.0,0.0,0.0,0.0,0.0,0.0,0.0,0.0,0.0,0.0,0.0,0.0,0.0,0.0,0.0,0.0,0.0,0.0,0.0,0.0,0.0,0.0,0.0,0.0,0.0,0.0,0.0,0.0,0.0,0.0,0.0,0.0,0.0,0.0,0.0,0.0,0.0,0.0,0.0,0.0,0.0,0.0,0.0,0.0,0.0,0.0,0.0,0.0,0.0,0.0,0.0,0.0,0.0,0.0,0.0,0.0,0.0,0.0,0.0,0.0,0.0,0.0,0.0,0.0,0.0,0.0,0.0,0.0,0.0,0.0,0.0,0.0,0.0,0.0,0.0,0.0,0.0,0.0,0.0,0.0,0.0,0.0,0.0,0.0,0.0,0.0,0.0,0.0,0.0,0.0,0.0,0.0,7.6719,7.7461,7.8008,0.0,7.8008,7.8008,7.8008,7.8008,7.7617,7.6797,0.0,0.0,0.0,0.0,0.0,0.0,0.0,0.0,0.0,0.0,0.0,0.0,0.0,0.0,0.0,0.0,0.0,0.0,0.0,0.0,0.0,0.0,0.0,0.0,0.0,0.0,0.0,0.0,0.0,0.0,0.0,0.0,0.0,0.0,0.0,0.0,0.0,0.0,0.0,0.0,0.0,0.0,0.0,0.0,0.0,0.0,0.0,0.0,0.0,0.0,0.0,0.0,0.0,0.0,0.0,0.0,0.0,0.0,0.0,0.0,0.0,0.0,0.0,0.0,0.0,0.0,0.0,0.0,0.0,0.0,0.0,0.0,0.0,0.0,0.0,0.0,0.0,0.0,0.0,0.0,0.0,0.0,0.0,0.0,0.0,0.0,0.0,0.0,0.0,0.0,0.0,0.0,0.0,0.0,0.0,0.0,0.0,0.0,0.0,0.0,0.0,0.0,7.8515,7.9219,7.9687,7.9687,7.9687,7.9687,7.9687,7.9687,7.9375,0.0,0.0,0.0,0.0,0.0,0.0,0.0,0.0,0.0,0.0,0.0,0.0,0.0,0.0,0.0,0.0,0.0,0.0,0.0,0.0,0.0,0.0,0.0,0.0,0.0,0.0,0.0,0.0,0.0,0.0,0.0,0.0,0.0,0.0,0.0,0.0,0.0,0.0,0.0,0.0,0.0,0.0,0.0,0.0,0.0,0.0,0.0,0.0,0.0,0.0,0.0,0.0,0.0,0.0,0.0,0.0,0.0,0.0,0.0,0.0,0.0,0.0,0.0,0.0,0.0,0.0,0.0,0.0,0.0,0.0,0.0,0.0,0.0,0.0,0.0,0.0,0.0,0.0,0.0,0.0,0.0,0.0,0.0,0.0,0.0,0.0,0.0,0.0,0.0,0.0,0.0,0.0,0.0,0.0,0.0,0.0,0.0,0.0,0.0,0.0,0.0,0.0,0.0,7.9336,7.9531,7.9687,7.9687,7.9687,7.9687,7.9687,7.9687,7.9609,7.9375,0.0,0.0,0.0,0.0,0.0,0.0,0.0,0.0,0.0,0.0,0.0,0.0,0.0,0.0,0.0,0.0,0.0,0.0,0.0,0.0,0.0,0.0,0.0,0.0,0.0,0.0,0.0,0.0,0.0,0.0,0.0,0.0,0.0,0.0,0.0,0.0,0.0,0.0,0.0,0.0,0.0,0.0,0.0,0.0,0.0,0.0,0.0,0.0,0.0,0.0,0.0,0.0,0.0,0.0,0.0,0.0,0.0,0.0,0.0,0.0,0.0,0.0,0.0,0.0,0.0,0.0,0.0,0.0,0.0,0.0,0.0,0.0,0.0,0.0,0.0,0.0,0.0,0.0,0.0,0.0,0.0,0.0,0.0,0.0,0.0,0.0,0.0,0.0,0.0,0.0,0.0,0.0,0.0,0.0,0.0,0.0,0.0,0.0,0.0,0.0,0.0,0.0,8.0234,8.0508,8.0742,8.0742,8.0742,8.0742,8.0742,8.0659,8.0456,8.0105,0.0,0.0,0.0,0.0,0.0,0.0,0.0,0.0,0.0,0.0,0.0,0.0,0.0,0.0,0.0,0.0,0.0,0.0,0.0,0.0,0.0,0.0,0.0,0.0,0.0,0.0,0.0,0.0,0.0,0.0,0.0,0.0,0.0,0.0,0.0,0.0,0.0,0.0,0.0,0.0,0.0,0.0,0.0,0.0,0.0,0.0,0.0,0.0,0.0,0.0,0.0,0.0,0.0,0.0,0.0,0.0,0.0,0.0,0.0,0.0,0.0,0.0,0.0,0.0,0.0,0.0,0.0,0.0,0.0,0.0,0.0,0.0,0.0,0.0,0.0,0.0,0.0,0.0,0.0,0.0,0.0,0.0,0.0,0.0,0.0,0.0,0.0,0.0,0.0,0.0,0.0,0.0,0.0,0.0,0.0,0.0,0.0,0.0,0.0,0.0,0.0,0.0,8.1093,8.1796,8.2304,8.2265,8.2265,8.2265,8.2265,8.211,8.1624,8.0844,0.0,0.0,0.0,0.0,0.0,0.0,0.0,0.0,0.0,0.0,0.0,0.0,0.0,0.0,0.0,0.0,0.0,0.0,0.0,0.0,0.0,0.0,0.0,0.0,0.0,0.0,0.0,0.0,0.0,0.0,0.0,0.0,0.0,0.0,0.0,0.0,0.0,0.0,0.0,0.0,0.0,0.0,0.0,0.0,0.0,0.0,0.0,0.0,0.0,0.0,0.0,0.0,0.0,0.0,0.0,0.0,0.0,0.0,0.0,0.0,7.8984,0.0,0.0,0.0,0.0,0.0,0.0,0.0,0.0,0.0,0.0,0.0,0.0,0.0,0.0,0.0,0.0,0.0,0.0,0.0,0.0,0.0,0.0,0.0,0.0,0.0,0.0,0.0,0.0,0.0,0.0,0.0,0.0,0.0,0.0,0.0,0.0,0.0,0.0,0.0,0.0,0.0,8.1795,8.2101,8.2223,8.2068,8.2059,8.2059,8.2059,8.1878,8.1668,8.1513,0.0,0.0,0.0,0.0,0.0,0.0,0.0,0.0,0.0,0.0,0.0,0.0,0.0,0.0,0.0,0.0,0.0,0.0,0.0,0.0,0.0,0.0,0.0,0.0,0.0,0.0,0.0,0.0,0.0,0.0,0.0,0.0,0.0,0.0,0.0,0.0,0.0,0.0,0.0,0.0,0.0,0.0,0.0,0.0,0.0,0.0,0.0,0.0,0.0,0.0,0.0,0.0,0.0,0.0,0.0,0.0,0.0,0.0,0.0,0.0,0.0,7.9687,0.0,0.0,0.0,0.0,0.0,0.0,0.0,0.0,0.0,0.0,0.0,0.0,0.0,0.0,0.0,0.0,0.0,0.0,0.0,0.0,0.0,0.0,0.0,0.0,0.0,0.0,0.0,0.0,0.0,0.0,0.0,0.0,0.0,0.0,0.0,0.0,0.0,0.0,0.0,0.0,8.217,8.2222,8.2264,8.217,8.2127,8.2127,8.2127,8.1971,8.1819,8.1727,8.1688,0.0,0.0,0.0,0.0,0.0,0.0,0.0,0.0,0.0,0.0,0.0,0.0,0.0,0.0,0.0,0.0,0.0,0.0,0.0,0.0,0.0,0.0,0.0,0.0,0.0,0.0,0.0,0.0,0.0,0.0,0.0,0.0,0.0,0.0,0.0,0.0,0.0,0.0,0.0,0.0,0.0,0.0,0.0,0.0,0.0,0.0,0.0,0.0,0.0,0.0,0.0,0.0,0.0,8.1211,8.1601,8.2304,8.2304,8.2304,8.2226,8.0781,8.0156,8.0156,0.0,0.0,0.0,0.0,0.0,0.0,0.0,0.0,0.0,0.0,0.0,0.0,0.0,0.0,0.0,0.0,0.0,0.0,0.0,0.0,0.0,0.0,0.0,0.0,0.0,8.2304,8.2304,0.0,0.0,0.0,0.0,0.0,0.0,0.0,0.0,0.0,0.0,0.0,0.0,8.2264,8.2265,8.2304,8.2264,8.2263,8.2222,8.2218,8.2053,8.1855,8.1618,8.1645,8.1572,0.0,0.0,0.0,0.0,0.0,0.0,0.0,0.0,0.0,0.0,0.0,0.0,0.0,0.0,0.0,0.0,0.0,0.0,0.0,0.0,0.0,0.0,0.0,0.0,0.0,0.0,0.0,0.0,0.0,0.0,0.0,0.0,7.9062,7.918,0.0,0.0,0.0,0.0,0.0,0.0,0.0,0.0,0.0,0.0,0.0,0.0,0.0,0.0,8.1953,8.1953,8.1992,8.2148,8.2148,8.2187,8.2304,8.2304,8.2304,8.2304,8.207,0.0,8.1953,8.1953,0.0,0.0,0.0,0.0,0.0,0.0,0.0,0.0,0.0,0.0,0.0,0.0,0.0,0.0,0.0,0.0,0.0,0.0,0.0,0.0,0.0,0.0,8.2304,8.2304,8.2304,8.2304,0.0,8.2304,8.2263,8.2065,0.0,0.0,0.0,0.0,0.0,0.0,0.0,0.0,8.2059,8.2178,8.2222,8.2059,8.2049,8.1976,8.1773,8.1739,8.1582,8.1186,8.1361,8.1414,8.1407,8.1447,0.0,0.0,0.0,0.0,0.0,0.0,0.0,0.0,0.0,0.0,0.0,0.0,0.0,0.0,0.0,0.0,0.0,0.0,0.0,0.0,0.0,0.0,0.0,0.0,0.0,0.0,0.0,0.0,0.0,7.9492,7.9687,7.9687,8.0117,8.0429,0.0,0.0,0.0,0.0,0.0,0.0,0.0,0.0,0.0,8.2304,8.2304,8.2304,8.2304,8.2304,8.2304,8.2304,8.2304,8.2304,8.2304,8.2304,8.2304,8.2304,8.2304,8.2304,8.2304,8.2304,8.2304,8.2304,0.0,0.0,0.0,0.0,0.0,8.2304,8.2304,8.2304,0.0,0.0,0.0,0.0,0.0,0.0,0.0,0.0,0.0,0.0,0.0,0.0,0.0,8.2304,8.2304,8.2304,8.2304,8.2695,8.2851,0.0,8.2171,8.2171,8.2171,0.0,0.0,0.0,0.0,0.0,8.1861,8.1899,8.1914,8.185,8.1844,8.1812,8.1695,8.1688,8.1582,8.1298,8.1335,8.1361,8.1242,8.1349,8.1491,0.0,0.0,0.0,0.0,0.0,0.0,0.0,0.0,0.0,0.0,0.0,0.0,0.0,0.0,0.0,0.0,0.0,0.0,0.0,0.0,0.0,0.0,0.0,0.0,0.0,0.0,0.0,0.0,8.0234,8.0351,8.0351,8.0937,8.1328,0.0,0.0,0.0,0.0,0.0,0.0,8.2304,8.2304,8.2304,8.2304,8.2304,8.2304,8.2304,8.2304,8.2304,8.2304,8.2304,8.2304,8.2304,8.2304,8.2304,8.2304,8.2304,8.2422,8.2617,8.2383,8.2304,8.2304,8.2304,8.2304,8.2304,8.2304,8.2304,8.2304,8.2304,8.2304,8.2304,8.2304,0.0,8.2344,8.2578,0.0,0.0,0.0,0.0,8.2969,8.2969,8.2969,8.2969,8.2969,8.2969,8.2969,8.2969,8.3436,8.3585,0.0,8.2634,8.2786,8.2729,0.0,0.0,0.0,0.0,8.253,8.2357,8.2342,8.2342,8.2342,8.2342,8.224,8.1956,8.1998,8.1833,8.1349,8.1359,8.1298,8.1108,8.1256,8.1361,8.1407,0.0,0.0,0.0,0.0,0.0,0.0,0.0,0.0,0.0,0.0,0.0,0.0,0.0,0.0,0.0,0.0,0.0,0.0,0.0,0.0,0.0,0.0,0.0,0.0,0.0,0.0,0.0,0.0,0.0,8.2187,8.2226,0.0,0.0,0.0,0.0,8.2304,8.2304,8.2304,8.2304,8.2304,8.2304,8.2304,8.2304,8.2304,8.2304,8.2304,8.2304,8.2304,8.2304,8.2304,8.2304,8.2304,8.2304,8.2304,8.2304,8.2773,8.3476,8.2656,8.2304,8.2304,8.2304,8.2304,8.2304,8.2304,8.2304,8.2304,8.2304,8.2304,8.2304,8.2304,8.2304,8.2461,8.3281,8.3515,0.0,0.0,8.4765,8.4765,8.4765,8.4765,8.4765,8.4765,8.4765,8.4765,8.4765,8.4665,8.4225,0.0,8.3571,8.4051,8.3835,0.0,8.3868,8.406,8.4093,8.4085,8.4076,8.4076,8.4076,8.4076,8.4076,8.3678,8.2654,8.2786,8.2407,8.1169,8.1272,8.1298,8.1108,8.1108,8.1186,8.1407,8.143,0.0,0.0,0.0,0.0,0.0,0.0,0.0,0.0,0.0,0.0,0.0,0.0,0.0,0.0,0.0,0.0,0.0,0.0,0.0,0.0,0.0,0.0,0.0,0.0,0.0,0.0,0.0,0.0,8.2304,8.2304,0.0,8.2304,8.2304,8.2304,8.2304,8.2304,8.2304,8.2304,8.2304,8.2304,8.2304,8.2304,8.2304,8.2304,8.2851,8.3125,8.3125,8.3711,8.3984,8.3984,8.3984,8.3984,8.3984,8.3984,8.414,8.4414,8.4101,8.3984,8.3984,8.3984,8.3984,8.3984,8.3984,8.3984,8.3984,8.3984,8.3984,8.3945,8.3806,8.3792,8.3831,8.4143,8.4326,8.4492,8.4804,8.4883,8.4883,8.4883,8.4883,8.4883,8.4883,8.4795,8.4692,8.4692,8.4961,8.5027,8.4513,8.4281,8.4168,8.4116,8.4107,8.4077,8.4034,8.4023,8.3956,8.3837,8.3811,8.3811,8.3811,8.3811,8.3641,8.3283,8.3318,8.32,8.2724,8.277,8.2516,8.19,8.1862,8.167,8.1224,8.1224,8.1359,0.0,0.0,0.0,0.0,0.0,0.0,0.0,0.0,0.0,0.0,0.0,0.0,0.0,0.0,0.0,0.0,0.0,0.0,0.0,0.0,0.0,0.0,0.0,0.0,0.0,0.0,8.2304,8.2304,8.2304,8.2304,8.2304,8.2304,8.2304,8.2304,8.2304,8.2422,8.2734,8.2734,8.2851,8.3164,8.3164,8.3164,8.3164,8.375,8.4023,8.4062,8.4609,8.4883,8.4883,8.4883,8.4883,8.4883,8.4883,8.5038,8.5185,8.5185,8.5333,8.5471,8.4985,8.4745,8.4648,8.4648,8.4648,8.4648,8.4648,8.4648,8.4639,8.4527,8.4457,8.4535,8.4808,8.4989,8.5155,8.5471,8.5549,8.5549,8.5549,8.5549,8.5549,8.5549,8.5422,8.5354,8.5354,8.5603,8.5815,8.5652,8.5275,8.4942,8.4876,8.4826,8.4831,8.4776,8.4701,8.4618,8.4595,8.4497,8.4439,8.4439,8.4439,8.4324,8.4055,8.4055,8.3901,8.3593,8.3593,8.3324,8.2747,8.2747,8.2362,8.1516,8.1246,8.1258,8.1609,0.0,0.0,0.0,0.0,0.0,0.0,0.0,0.0,0.0,0.0,0.0,0.0,0.0,0.0,0.0,0.0,0.0,0.0,0.0,0.0,0.0,0.0,0.0,8.2304,8.2304,8.2304,8.2304,8.2304,8.2304,8.2304,8.2304,8.2344,8.2344,8.2383,8.2734,8.3594,8.3633,8.4023,8.4883,8.4883,8.4883,8.4883,8.4922,8.4922,8.4922,8.4961,8.4961,8.4961,8.4961,8.4961,8.4961,8.4961,8.5299,8.5851,8.5812,8.6194,8.663,8.5209,8.4512,8.4271,8.4271,8.4271,8.4271,8.4271,8.4263,8.4254,8.4254,8.4254,8.441,8.5274,8.5555,8.5719,8.6544,8.6817,8.6817,8.6817,8.6817,8.6817,8.6817,8.6808,8.6808,8.6808,8.6648,8.6506,8.6506,8.6506,8.6389,8.612,8.6094,8.62,8.6455,8.6268,0.0,8.6455,8.6268,8.6094,8.6094,8.6094,8.5786,8.5016,8.4939,8.4593,8.3708,8.367,8.367,8.3632,8.3632,8.3208,8.2362,8.157,8.1263,8.1484,0.0,0.0,0.0,0.0,0.0,0.0,0.0,0.0,0.0,0.0,0.0,0.0,0.0,0.0,0.0,0.0,0.0,0.0,0.0,0.0,0.0,0.0,8.2304,8.2304,8.2304,8.2304,8.2304,8.2304,8.2304,8.2304,8.2851,8.3242,8.3242,8.3828,8.4297,8.4531,8.4531,8.4648,8.4883,8.4883,8.4883,8.4883,8.5547,8.5859,8.5859,8.6484,8.6797,8.6797,8.6797,8.6797,8.6758,8.6579,8.6584,8.6745,8.6605,8.6541,8.6566,8.6311,8.6164,8.6069,8.6069,8.6069,8.6069,8.6069,8.5991,8.5862,8.5862,8.5862,8.5901,8.6134,8.6321,8.6505,8.6739,8.6817,8.6817,8.6817,8.6817,8.6817,8.6817,8.6681,8.6572,8.6572,8.6389,8.6231,8.6231,8.6231,8.6184,8.611,8.6094,8.6126,8.6215,8.6175,0.0,8.6215,8.6159,8.6094,8.6094,8.6094,8.6017,8.5786,8.5786,8.567,8.544,8.5401,8.5132,8.4555,8.4555,8.4132,8.3247,8.3186,8.3167,0.0,0.0,0.0,0.0,0.0,0.0,0.0,0.0,0.0,0.0,0.0,0.0,0.0,0.0,0.0,0.0,0.0,0.0,0.0,0.0,0.0,0.0,8.2617,8.2851,8.2851,8.2539,8.2422,8.2812,8.2851,8.3008,8.3359,8.3867,8.414,8.414,8.4609,8.5078,8.5429,8.5429,8.5625,8.5976,8.5976,8.5976,8.5976,8.6484,8.6758,8.6758,8.7265,8.7459,8.7329,8.7329,8.7277,0.0,8.7058,8.6943,8.6857,8.6729,8.6526,0.0,0.0,0.0,0.0,0.0,8.6514,8.6514,8.6514,8.643,8.6331,8.6331,8.6331,8.6331,8.6331,8.6404,8.6514,8.6514,8.6785,8.7057,8.7057,8.7328,8.7599,8.7599,8.7487,8.7413,8.7413,8.731,8.7171,8.7171,0.0,0.0,8.7171,8.6594,8.6159,8.6253,8.6168,8.6159,8.6253,8.6168,8.6094,8.6094,8.6094,8.6094,8.6094,8.6094,0.0,0.0,0.0,8.5901,8.544,8.5093,0.0,0.0,0.0,8.3768,8.3768,0.0,0.0,0.0,8.221,8.2077,0.0,0.0,0.0,0.0,0.0,0.0,0.0,0.0,0.0,0.0,0.0,0.0,0.0,0.0,0.0,0.0,8.3164,8.375,8.375,8.3086,8.289,8.3633,8.375,8.4062,8.4804,8.5,8.5039,8.5039,8.5156,8.5547,8.6328,0.0,0.0,0.0,0.0,8.746,8.746,8.7419,8.7417,8.7417,8.7417,8.7282,8.7087,8.7087,8.698,8.6817,8.6869,8.6806,8.6635,8.6713,8.6612,8.6396,8.6451,8.6303,8.6094,8.6209,8.6247,8.6247,8.6363,0.0,0.0,8.6401,8.6401,8.6401,8.6401,8.6401,8.6401,8.6401,8.694,8.7555,8.7555,8.8132,8.8709,8.8709,8.8709,8.8709,8.8709,8.8709,8.8709,8.8709,8.8709,8.8709,8.8709,8.7401,8.6454,8.6726,8.6562,8.6454,8.6726,8.6562,8.6363,8.6247,0.0,0.0,8.6094,8.6094,8.6094,8.6094,8.6094,8.6094,8.6094,8.5401,8.5055,8.5055,8.4286,8.3862,8.3862,8.3862,8.3862,8.3878,8.3319,8.295,0.0,0.0,0.0,0.0,0.0,0.0,0.0,0.0,0.0,0.0,0.0,0.0,0.0,0.0,0.0,8.3359,8.4062,8.4648,8.4648,8.4492,8.4453,8.4648,8.4648,8.4726,8.4883,8.5547,8.5937,8.5937,8.6601,8.707,8.7226,8.7265,0.0,8.75,8.7282,8.7173,8.7173,8.7036,8.6929,8.6929,0.0,0.0,8.688,8.688,8.6857,8.6847,8.7297,8.7498,8.75,8.8043,8.8254,8.8072,8.673,8.6159,8.6209,8.6901,8.7132,8.7248,8.794,8.8209,8.8209,8.8209,8.8209,8.8209,8.8209,8.8209,0.0,8.8209,8.8325,8.844,8.844,8.8556,8.8709,8.8709,8.8709,8.8709,8.8709,8.8709,8.8709,8.8709,8.8709,8.8709,8.8709,8.8402,8.8205,8.8287,8.8238,8.8205,8.8248,8.8221,8.794,8.7209,8.7132,8.6863,8.617,8.6094,8.6094,8.6094,8.6094,8.6094,8.6094,8.594,8.5863,8.5863,8.5709,8.5632,8.5632,8.5632,8.5632,8.5593,8.4134,8.3447,0.0,0.0,0.0,0.0,0.0,0.0,0.0,0.0,0.0,0.0,0.0,8.2969,0.0,0.0,8.4258,8.4258,8.4961,8.5547,8.5547,8.5937,8.6054,8.5586,8.5547,8.5703,8.6172,8.6601,8.6836,8.6836,8.7265,8.7459,8.7325,8.7284,8.7269,8.7143,8.7003,8.6962,8.6962,8.6833,8.6817,8.6817,8.7245,8.7369,8.729,8.7707,8.7863,8.7784,8.806,8.8219,8.8243,8.8579,8.8709,8.8594,8.7748,8.7401,8.744,8.7902,8.8055,8.8094,8.8556,8.8709,8.8709,8.8709,8.8709,8.8709,8.8709,8.8709,8.8709,8.8709,8.8979,8.9286,8.9286,8.9633,8.994,8.994,8.994,8.994,8.994,8.994,8.994,8.994,8.994,8.994,8.994,8.994,8.9671,8.8825,8.8709,8.8709,8.8709,8.8709,8.8517,8.8094,8.8055,8.7863,8.744,8.7017,8.6555,8.6132,8.6094,8.6094,8.6094,8.6094,8.6094,8.6094,8.6094,8.6094,8.6094,8.6094,8.6094,8.6094,8.5247,8.4632,0.0,0.0,0.0,0.0,0.0,0.0,0.0,0.0,8.2539,8.2539,8.3242,8.3867,8.3867,8.457,8.5156,8.5156,8.5898,8.6445,8.6445,8.707,8.7226,8.6523,8.6445,8.6719,8.7422,8.75,8.7461,8.7419,8.7418,8.7325,8.7078,8.7029,8.6974,8.6825,8.6774,8.6747,8.6747,8.6856,8.6904,8.6943,8.7797,8.8096,8.7925,8.8621,8.8837,8.8709,8.8863,8.9017,8.9171,8.9171,8.9171,8.9171,8.9171,8.9171,8.9171,8.8979,8.894,8.894,8.9133,8.9171,8.9171,8.9171,8.9171,8.9171,8.9171,8.9171,8.9171,8.9171,8.9633,9.0171,9.0171,9.0671,9.121,9.121,9.121,9.121,9.121,9.121,9.121,9.121,9.121,9.121,9.121,9.121,9.0748,8.9402,8.9171,8.9171,8.9171,8.9171,8.9133,8.894,8.894,8.8863,8.8709,8.8055,8.7363,8.6632,8.644,8.6363,8.6363,8.6209,8.6094,8.6094,8.6094,8.6094,8.6094,8.6094,8.6094,8.6094,8.6094,8.5747,8.2304,0.0,0.0,8.2304,8.2304,8.2304,0.0,0.0,8.3437,8.3437,8.414,8.4765,8.4765,8.5469,8.6054,8.6054,8.6797,8.7344,8.7344,8.7422,8.7461,8.7383,8.7344,8.7383,8.75,8.75,8.7416,8.7166,8.7124,8.7034,8.6826,8.681,8.6802,8.6817,8.6638,8.6529,8.6529,8.7075,8.7317,8.7356,8.8204,8.8595,8.8601,8.8678,8.8722,8.8748,8.9479,9.021,9.0902,9.0902,9.0902,9.0902,9.0902,9.0902,9.0825,9.0056,8.9787,8.9902,9.0671,9.0902,9.0902,9.0902,9.0902,9.0902,9.0902,9.0902,9.0902,9.0902,9.0979,9.1056,9.1056,9.1133,9.121,9.121,9.121,9.121,9.121,9.121,9.121,9.121,9.121,9.121,9.121,9.121,9.1133,9.0941,9.0902,9.0902,9.0902,9.0902,9.0633,8.9863,8.9787,8.9479,8.8748,8.8594,8.8517,8.8402,8.7671,8.7248,8.7248,8.6517,8.6094,8.6094,8.6094,8.6094,8.6094,8.6094,8.6094,8.6094,8.6094,8.6055,8.2304,0.0,0.0,0.0,8.2304,8.2422,8.2929,8.3359,8.375,8.4258,8.5039,8.5664,8.5664,8.6367,8.6953,0.0,8.7265,8.7459,8.7282,8.7277,8.7222,8.7121,8.7073,8.7143,8.7272,8.7155,8.7052,8.6949,8.6943,8.6857,8.6648,8.6638,8.6782,8.7139,8.7051,8.7286,8.7788,8.804,8.8171,8.8171,8.9017,8.9402,8.944,8.9902,9.0133,9.0171,9.0517,9.0864,9.121,9.121,9.121,9.121,9.121,9.121,9.1171,9.0787,9.0671,9.071,9.1056,9.121,9.121,9.121,9.121,9.121,9.121,9.121,9.121,9.121,9.121,9.121,9.121,9.121,9.121,9.121,9.121,9.121,9.121,9.121,9.121,9.121,9.121,9.121,9.121,9.121,9.121,9.121,9.121,9.121,9.121,9.121,9.1056,9.071,9.0671,9.0325,8.9479,8.9402,8.921,8.8709,8.8363,8.8171,8.8171,8.7325,8.6863,8.6863,8.6363,8.6094,8.6094,8.6094,8.6094,8.6077,8.57,8.5532,8.2304,0.0,0.0,8.2617,8.2656,8.289,8.375,8.414,8.4492,8.5117,8.5937,8.6562,8.6562,8.707,8.75,8.75,8.7459,8.7327,8.7116,8.7039,8.6974,8.6833,8.6756,8.6791,8.6936,8.6833,8.6791,8.6719,8.6719,8.6638,8.6389,8.6608,8.6945,8.738,8.7632,8.8055,8.8671,8.8902,8.9017,8.9017,8.9863,9.0287,9.0287,9.0902,9.121,9.121,9.121,9.121,9.121,9.121,9.121,9.121,9.121,9.121,9.121,9.121,9.121,9.121,9.121,9.121,9.121,9.121,9.121,9.121,9.121,9.121,9.121,9.121,9.121,9.121,9.121,9.121,9.121,9.121,9.121,9.121,9.121,9.121,9.121,9.121,9.121,9.121,9.121,9.121,9.121,9.121,9.121,9.121,9.121,9.121,9.121,9.121,9.121,9.0941,9.0325,9.0287,9.0017,8.944,8.9171,8.9017,8.9017,8.8209,8.7748,8.7748,8.7132,8.6709,8.6478,8.6282,8.6059,8.5811,8.5141,8.485,0.0,8.2304,8.25,8.3359,8.3554,8.3789,8.4648,8.5508,8.6133,8.6172,8.6836,8.7461,8.7461,8.7461,8.75,8.75,8.7279,8.7108,8.7104,8.6949,8.6825,8.6817,8.6638,8.6492,0.0,8.6681,8.6719,8.6517,8.6492,8.6376,8.6126,8.6918,8.738,8.7401,8.8209,8.8671,8.8709,8.9479,8.9863,8.9863,9.0748,9.1171,9.1171,9.121,9.121,9.121,9.121,9.121,9.121,9.121,9.121,9.121,9.121,9.121,9.121,9.121,9.121,9.121,9.121,9.121,9.121,9.121,9.121,9.121,9.121,9.121,9.121,9.121,9.121,9.121,9.121,9.121,9.121,9.121,9.121,9.121,9.121,9.121,9.121,9.121,9.121,9.121,9.121,9.121,9.121,9.121,9.121,9.121,9.121,9.121,9.121,9.121,9.121,9.121,9.1171,9.1171,9.1171,9.1133,9.0325,8.9863,8.9863,8.9094,8.8671,8.8671,8.8632,8.8209,8.7363,8.67,8.5942,8.5121,8.4513,8.4228,8.2304,8.2734,8.3242,8.3515,8.4023,8.4687,8.5547,8.5976,8.6367,8.6953,8.7304,8.75,8.75,8.75,8.7459,8.7275,8.7166,8.7008,8.6747,8.6659,8.6526,8.6376,8.6274,0.0,0.0,0.0,0.0,8.6238,8.6763,8.7048,8.6978,8.7786,8.8517,8.9056,8.9363,8.9787,9.0364,9.0633,9.0748,9.0787,9.1056,9.121,9.121,9.121,9.121,9.121,9.121,9.121,9.121,9.121,9.121,9.121,9.121,9.121,9.121,9.121,9.121,9.121,9.121,9.121,9.121,9.121,9.121,9.121,9.121,9.121,9.121,9.121,9.121,9.121,9.121,9.121,9.121,9.121,9.121,9.121,9.121,9.121,9.1082,9.0586,9.0467,9.0326,8.9893,9.0176,9.0626,9.1118,9.121,9.121,9.121,9.121,9.121,9.121,9.121,9.121,9.121,9.121,9.121,9.121,9.0941,9.0528,9.0067,8.9243,8.86,8.8091,8.7597,8.7179,8.6852,8.6668,8.636,8.6071,8.5451,8.5124,8.2695,8.3164,8.375,8.4375,8.4961,8.5586,8.6484,8.664,8.6836,8.7383,8.75,8.75,8.75,8.7418,8.7329,8.7275,8.7096,8.6884,8.6659,8.6553,8.6389,8.6143,8.6094,8.6094,0.0,0.0,0.0,8.6555,8.7094,8.7555,8.7863,8.8671,8.9363,8.9885,9.021,9.0633,9.121,9.121,9.121,9.121,9.121,9.121,9.121,9.121,9.121,9.121,9.121,9.121,9.121,9.121,9.121,9.121,9.121,9.121,9.121,9.121,9.121,9.121,9.121,9.121,9.121,9.121,9.121,9.121,9.121,9.121,9.121,9.121,9.121,9.121,9.121,9.121,9.121,9.121,9.1008,9.08,9.08,9.0606,9.0322,8.9832,8.974,8.9621,8.9161,8.9476,8.9878,9.0385,9.0426,9.0606,9.1118,9.0971,9.08,9.08,9.0586,9.0426,9.0426,9.0426,9.0426,9.0426,9.0426,9.0241,8.9763,8.9246,8.8753,8.8266,8.7775,8.7335,8.7033,8.6798,8.6551,8.6223,8.5559,8.5232,8.3398,8.3672,8.414,8.5781,8.6211,8.6484,8.7304,8.75,8.75,8.75,8.75,8.75,0.0,0.0,8.7173,8.7418,8.7068,8.6791,8.6783,8.6605,8.6401,0.0,0.0,0.0,0.0,0.0,0.0,8.7401,0.0,8.7863,8.8709,8.9517,8.9979,8.9979,9.0787,9.121,9.121,9.121,9.121,9.121,9.121,9.121,9.121,9.121,9.121,9.121,9.121,9.121,9.121,9.121,9.121,9.121,9.121,9.121,9.121,9.121,9.121,9.121,9.121,9.121,9.121,9.121,9.121,9.121,9.121,9.121,9.121,9.121,9.1192,9.1136,9.1136,9.1118,9.11,9.11,9.0566,9.0073,9.0073,8.9573,8.9095,8.9069,8.9043,8.9016,8.9043,8.9069,8.9069,8.9133,8.9159,8.9611,9.0934,9.0467,9.0073,9.0073,8.9462,8.9122,8.9122,8.9122,8.9122,8.9122,8.9122,8.9058,8.9069,8.9069,8.9043,8.9016,8.9016,8.8576,8.7758,8.7171,8.6482,8.5641,8.5009,8.4719,8.3554,8.4531,8.5625,8.6094,8.6679,8.7226,8.7461,8.75,8.75,8.75,8.75,8.75,0.0,0.0,0.0,8.698,8.6747,0.0,8.6293,8.6238,0.0,8.611,0.0,8.6094,8.6094,8.6709,0.0,0.0,8.8363,8.8709,8.9556,9.0402,9.0864,9.0864,9.1095,9.121,9.121,9.121,9.121,9.121,9.121,9.121,9.121,9.121,9.121,9.121,9.121,9.121,9.121,9.121,9.121,9.121,9.121,9.121,9.121,9.121,9.121,9.121,9.121,9.121,9.121,9.121,9.121,9.121,9.121,9.121,9.121,9.121,9.0781,9.0367,9.0367,9.0006,8.9621,8.9621,8.95,8.9339,8.9339,8.9213,8.8963,8.8446,8.7923,8.7709,8.8279,8.8367,8.8757,8.9808,9.0001,8.9905,8.9649,8.9476,8.9339,8.9339,8.9187,8.9122,8.9122,8.9122,8.9122,8.9122,8.9122,8.8883,8.8396,8.8367,8.81,8.7517,8.7554,8.7443,8.7189,8.7029,8.6856,8.6638,8.6473,8.6407,8.4062,8.5156,8.6289,8.6679,8.7148,8.75,8.75,8.75,8.746,8.7332,8.7327,8.7282,8.7209,8.7019,8.6849,0.0,0.0,0.0,8.6288,8.6283,8.6223,0.0,8.6094,0.0,8.6094,8.6555,8.7363,0.0,8.9017,8.9594,9.0441,9.0941,9.121,9.121,9.121,9.121,9.121,9.121,9.121,9.121,9.121,9.121,9.121,9.121,9.121,9.121,0.0,9.121,9.121,9.121,9.121,9.121,9.121,9.121,9.121,9.121,9.121,9.121,9.121,9.0989,9.0762,9.11,9.121,9.1136,9.0839,9.0723,9.0646,9.0364,8.9984,8.9669,8.9669,8.9364,8.9122,8.9122,8.8883,8.8636,8.8636,8.8417,8.807,8.7678,8.7556,8.7681,8.8072,8.8433,8.8965,8.9808,8.9906,8.9757,8.9309,8.9494,8.9695,8.9695,8.9406,8.9234,8.9234,8.9234,8.9234,8.9234,8.8899,8.8567,8.8169,8.7804,8.7427,8.6995,8.6995,8.6995,8.6995,8.6995,8.6995,8.6995,8.6995,8.6995,8.4803,8.5663,8.6562,8.7304,8.75,8.75,8.746,8.7459,8.7374,8.7104,8.7043,8.7008,8.681,8.6648,8.6565,8.6738,0.0,8.6455,8.6455,8.6455,8.6373,8.6143,8.6094,8.6094,8.6094,8.6209,8.694,8.8556,8.944,9.0287,9.1171,9.121,9.121,9.121,9.121,9.121,9.121,9.121,9.121,9.121,9.121,9.121,9.121,9.121,9.121,9.121,0.0,0.0,9.121,9.121,9.121,9.121,9.121,9.121,9.121,9.121,9.1136,9.1026,9.1026,9.0586,9.0095,9.0839,9.0989,9.082,9.016,8.9946,8.9855,8.9238,8.9043,8.8963,8.9076,8.906,8.9017,8.9129,8.8696,8.8258,8.8258,8.7756,8.7325,8.7325,8.7876,8.8353,8.8353,8.894,8.9419,8.9529,8.9564,8.9565,8.9711,9.0073,9.0345,9.0345,8.9796,8.9382,8.9382,8.9382,8.9382,8.9382,8.8757,8.8353,8.8353,8.7692,8.7325,8.7325,8.7325,8.7288,8.7178,8.7178,8.7105,8.6995,8.6995,8.6995,8.5413,8.643,8.7304,8.7461,8.75,8.7459,8.7225,8.717,0.0,8.6909,8.6833,8.6818,8.6825,8.6648,8.6492,8.6553,8.6346,8.6168,8.6168,8.6168,8.6137,0.0,8.6094,8.6094,8.6094,0.0,0.0,0.0,0.0,9.0287,9.1171,9.121,9.121,9.121,9.121,9.121,9.121,9.121,9.121,9.121,9.121,9.121,9.121,9.121,9.121,9.121,0.0,0.0,9.121,9.121,9.121,9.121,9.121,9.121,9.121,9.121,9.08,9.0305,9.0305,8.9832,8.9402,9.0073,8.9939,8.9451,8.9327,8.9263,8.9276,8.911,8.8691,8.8428,8.9071,8.8801,8.8538,8.9206,8.9288,8.915,8.915,8.9082,8.9014,8.9014,8.9124,8.9197,8.9197,8.9344,8.9602,9.0298,9.0408,9.0629,9.1289,9.0331,8.9592,8.9592,8.9488,8.9382,8.9382,8.9382,8.9382,8.9382,8.9235,8.9197,8.9197,8.9087,8.9014,8.9014,8.9014,8.8683,8.7986,8.7986,8.7655,8.6995,8.6995,8.6995,8.5526,8.6437,8.7151,8.7275,8.7216,8.7082,8.6974,8.6955,8.6909,8.6681,8.662,8.6616,8.6454,8.6362,8.6274,8.6274,8.6184,8.6094,8.6094,8.6094,8.6094,8.6094,8.6094,8.6094,0.0,0.0,0.0,0.0,0.0,8.9825,9.1133,9.121,9.121,9.121,9.121,9.121,9.121,9.121,9.121,9.121,9.121,9.121,9.121,9.121,9.121,9.121,9.121,0.0,9.121,9.121,9.0989,9.0626,9.0626,9.0406,9.0111,9.0111,8.9893,8.9597,8.9597,8.9148,8.8645,8.8963,8.9095,8.9118,8.9189,8.9226,8.9215,8.9255,8.8997,8.8856,8.9226,8.907,8.894,8.9344,8.9382,8.9382,8.9382,8.9382,8.9382,8.9382,8.9748,9.0041,9.0041,9.0372,9.0776,9.1179,9.1216,9.1363,9.173,9.1143,9.0665,9.0665,9.0665,9.0665,9.0665,9.0665,9.0665,9.0665,9.0262,9.0041,9.0041,8.9638,8.9382,8.9382,8.9382,8.9234,8.883,8.883,8.8647,8.828,8.828,8.828,8.5384,8.62,8.6857,8.6997,8.6936,8.68,8.6756,8.6738,8.6671,8.6481,8.6403,8.636,8.6159,8.6094,8.6094,8.6094,8.6094,8.6094,8.6094,8.6094,8.6094,8.6094,8.6094,0.0,8.6094,0.0,0.0,0.0,0.0,0.0,9.1133,9.121,9.121,9.121,9.121,9.121,9.121,9.121,9.121,9.121,9.121,9.121,9.121,9.121,9.121,9.121,9.1026,0.0,0.0,9.082,9.0406,8.9878,8.9878,8.9535,8.9122,8.9122,8.9016,8.8883,8.8883,8.8446,8.7904,8.8053,8.8481,8.8898,8.902,8.9167,8.9303,8.9373,8.9382,8.9419,8.9638,8.9639,8.9711,8.9895,8.9931,8.9931,8.9931,8.9931,8.9931,8.9931,9.0445,9.0849,9.0849,9.1363,9.1803,9.1803,9.1803,9.1803,9.1803,9.1803,9.1803,9.1803,9.1803,9.1803,9.1803,9.1803,9.1803,9.1803,9.1216,9.0849,9.0849,9.0262,8.9931,8.9931,8.9931,8.9858,8.9639,8.9639,8.9565,8.9382,8.9382,8.9382,8.5014,8.6,8.6786,8.6802,8.6794,8.6765,8.6549,8.6529,8.6468,8.62,8.6143,8.6143,8.6094,8.6094,8.6094,8.6094,8.6094,8.6094,8.6094,8.6094,8.6094,8.6094,0.0,0.0,8.6094,0.0,0.0,0.0,0.0,0.0,9.1171,9.121,9.121,9.121,9.121,9.121,9.121,9.121,9.121,9.121,9.121,9.121,9.121,9.121,9.121,9.1136,0.0,0.0,0.0,8.9549,8.9276,8.9161,8.9161,8.9136,8.9122,8.9122,8.8691,8.816,8.816,8.7709,8.7208,8.7978,8.8233,8.8301,8.8272,8.8788,8.9413,8.9381,8.9382,8.9565,9.0298,9.0482,9.0665,9.14,9.1583,9.1583,9.1583,9.1583,9.1583,9.1583,9.1657,9.1693,9.1693,9.173,9.1803,9.1803,9.1803,9.1803,9.1803,9.1803,9.1803,9.1803,9.1803,9.1803,9.1803,9.1803,9.1803,9.1803,9.173,9.1693,9.1693,9.162,9.1583,9.1583,9.1583,9.1216,9.0482,9.0482,9.0115,8.9382,8.9382,8.9382,8.492,8.5772,8.6417,8.6583,8.649,8.6376,8.6259,8.6268,8.6223,8.6126,8.6094,8.6094,8.6094,8.6094,8.6094,8.6094,8.6094,8.6094,8.6094,8.6094,8.6094,8.6094,8.6094,0.0,0.0,0.0,0.0,0.0,0.0,0.0,9.0364,9.0902,9.121,9.121,9.121,9.121,9.121,9.121,9.121,9.121,9.121,9.121,9.1192,9.0743,9.0528,9.0488,0.0,0.0,0.0,8.9187,8.8856,8.8503,8.8503,8.8249,8.7861,8.7861,8.7678,8.746,8.746,8.7265,8.7142,8.7949,8.8536,8.9014,8.9491,8.9858,9.0225,9.0702,9.0849,9.0922,9.1253,9.1326,9.14,9.173,9.1803,9.1803,9.1803,9.1803,9.1803,9.1803,9.1803,9.1803,9.1803,9.1803,9.1803,9.1803,9.1803,9.1803,9.1803,9.1803,9.1803,9.1803,9.1803,9.1803,9.1803,9.1803,9.1803,9.1803,9.1803,9.1803,9.1803,9.1803,9.1803,9.1803,9.1803,9.1657,9.1326,9.1326,9.1179,9.0849,9.0849,9.0849,8.4439,8.5235,8.5851,8.6293,8.6238,8.6094,8.6094,8.6094,8.6094,8.6094,8.6094,8.6094,8.6094,8.6094,8.6094,8.6094,8.6094,8.6094,8.6094,8.6094,8.6094,8.6094,0.0,0.0,0.0,0.0,0.0,0.0,0.0,0.0,0.0,9.021,9.0941,9.121,9.121,9.121,9.121,9.121,9.121,9.121,9.0989,9.0876,9.0858,9.0116,8.9809,8.9763,0.0,0.0,0.0,8.8551,8.822,8.7773,8.7773,8.746,8.6995,8.6995,8.6995,8.6995,8.6995,8.6995,8.7178,8.8243,8.894,8.9601,9.0629,9.0959,9.1069,9.1657,9.1803,9.1803,9.1803,9.1803,9.1803,9.1803,9.1803,9.1803,9.1803,9.1803,9.1803,9.1803,9.1803,9.1803,9.1803,9.1803,9.1803,9.1803,9.1803,9.1803,9.1803,9.1803,9.1803,9.1803,9.1803,9.1803,9.1803,9.1803,9.1803,9.1803,9.1803,9.1803,9.1803,9.1803,9.1803,9.1803,9.1803,9.1803,9.1803,9.1803,9.1803,9.1803,9.1803,9.1803,8.3378,8.4247,8.5093,8.5901,8.6094,8.6094,8.6094,8.6094,8.6094,8.6094,8.6094,8.6094,8.6094,8.6094,8.6094,8.6094,8.6094,8.6094,8.6094,8.6094,8.6094,0.0,0.0,8.6094,0.0,0.0,0.0,0.0,0.0,0.0,0.0,8.9017,9.0325,9.1171,9.121,9.121,9.121,9.121,9.121,9.121,9.0467,9.0116,9.0095,8.9426,8.9122,0.0,0.0,0.0,0.0,8.7295,8.6995,8.6995,8.6995,8.7031,8.6995,8.6995,8.6995,8.6995,8.6995,8.6995,8.7288,8.8904,8.9382,8.9711,9.1289,9.1803,9.1803,9.1803,9.1803,9.1803,9.1803,9.1803,9.1803,9.1803,9.1803,9.1803,9.1803,9.1803,9.1803,9.1803,9.1803,9.1803,9.1803,9.1803,9.1803,9.1803,9.1803,9.1803,9.1803,9.1803,9.1803,9.1803,9.1803,9.1803,9.1803,9.1803,9.1803,9.1803,9.1803,9.1803,9.1803,9.1803,9.1803,9.1803,9.1803,9.1803,9.1803,9.1803,9.1803,9.1803,9.1803,9.1803,8.2631,8.3785,8.4978,8.5209,8.5709,8.6094,8.6094,8.6094,8.6094,8.6094,8.6094,8.6094,8.6094,8.6094,8.6094,8.6094,8.6094,8.6094,8.6094,8.6094,0.0,8.6094,8.6094,8.6094,0.0,0.0,0.0,0.0,0.0,0.0,0.0,8.7902,8.8825,9.0287,9.0902,9.121,9.121,9.121,9.0971,9.0447,9.0203,8.9855,8.9389,8.8719,0.0,0.0,0.0,0.0,0.0,8.7098,8.6995,8.6995,8.6995,8.6995,8.6995,8.6995,8.6995,8.6995,8.6995,8.6995,8.7288,8.8904,8.9382,8.9711,9.1326,9.1803,9.1803,9.1803,9.1803,9.1803,9.1803,9.1803,9.1803,9.1803,9.1803,9.1803,9.1803,9.1803,9.1803,9.1803,9.1803,9.1803,9.1803,9.1803,9.1803,9.1803,9.1803,9.1803,9.1803,9.1803,9.1803,9.1803,9.1803,9.1803,9.1803,9.1803,9.1803,9.1803,9.1803,9.1803,9.1803,9.1803,9.1803,9.1803,9.1803,9.1803,9.1803,9.1803,9.1803,9.1803,9.1803,9.1803,8.2208,8.3093,8.4093,8.4747,8.5286,8.5747,8.6017,8.6094,8.6094,8.6094,8.6094,8.6094,8.6094,8.6094,8.6094,8.6094,8.6094,8.6094,8.6094,0.0,0.0,8.6094,0.0,0.0,0.0,0.0,0.0,0.0,0.0,0.0,0.0,8.6831,8.7408,8.817,8.9611,9.0378,9.0406,9.0406,9.0176,8.974,8.9476,8.9148,8.8691,8.8015,0.0,0.0,0.0,0.0,0.0,8.6995,8.6995,8.6995,8.6995,8.6995,8.6995,8.6995,8.6995,8.6995,8.6995,8.7215,8.7692,8.9014,8.9821,9.0482,9.151,9.1803,9.1803,9.1803,9.1803,9.1803,9.1803,9.1803,9.1803,9.1803,9.1803,9.1803,9.1803,9.1803,9.1803,9.1803,9.1803,9.1803,9.1803,9.1803,9.1803,9.1803,9.1803,9.1803,9.1803,9.1803,9.1803,9.1803,9.1803,9.1803,9.1803,9.1803,9.1803,9.1803,9.1803,9.1803,9.1803,9.1803,9.1803,9.1803,9.1803,9.1803,9.1803,9.1803,9.1803,9.1803,9.1803,9.1803,0.0,8.2247,8.267,8.4324,8.4824,8.5093,8.5863,8.6055,0.0,8.6094,8.6094,8.6094,8.6094,8.6094,8.6094,8.6094,8.6094,8.6094,8.6094,8.6094,0.0,0.0,8.6094,0.0,0.0,0.0,0.0,0.0,0.0,0.0,0.0,8.5782,8.594,8.5361,8.7444,8.8743,8.9008,8.9084,8.9095,8.9043,8.8426,8.8076,8.7985,8.7295,0.0,0.0,0.0,0.0,0.0,8.6995,8.6995,8.6995,8.6995,8.6995,8.6995,8.6995,8.6995,8.6995,8.6995,8.7545,8.8353,8.9234,9.0555,9.1803,9.1803,9.1803,9.1803,9.1803,9.1803,9.1803,9.1803,9.1803,9.1803,9.1803,9.1803,9.1803,9.1803,9.1803,9.1803,9.1803,9.1803,9.1803,9.1803,9.1803,9.1803,9.1803,9.1803,9.1803,9.1803,9.1803,9.1803,9.1803,9.1803,9.1803,9.1803,9.1803,9.1803,9.1803,9.1803,9.1803,9.1803,9.1803,9.1803,9.1803,9.1803,9.1803,9.1803,9.1803,9.1803,9.1803,9.1803,9.1803,8.1323,0.0,8.2401,8.2824,8.3901,8.4939,0.0,8.567,8.6094,8.6094,8.6094,8.6094,8.6094,8.6094,8.6094,8.6094,8.6094,8.6094,8.6094,0.0,0.0,8.6094,0.0,0.0,0.0,0.0,0.0,0.0,0.0,0.0,0.0,8.4609,8.467,8.4629,8.518,8.6342,8.8166,8.8782,8.8829,8.8338,8.8197,8.7804,8.7265,8.7098,0.0,0.0,0.0,0.0,8.6995,8.6995,8.6995,8.6995,8.6995,8.6995,8.6995,8.6995,8.6995,8.6995,8.6995,8.7545,8.8426,8.9858,9.0996,9.1803,9.1803,9.1803,9.1803,9.1803,9.1803,9.1803,9.1803,9.1803,9.1803,9.1803,9.1803,9.1803,9.1803,9.1803,9.1803,9.1803,9.1803,9.1803,9.1803,9.1803,9.1803,9.1803,9.1803,9.1803,9.1803,9.1803,9.1803,9.1803,9.1803,9.1803,9.1803,9.1803,9.1803,9.1803,9.1803,9.1803,9.1803,9.1803,9.1803,9.1803,9.1803,9.1803,9.1803,9.1803,9.1803,9.1803,9.1803,9.1803,0.0,8.14,8.1823,8.2208,8.3016,8.3824,8.4209,8.4939,8.5555,8.5555,8.5863,8.6094,8.6094,8.5846,8.5719,8.606,8.5828,0.0,0.0,0.0,8.5971,8.5682,0.0,0.0,0.0,0.0,0.0,0.0,0.0,0.0,0.0,8.372,8.363,8.3399,8.3738,8.491,8.6922,8.7369,8.7576,8.7586,8.7586,8.7394,8.6995,8.6995,8.6995,0.0,0.0,0.0,8.6995,8.6995,8.6995,8.6995,8.6995,8.6995,8.6995,8.6995,8.6995,8.6995,8.6995,8.7766,8.9014,9.0629,9.1436,9.1803,9.1803,9.1803,9.1803,9.1803,9.1803,9.1803,9.1803,9.1803,9.1803,9.1803,9.1803,9.1803,9.1803,9.1803,9.1803,9.1803,9.1803,9.1803,9.1803,9.1803,9.1803,9.1803,9.1803,9.1803,9.1803,9.1803,9.1803,9.1803,9.1803,9.1803,9.1803,9.1803,9.1803,9.1803,9.1803,9.1803,9.1803,9.1803,9.1803,9.1803,9.1803,9.1803,9.1803,9.1803,9.1803,9.1803,9.1803,9.1803,8.1093,8.1093,8.1246,8.1939,8.2208,8.2477,8.3208,8.4093,8.4709,8.4709,8.5363,8.5885,8.5779,8.5475,8.5399,8.5864,0.0,0.0,8.5757,8.5811,8.5608,0.0,0.0,0.0,0.0,0.0,0.0,0.0,0.0,0.0,0.0,8.3053,8.2793,8.2219,8.2884,8.3948,8.5416,8.5673,8.6151,8.6811,8.6958,8.6995,8.6995,8.6995,8.6995,0.0,0.0,0.0,8.6995,8.6995,8.6995,8.6995,8.6995,8.6995,8.6995,8.6995,8.6995,8.7031,8.7288,8.828,8.9674,9.1289,9.1803,9.1803,9.1803,9.1803,9.1803,9.1803,9.1803,9.1803,9.1803,9.1803,9.1803,9.1803,9.1803,9.1803,9.1803,9.1803,9.1803,9.1803,9.1803,9.1803,9.1803,9.1803,9.1803,9.1803,9.1803,9.1803,9.1803,9.1803,9.1803,9.1803,9.1803,9.1803,9.1803,9.1803,9.1803,9.1803,9.1803,9.1803,9.1803,9.1803,9.1803,9.1803,9.1803,9.1803,9.1803,9.1803,9.1803,9.1803,9.1803,9.1803,8.1093,8.1093,8.1131,8.1246,8.1785,8.2324,8.2477,8.317,8.3785,8.3785,8.4478,8.4899,8.4327,8.5147,8.5811,8.534,0.0,8.4936,0.0,0.0,0.0,0.0,0.0,0.0,0.0,0.0,0.0,0.0,0.0,0.0,0.0,8.2343,8.2279,8.2186,8.2333,8.2847,8.3765,8.5123,8.5857,8.5967,8.6664,8.6995,8.6995,8.6995,8.6995,0.0,0.0,8.6995,8.6995,8.6995,8.6995,8.6995,8.6995,8.6995,8.6995,8.6995,8.6995,8.7215,8.8573,8.9162,8.9674,9.1289,9.1803,9.1803,9.1803,9.1803,9.1803,9.1803,9.1803,9.1803,9.1803,9.1803,9.1803,9.1803,9.1803,9.1803,9.1803,9.1803,9.1803,9.1803,9.1803,9.1803,9.1803,9.1803,9.1803,9.1803,9.1803,9.1803,9.1803,9.1803,9.1803,9.1803,9.1803,9.1803,9.1803,9.1803,9.1803,9.1803,9.1803,9.1803,9.1803,9.1803,9.1803,9.1803,9.1803,9.1803,9.1803,9.1803,9.1803,9.1803,9.1803,9.1803,8.1093,8.1093,8.1093,8.1093,8.1362,8.1631,8.1631,8.2067,8.25,8.2814,8.3333,8.3734,8.3864,8.4164,8.4296,8.409,0.0,8.4513,0.0,0.0,0.0,0.0,0.0,0.0,0.0,0.0,0.0,0.0,0.0,0.0,0.0,0.0,8.2186,8.2186,8.2186,8.237,8.2737,8.3911,8.4939,8.5783,8.6628,8.6995,8.6995,8.6995,8.6995,8.6995,0.0,8.6995,8.6995,8.6995,8.6995,8.6995,8.6995,8.6995,8.6995,8.6995,8.6995,8.7252,8.8831,8.9382,8.9674,9.1289,9.1803,9.1803,9.1803,9.1803,9.1803,9.1803,9.1803,9.1803,9.1803,9.1803,9.1803,9.1803,9.1803,9.1803,9.1803,9.1803,9.1803,9.1803,9.1803,9.1803,9.1803,9.1803,9.1803,9.1803,9.1803,9.1803,9.1803,9.1803,9.1803,9.1803,9.1803,9.1803,9.1803,9.1803,9.1803,9.1803,9.1803,9.1803,9.1803,9.1803,9.1803,9.1803,9.1803,9.1803,9.1803,9.1803,9.1803,9.1803,9.1803,9.1803,8.1093,8.1093,8.1093,8.1093,8.1093,8.1061,8.0888,8.0979,8.1194,8.151,8.192,8.2323,8.2781,8.2765,0.0,8.3154,8.3624,0.0,0.0,0.0,0.0,0.0,0.0,0.0,0.0,0.0,0.0,0.0,0.0,0.0,0.0,0.0,8.2186,8.2186,8.2186,8.2186,8.2186,8.2994,8.4132,8.5527,8.6334,8.6811,8.6995,8.6995,8.6995,8.6995,8.6995,8.6995,8.6995,8.6995,8.6995,8.6995,8.6995,8.6995,8.6995,8.6995,8.6995,8.7252,8.8831,8.9382,8.9674,9.1289,9.1803,9.1803,9.1803,9.1803,9.173,9.1435,9.1398,9.1435,9.173,9.1803,9.1803,9.1803,9.1803,9.1803,9.1803,9.1803,9.1803,9.1803,9.1803,9.1694,9.1435,9.1398,9.1286,9.0984,9.0945,9.0945,9.0945,9.0945,9.0945,9.0945,9.0945,9.0945,9.0945,9.0945,9.0945,9.0984,9.1509,9.1803,9.1803,9.1803,9.1803,9.1803,9.1803,9.1803,9.1803,9.1803,9.1803,9.1803,9.1803,9.1657,8.1093,8.1093,8.1093,8.1093,8.1093,8.0943,8.0315,8.0182,8.0063,7.9523,8.0068,8.0485,7.9919,8.1027,8.2305,8.3106,8.3246,0.0,0.0,0.0,0.0,0.0,0.0,0.0,0.0,0.0,0.0,0.0,0.0,0.0,0.0,0.0,0.0,8.2186,8.2186,8.2186,8.2186,8.2994,8.3838,8.4682,8.549,8.6261,8.6995,8.6995,8.6995,8.6995,8.6995,8.6995,8.6995,8.6995,8.6995,8.6995,8.6995,8.6995,8.6995,8.6995,8.6995,8.7252,8.8831,8.9382,8.9674,9.1289,9.1803,9.1803,9.1803,9.1803,9.1583,9.0443,9.0127,9.0404,9.1509,9.1803,9.1803,9.1803,9.1803,9.1803,9.1803,9.1803,9.1803,9.1803,9.1803,9.1435,9.0324,9.0127,8.9724,8.8623,8.8446,8.8446,8.8446,8.8446,8.8446,8.8446,8.8446,8.8446,8.8446,8.8446,8.8526,8.8526,9.0598,9.1803,9.1803,9.1803,9.1803,9.1803,9.1803,9.1803,9.1803,9.1803,9.1803,9.1803,9.1803,9.1211,8.1093,8.0822,8.0481,8.0481,8.0221,7.9967,8.0086,7.9827,7.9469,7.9244,7.9152,7.9212,7.9444,0.0,8.1483,8.1779,8.2259,0.0,0.0,0.0,0.0,0.0,0.0,0.0,0.0,0.0,0.0,0.0,0.0,0.0,0.0,0.0,0.0,8.2186,8.2186,8.2186,8.2186,8.2517,8.3324,8.4609,8.5416,8.6224,8.6995,8.6995,8.6995,8.6995,8.6995,8.6995,8.6995,8.6995,8.6995,8.6995,8.6995,8.6995,8.6995,8.6995,8.7325,8.7771,8.814,8.9129,9.0081,8.9685,9.0046,9.0559,8.9801,8.9558,8.9474,8.9014,8.8884,8.8971,8.9432,8.9558,8.9558,8.9558,8.9558,8.9558,8.9558,8.9558,8.9558,8.9558,8.9558,8.9432,8.9007,8.892,8.871,8.8268,8.8178,8.8178,8.8178,8.8178,8.8178,8.8178,8.8178,8.8178,8.8178,8.8178,8.8223,8.8259,8.9093,8.9558,8.9558,8.9558,8.9558,8.9558,8.9558,8.9558,8.9558,8.9558,8.9558,8.9558,8.9558,8.9306,8.0519,8.0182,7.9827,7.9827,7.9513,7.9267,7.9469,7.9198,7.8878,7.8616,7.8272,7.8248,7.9063,7.9768,0.0,0.0,0.0,0.0,0.0,0.0,0.0,0.0,0.0,0.0,0.0,0.0,0.0,0.0,0.0,0.0,0.0,0.0,0.0,0.0,8.2186,8.2186,8.2186,8.2186,8.2994,8.4609,8.5159,8.5967,8.6995,8.6995,8.6995,8.6995,8.6995,8.6995,8.6995,8.6995,8.6995,8.6995,8.6995,8.6995,8.696,8.6571,8.6975,8.7596,8.7213,8.8125,8.9314,8.8461,8.8754,8.9306,8.8446,8.8178,8.8133,8.7723,8.7631,8.7538,8.7151,8.7631,8.8178,8.8178,8.8178,8.8178,8.8178,8.8178,8.8178,8.8178,8.8178,8.8088,8.7758,8.7631,8.7492,8.7104,8.7056,8.7056,8.7056,8.7056,8.7056,8.7056,8.7056,8.7056,8.7056,8.7056,8.7056,8.7056,8.7056,8.7434,8.8178,8.8178,8.8178,8.8178,8.8178,8.8178,8.8178,8.8178,8.8178,8.8178,8.8223,8.7998,7.9198,7.9198,7.9198,7.9198,7.9198,7.901,7.8432,7.8309,7.809,7.7457,7.7273,7.753,7.8442,7.8589,0.0,0.0,0.0,0.0,0.0,0.0,0.0,0.0,0.0,0.0,0.0,0.0,0.0,0.0,0.0,0.0,0.0,0.0,0.0,0.0,8.2186,8.2186,8.2186,8.2186,8.2994,8.4609,8.4609,8.5453,8.6995,8.6995,8.6995,8.6995,8.6995,8.6995,8.6995,8.696,8.696,8.696,8.696,8.696,8.6856,8.5731,8.5745,8.6341,8.602,8.6374,8.7152,8.7931,8.8178,8.8178,8.8178,8.8178,8.7906,8.672,8.6365,8.6103,8.489,8.6365,8.8178,8.8178,8.8178,8.8178,8.8178,8.8178,8.8178,8.8178,8.8178,8.7769,8.6575,8.6365,8.5953,8.4819,8.464,8.464,8.464,8.464,8.464,8.464,8.464,8.464,8.464,8.464,8.464,8.464,8.464,8.5668,8.8043,8.8178,8.8178,8.8178,8.8178,8.8178,8.8178,8.8178,8.8178,8.8178,8.8214,8.7573,7.9198,7.8865,7.8588,7.8588,7.819,7.7817,7.7622,7.796,7.809,7.7457,7.7273,7.7384,7.7671,7.8185,0.0,0.0,0.0,0.0,0.0,0.0,0.0,0.0,0.0,0.0,0.0,0.0,0.0,0.0,0.0,0.0,0.0,0.0,0.0,0.0,8.2186,8.2186,8.2186,8.2186,8.2994,8.4609,8.4609,8.5453,8.6995,8.6995,8.6995,8.6995,8.6995,8.6995,8.6925,8.6138,8.5353,8.4613,8.4613,8.4613,8.4644,8.4813,8.5364,8.5977,8.5588,8.6463,8.7589,8.6133,8.6252,8.6769,8.5937,8.5668,8.5617,8.524,8.5118,8.5066,8.4713,8.5118,8.5668,8.5668,8.5668,8.5668,8.5668,8.5668,8.5668,8.5668,8.5668,8.5566,8.5222,8.5118,8.5014,8.466,8.464,8.464,8.464,8.464,8.464,8.464,8.464,8.464,8.464,8.464,8.464,8.464,8.464,8.4943,8.5668,8.5668,8.5668,8.5668,8.5668,8.5668,8.5668,8.5668,8.5668,8.5668,8.5668,8.5464,7.8447,7.8163,7.7903,7.7903,7.7599,7.7273,7.7273,7.7629,7.7797,7.7396,7.7273,7.7273,7.7273,7.7745,0.0,0.0,0.0,0.0,0.0,0.0,0.0,0.0,0.0,0.0,0.0,0.0,0.0,0.0,0.0,0.0,0.0,0.0,0.0,0.0,8.2186,8.2186,8.2186,8.2186,8.2791,8.3913,8.3913,8.4537,8.5693,8.6608,8.6749,8.6283,8.5843,8.5656,8.5618,8.4927,8.4248,8.3621,8.3621,8.3621,8.3606,8.3903,8.4498,8.5133,8.4673,8.5531,8.6512,8.5066,8.5118,8.5566,8.4785,8.464,8.464,8.464,8.464,8.464,8.464,8.464,8.464,8.464,8.464,8.464,8.464,8.464,8.464,8.464,8.464,8.464,8.464,8.464,8.464,8.464,8.464,8.464,8.464,8.464,8.464,8.464,8.464,8.464,8.464,8.464,8.464,8.464,8.464,8.464,8.464,8.464,8.464,8.464,8.464,8.464,8.464,8.464,8.464,8.464,8.464,8.464,7.7273,7.7273,7.7273,7.7273,7.7273,7.7273,7.7273,7.7273,7.7273,7.7273,7.7273,7.7273,7.7273,7.7273,0.0,0.0,0.0,0.0,0.0,0.0,0.0,0.0,0.0,0.0,0.0,0.0,0.0,0.0,0.0,0.0,0.0,0.0,0.0,8.2186,8.2186,8.2154,8.2088,8.2018,8.231,0.0,8.2746,8.3033,8.3663,8.5731,8.6101,8.5084,8.4083,8.3543,8.345,8.345,8.3372,8.3321,8.3321,8.3356,8.3323,8.3079,8.3403,8.4018,8.3704,8.4065,8.464,8.464,8.464,8.464,8.464,8.464,8.464,8.464,8.464,8.464,8.464,8.464,8.464,8.464,8.464,8.464,8.464,8.464,8.464,8.464,8.464,8.464,8.464,8.464,8.464,8.464,8.464,8.464,8.464,8.464,8.464,8.464,8.464,8.464,8.464,8.464,8.464,8.464,8.464,8.464,8.464,8.464,8.464,8.464,8.464,8.464,8.464,8.464,8.464,8.464,8.464,8.464,7.7273,7.7273,7.7273,7.7273,7.7273,7.7273,7.7273,7.7273,7.7273,7.7273,7.7273,7.7273,7.7273,0.0,0.0,0.0,0.0,0.0,0.0,0.0,0.0,0.0,0.0,0.0,0.0,0.0,0.0,0.0,0.0,0.0,0.0,0.0,0.0,8.2186,8.2186,8.1782,8.0947,8.0947,8.1196,0.0,8.1652,8.2306,8.3621,8.4124,8.4207,8.3922,8.3706,8.3103,8.229,8.229,8.1723,8.0917,8.0917,8.1259,8.1825,8.2343,8.299,8.3686,8.4205,8.4505,8.464,8.464,8.464,8.464,8.464,8.464,8.464,8.464,8.464,8.464,8.464,8.464,8.464,8.464,8.464,8.464,8.464,8.464,8.464,8.464,8.464,8.464,8.464,8.464,8.464,8.464,8.464,8.464,8.464,8.464,8.464,8.464,8.464,8.464,8.464,8.464,8.464,8.464,8.464,8.464,8.464,8.464,8.464,8.464,8.464,8.464,8.464,8.464,8.464,8.464,8.464,8.464,7.7273,7.7273,7.7273,7.7273,7.7273,7.7273,7.7273,7.7273,7.7273,7.7273,7.7273,7.7273,7.7273,0.0,0.0,0.0,0.0,0.0,0.0,0.0,0.0,0.0,0.0,0.0,0.0,0.0,0.0,0.0,0.0,0.0,0.0,8.1715,8.1439,8.1439,8.0947,8.0403,7.9842,7.9842,8.0044,8.0473,8.0473,8.1015,8.2003,8.2527,8.2795,8.275,8.2198,8.1663,8.1077,8.1077,8.0755,8.0209,8.0209,8.0648,8.1393,8.2137,8.2881,8.3625,8.437,8.464,8.464,8.464,8.464,8.464,8.464,8.464,8.464,8.464,8.464,8.464,8.464,8.464,8.464,8.464,8.464,8.464,8.464,8.464,8.464,8.464,8.464,8.464,8.464,8.464,8.464,8.464,8.464,8.464,8.464,8.464,8.464,8.464,8.464,8.464,8.464,8.464,8.464,8.464,8.464,8.464,8.464,8.464,8.464,8.464,8.464,8.464,8.464,8.464,8.464,8.464,8.5012,8.5182,7.7273,7.7273,7.7273,7.7273,7.7273,7.7273,7.7273,7.7273,7.7273,7.7273,7.7273,7.7273,0.0,0.0,0.0,0.0,0.0,0.0,0.0,0.0,0.0,0.0,0.0,0.0,0.0,0.0,0.0,0.0,0.0,0.0,8.1681,8.0804,8.0329,8.0329,7.9458,7.8903,7.87,7.8841,7.9029,7.9327,7.9603,7.9864,8.0225,8.1174,8.1582,8.1535,8.0641,8.0209,8.0209,8.0209,8.0209,8.0209,8.0344,8.0818,8.1562,8.2306,8.305,8.3795,8.4403,8.464,8.464,8.464,8.464,8.464,8.464,8.464,8.464,8.464,8.464,8.464,8.464,8.464,8.464,8.464,8.464,8.464,8.464,8.464,8.464,8.464,8.4742,8.4877,8.5012,8.5012,8.5012,8.5012,8.5012,8.5012,8.5012,8.5012,8.5012,8.5012,8.5012,8.5012,8.5012,8.5012,8.5012,8.5012,8.5012,8.5012,8.5012,8.5012,8.5012,8.5012,8.4877,8.4877,8.5012,8.5012,8.5012,8.5046,8.5689,8.5993,7.7273,7.7273,7.7273,7.7273,7.7273,7.7273,7.7273,7.7273,7.7273,0.0,7.7273,0.0,0.0,0.0,0.0,0.0,0.0,0.0,0.0,0.0,0.0,0.0,0.0,0.0,0.0,0.0,0.0,0.0,0.0,0.0,7.9458,7.9302,7.9222,7.9222,7.9063,7.8536,7.752,7.8215,7.8465,7.822,7.951,8.0123,8.0209,8.0376,8.0426,8.0392,8.0276,8.0209,8.0209,8.0209,8.0209,8.0242,8.0885,8.1596,8.234,8.3084,8.3828,8.4505,8.4606,8.464,8.464,8.464,8.464,8.464,8.464,8.464,8.464,8.464,8.464,8.464,8.464,8.464,8.464,8.464,8.464,8.464,8.464,8.464,8.464,8.464,8.5182,8.5824,8.6501,8.6602,8.6602,8.6602,8.6602,8.6602,8.6602,8.6602,8.6602,8.6602,8.6602,8.6602,8.6602,8.6602,8.6602,8.6602,8.6602,8.6602,8.6602,8.6602,8.6602,8.6602,8.596,8.596,8.6602,8.6602,8.6602,8.6602,8.6704,8.6771,7.7273,7.7273,7.7273,7.7273,7.7273,7.7273,7.7273,7.7273,7.7273,7.7273,7.7273,0.0,0.0,0.0,0.0,0.0,0.0,0.0,0.0,0.0,0.0,0.0,0.0,0.0,0.0,0.0,0.0,0.0,0.0,7.9497,7.9023,7.8411,7.8034,7.8034,7.7467,7.6927,7.6416,7.7191,7.7931,7.8619,7.9701,8.0209,8.0209,8.0209,8.0209,8.0209,8.0209,8.0209,8.0209,8.0209,8.0445,8.0851,8.1156,8.2002,8.305,8.3389,8.3964,8.464,8.464,8.464,8.464,8.464,8.464,8.464,8.464,8.464,8.464,8.464,8.464,8.464,8.464,8.464,8.4742,8.5182,8.5283,8.5384,8.5824,8.5554,8.5384,8.5824,8.6163,8.6535,8.6839,8.6907,8.6907,8.6907,8.6907,8.6907,8.6907,8.6907,8.6907,8.6907,8.6907,8.6907,8.6907,8.6907,8.6907,8.6907,8.6907,8.6907,8.6907,8.6907,8.711,8.7516,8.6805,8.6569,8.6907,8.6907,8.6907,8.6941,8.7313,8.7516,7.7273,7.7273,7.7273,7.7273,7.7273,7.7273,7.7273,7.7273,7.7273,0.0,0.0,0.0,0.0,0.0,0.0,0.0,0.0,0.0,0.0,0.0,0.0,0.0,0.0,0.0,0.0,0.0,0.0,0.0,0.0,7.8453,7.8161,7.738,7.6882,7.6882,7.6114,7.5811,7.6014,7.6961,7.8111,7.9397,7.9938,8.0209,8.0209,8.0209,8.0209,8.0209,8.0209,8.0209,8.0209,8.0412,8.0784,8.1325,8.1697,8.2509,8.3524,8.3693,8.4133,8.464,8.464,8.464,8.464,8.464,8.464,8.464,8.464,8.464,8.464,8.464,8.464,8.4674,8.4877,8.4911,8.5114,8.5892,8.6061,8.623,8.6771,8.6467,8.6298,8.7042,8.7177,8.7245,8.7448,8.7448,8.7448,8.7448,8.7448,8.7448,8.7448,8.7448,8.7448,8.7448,8.7448,8.7448,8.7448,8.7448,8.7448,8.7448,8.7448,8.7448,8.7448,8.7448,8.7719,8.826,8.7753,8.7448,8.7448,8.7448,8.7448,8.7482,8.8023,8.826,7.7273,7.7273,7.7273,7.7273,7.7273,7.7273,7.7273,0.0,7.7273,7.7273,0.0,0.0,0.0,0.0,0.0,0.0,0.0,0.0,0.0,0.0,0.0,0.0,0.0,0.0,0.0,0.0,0.0,0.0,0.0,7.6972,7.596,7.5818,7.5771,7.5771,7.5757,7.6082,7.6826,7.828,7.9397,8.0141,8.0175,8.0209,8.0209,8.0209,8.0209,8.0209,8.0209,8.0209,8.0242,8.0953,8.1257,8.1426,8.2847,8.3422,8.3592,8.4302,8.4606,8.464,8.464,8.464,8.464,8.464,8.464,8.464,8.464,8.464,8.464,8.464,8.464,8.4809,8.552,8.5723,8.5926,8.667,8.6839,8.6873,8.6907,8.6873,8.7076,8.7786,8.7955,8.8158,8.8869,8.897,8.897,8.897,8.897,8.897,8.897,8.897,8.897,8.897,8.897,8.897,8.897,8.897,8.897,8.897,8.897,8.897,8.897,8.897,8.897,8.9038,8.9004,8.897,8.897,8.897,8.897,8.897,8.9004,8.9038,7.7273,7.7273,7.7273,7.7273,7.7273,7.7273,7.7273,7.6793,7.653,7.7181,0.0,0.0,0.0,0.0,0.0,0.0,0.0,0.0,0.0,0.0,0.0,0.0,0.0,0.0,0.0,0.0,0.0,0.0,0.0,0.0,7.5757,7.5709,7.5709,7.5709,7.5709,7.6318,7.757,7.8619,7.9464,8.0209,8.0209,8.0209,8.0209,8.0209,8.0209,8.0209,8.0209,8.0479,8.0919,8.119,8.1832,8.2746,8.3287,8.3795,8.4268,8.4539,8.464,8.464,8.464,8.464,8.464,8.464,8.464,8.464,8.464,8.464,8.4742,8.5215,8.5384,8.5554,8.6298,8.6501,8.6704,8.7414,8.7955,8.8294,8.8294,8.8294,8.8395,8.8632,8.87,8.8767,8.9038,8.9072,8.9072,8.9072,8.9072,8.9072,8.9072,8.9072,8.9072,8.9072,8.9072,8.9072,8.9072,8.9072,8.9072,8.9072,8.9072,8.9072,8.9072,8.9072,8.9072,8.9072,8.9072,8.9072,8.9072,8.9072,8.9072,8.9072,8.9072,8.9072,7.7273,7.7273,7.7273,7.7273,7.7273,7.7212,7.6856,7.6297,7.5891,7.6231,0.0,0.0,0.0,0.0,0.0,0.0,0.0,0.0,0.0,0.0,0.0,0.0,0.0,0.0,0.0,0.0,0.0,0.0,0.0,0.0,7.5709,7.5709,7.5811,7.6082,7.6352,7.7063,7.8348,7.9092,7.9735,8.0209,8.0209,8.0209,8.0209,8.0209,8.0209,8.0209,8.0445,8.0851,8.1291,8.1562,8.2374,8.3524,8.3761,8.42,8.464,8.464,8.464,8.464,8.464,8.464,8.464,8.464,8.464,8.4674,8.4945,8.5012,8.5182,8.596,8.6163,8.6332,8.7076,8.7448,8.7753,8.826,8.8734,8.9072,8.9072,8.9072,8.9072,8.9072,8.9072,8.9072,8.9072,8.9072,8.9072,8.9072,8.9072,8.9072,8.9072,8.9072,8.9072,8.9072,8.9072,8.9072,8.9072,8.9072,8.9072,8.9072,8.9072,8.9072,8.9072,8.9072,8.9072,8.9072,8.9072,8.9072,8.9072,8.9072,8.9072,8.9072,8.9072,8.9072,0.0,0.0,0.0,7.7273,7.7273,7.7019,7.6027,0.0,7.5475,0.0,0.0,0.0,0.0,0.0,0.0,0.0,0.0,0.0,0.0,0.0,0.0,0.0,0.0,0.0,0.0,0.0,0.0,0.0,0.0,7.5709,7.5709,7.5709,7.6082,7.686,7.7604,7.8348,7.9092,7.9837,8.0209,8.0209,8.0209,8.0209,8.0209,8.0209,8.0209,8.0276,8.0987,8.1291,8.1393,8.2137,8.2881,8.3592,8.4336,8.464,8.464,8.464,8.464,8.464,8.464,8.464,8.464,8.464,8.464,8.4809,8.5554,8.579,8.5993,8.6738,8.6941,8.711,8.7854,8.8564,8.9072,8.9072,8.9072,8.9072,8.9072,8.9072,8.9072,8.9072,8.9072,8.9072,8.9072,8.9072,8.9072,8.9072,8.9072,8.9072,8.9072,8.9072,8.9072,8.9072,8.9072,8.9072,8.9072,8.9072,8.9072,8.9072,8.9072,8.9072,8.9072,8.9072,8.9072,8.9072,8.9072,8.9072,8.9072,8.9072,8.9072,8.9072,8.9072,8.9072,7.7273,0.0,0.0,0.0,0.0,0.0,0.0,0.0,0.0,0.0,0.0,0.0,0.0,0.0,0.0,0.0,0.0,0.0,0.0,0.0,0.0,0.0,0.0,0.0,0.0,0.0,0.0,0.0,7.5709,7.5709,7.5709,7.5709,7.6082,7.686,7.7604,7.8348,7.9092,7.9837,8.0209,8.0209,8.0209,8.0209,8.0209,8.0209,8.0479,8.0987,8.119,8.19,8.2915,8.3118,8.3625,8.4336,8.4539,8.464,8.464,8.464,8.464,8.464,8.464,8.464,8.464,8.464,8.5012,8.5486,8.5723,8.6163,8.6738,8.7482,8.7685,8.7854,8.8598,8.8937,8.9072,8.9072,8.9072,8.9072,8.9072,8.9072,8.9072,8.9072,8.9072,8.9072,8.9072,8.9072,8.9072,8.9072,8.9072,8.9072,8.9072,8.9072,8.9072,8.9072,8.9072,8.9072,8.9072,8.9072,8.9072,8.9072,8.9072,8.9072,8.9072,8.9072,8.9072,8.9072,8.9072,8.9072,8.9072,8.9072,8.9072,8.9072,8.9072,8.9072,0.0,0.0,0.0,0.0,0.0,0.0,7.4794,7.4082,7.3571,0.0,0.0,0.0,0.0,0.0,0.0,0.0,0.0,0.0,0.0,0.0,0.0,0.0,0.0,0.0,0.0,0.0,0.0,7.5709,7.5709,7.5709,7.5709,7.5709,7.6217,7.7299,7.7773,7.8483,7.9566,8.0006,8.0209,8.0209,8.0209,8.0209,8.0209,8.0209,8.0581,8.1291,8.1629,8.2408,8.3524,8.3828,8.4234,8.464,8.464,8.464,8.464,8.464,8.464,8.464,8.464,8.4345,8.4109,8.4865,8.5119,8.5371,8.6404,8.7008,8.7516,8.826,8.8463,8.8531,8.897,8.9072,8.9072,8.9072,8.9072,8.9072,8.9072,8.9072,8.9072,8.9072,8.9072,8.9072,8.9072,8.9072,8.9072,8.9072,8.9072,8.9072,8.9072,8.9072,8.9072,8.9072,8.9072,8.9072,8.9072,8.9072,8.9072,8.9072,8.9072,8.9072,8.9072,8.9072,8.9072,8.9072,8.9072,8.9072,8.9072,8.9072,8.9072,8.9072,8.9072,8.9072,0.0,0.0,0.0,0.0,0.0,0.0,7.3044,7.2797,7.2498,0.0,0.0,0.0,0.0,0.0,0.0,0.0,0.0,0.0,0.0,0.0,0.0,0.0,0.0,0.0,0.0,7.5709,7.5709,7.5709,7.5709,7.5709,7.5709,7.5777,7.6487,7.7942,7.8077,7.8788,8.0175,8.0209,8.0209,8.0209,8.0209,8.0209,8.0209,8.0276,8.0716,8.146,8.2205,8.2949,8.3659,8.4336,8.464,8.464,8.464,8.464,8.464,8.464,8.45,8.4339,8.4406,8.3899,8.3491,8.5135,8.5213,8.5103,8.7329,8.8057,8.826,8.8903,8.9072,8.9072,8.9072,8.9072,8.9072,8.9072,8.9072,8.9072,8.9072,8.9072,8.9072,8.9072,8.9072,8.9072,8.9072,8.9072,8.9072,8.9072,8.9072,8.9072,8.9072,8.9072,8.9072,8.9072,8.9072,8.9072,8.9072,8.9072,8.9072,8.9072,8.9072,8.9072,8.9072,8.9072,8.9072,8.9072,8.9072,8.9072,8.9072,8.9072,8.9072,8.9072,8.9072,8.9072,0.0,0.0,0.0,0.0,0.0,0.0,7.3044,7.2797,7.2498,0.0,0.0,0.0,0.0,0.0,0.0,0.0,0.0,0.0,0.0,0.0,0.0,0.0,0.0,0.0,0.0,7.5709,7.5709,7.5709,7.5709,7.5709,7.5709,7.6318,7.7063,7.7942,7.8585,7.9329,8.0175,8.0209,8.0209,8.0209,8.0209,8.0209,8.0209,8.0818,8.1494,8.2238,8.2983,8.3693,8.4403,8.4573,8.464,8.464,8.464,8.464,8.464,8.464,8.3784,8.2727,8.3323,8.3416,8.3441,8.4325,8.5835,8.7363,8.7811,8.8395,8.8903,8.9038,8.9072,8.9072,8.9072,8.9072,8.9072,8.9072,8.9072,8.9072,8.9072,8.9072,8.9072,8.9072,8.9072,8.9072,8.9072,8.9072,8.9072,8.9072,8.9072,8.9072,8.9072,8.9072,8.9072,8.9072,8.9072,8.9072,8.9072,8.9072,8.9072,8.9072,8.9072,8.9072,8.9072,8.9072,8.9072,8.9072,8.9072,8.9072,8.9072,8.9072,8.9072,8.9072,8.9072,8.9072,0.0,0.0,0.0,7.3641,0.0,0.0,0.0,7.2056,7.1917,7.1367,0.0,0.0,0.0,0.0,0.0,0.0,0.0,0.0,0.0,0.0,0.0,0.0,0.0,0.0,0.0,7.5709,7.5709,7.5709,7.5709,7.5709,7.5709,7.6454,7.7232,7.7976,7.872,7.9464,8.0175,8.0209,8.0209,8.0209,8.0209,8.0209,8.0209,8.0953,8.1697,8.2441,8.3186,8.393,8.464,8.464,8.464,8.464,8.464,8.464,8.45,8.3729,8.3119,8.2617,8.2124,8.2437,8.3147,8.3443,8.4669,8.6198,8.6996,8.8136,8.9072,8.9072,8.9072,8.9072,8.9072,8.9072,8.9072,8.9072,8.9072,8.9072,8.9072,8.9072,8.9072,8.9072,8.9072,8.9072,8.9072,8.9072,8.9072,8.9072,8.9072,8.9072,8.9072,8.9072,8.9072,8.9072,8.9072,8.9072,8.9072,8.9072,8.9072,8.9072,8.9072,8.9072,8.9072,8.9072,8.9072,8.9072,8.9072,8.9072,8.9072,8.9072,8.9072,8.9072,8.9072,8.9072,0.0,0.0,0.0,0.0,0.0,7.1515,0.0,0.0,0.0,7.1312,0.0,0.0,0.0,0.0,0.0,0.0,0.0,0.0,0.0,0.0,0.0,0.0,0.0,0.0,0.0,7.5709,7.5709,7.5709,7.5709,7.5777,7.5912,7.669,7.7435,7.8179,7.8923,7.96,8.0175,8.0209,8.0209,8.0209,8.0209,8.0276,8.0445,8.1156,8.19,8.2644,8.3389,8.4065,8.464,8.464,8.464,8.464,8.464,8.4392,8.3981,8.2794,8.2353,8.2107,8.0991,8.138,8.2365,8.246,8.3163,8.4251,8.5629,8.7024,8.8176,8.8495,8.8609,8.87,8.9016,8.9072,8.9072,8.9072,8.9072,8.9072,8.9072,8.9072,8.9072,8.9072,8.9072,8.9072,8.9072,8.9072,8.9072,8.9072,8.9072,8.9072,8.9072,8.9072,8.9072,8.9072,8.9072,8.9072,8.9072,8.9072,8.9072,8.9072,8.9072,8.9072,8.9072,8.9072,8.9072,8.9072,8.9072,8.9072,8.9072,8.9072,8.9072,8.9072,8.9072,8.9072,0.0,0.0,0.0,0.0,7.2824,0.0,0.0,0.0,7.1312,7.1312,0.0,0.0,0.0,0.0,0.0,0.0,0.0,0.0,0.0,0.0,0.0,0.0,0.0,0.0,0.0,0.0,7.5709,7.5709,7.5709,7.6014,7.6724,7.7468,7.8213,7.8957,7.9701,8.0107,8.0209,8.0209,8.0209,8.0209,8.0209,8.0547,8.119,8.1934,8.2678,8.3422,8.4167,8.4539,8.464,8.464,8.464,8.464,8.464,8.3729,8.2524,8.2922,8.1314,7.9021,7.9973,8.0502,8.0786,8.1341,8.2629,8.4059,8.4251,8.4442,8.4883,8.6393,8.6813,8.7143,8.87,8.9072,8.9072,8.9072,8.9072,8.9072,8.9072,8.9072,8.9072,8.9072,8.9072,8.9072,8.9072,8.9072,8.9072,8.9072,8.9072,8.9072,8.9072,8.9072,8.9072,8.9072,8.9072,8.9072,8.9072,8.9072,8.9072,8.9072,8.9072,8.9072,8.9072,8.9072,8.9072,8.9072,8.9072,8.9072,8.9072,8.9072,8.9072,8.9072,8.9072,8.9072,0.0,0.0,0.0,0.0,0.0,0.0,7.3037,0.0,7.1954,0.0,0.0,0.0,0.0,0.0,0.0,0.0,0.0,0.0,0.0,0.0,0.0,0.0,0.0,0.0,0.0,0.0,0.0,0.0,0.0,7.6048,7.686,7.7604,7.8348,7.9092,7.9837,8.0209,8.0209,8.0209,8.0209,8.0209,8.0615,8.0987,8.1325,8.2509,8.3219,8.3524,8.4302,8.464,8.464,8.464,8.4035,8.3232,8.3632,8.3371,8.2567,8.0977,7.998,7.9414,7.8971,7.9813,8.1009,8.1319,8.1886,8.2524,8.2524,8.3218,8.4187,8.4883,8.5071,8.5196,8.5968,8.6151,8.6151,8.6151,8.6151,8.6151,8.6151,8.6905,8.7587,8.7587,8.8438,8.9072,8.9072,8.9072,8.9072,8.9072,8.9072,8.9072,8.9072,8.9072,8.9072,8.9072,8.9072,8.9072,8.9072,8.9072,8.9072,8.9072,8.9072,8.9072,8.9072,8.9072,8.9072,8.9072,8.9072,8.9072,8.9072,8.9072,8.9072,8.9072,8.9072,8.9072,7.5067,0.0,0.0,0.0,0.0,0.0,0.0,0.0,0.0,0.0,0.0,0.0,0.0,0.0,0.0,0.0,0.0,0.0,0.0,0.0,0.0,0.0,0.0,0.0,0.0,0.0,0.0,0.0,0.0,0.0,7.713,7.7705,7.8416,7.9397,7.9938,8.0209,8.0209,8.0209,8.0209,8.0209,8.0953,8.1393,8.1629,8.2915,8.3625,8.3828,8.4403,8.464,8.4553,8.4143,8.3354,8.2445,8.2026,8.2062,8.2142,7.9721,7.9151,7.943,7.8407,7.9234,8.0687,8.0687,8.0687,8.0687,8.0687,8.1584,8.2692,8.3152,8.3283,8.3413,8.3866,8.3995,8.3995,8.3995,8.3995,8.3995,8.3995,8.4946,8.5813,8.5813,8.6846,8.7679,8.7679,8.8495,8.9072,8.9072,8.9072,8.9072,8.9072,8.9072,8.9072,8.9072,8.9072,8.9072,8.9072,8.9072,8.9072,8.9072,8.9072,8.9072,8.9072,8.9072,8.9072,8.9072,8.9072,8.9072,8.9072,8.9072,8.9072,8.9072,8.9072,8.9072,0.0,0.0,0.0,7.5642,0.0,0.0,0.0,0.0,7.3443,0.0,0.0,0.0,0.0,0.0,0.0,0.0,0.0,0.0,0.0,0.0,0.0,0.0,0.0,0.0,0.0,0.0,0.0,0.0,0.0,0.0,7.7874,7.7976,7.8653,8.0107,8.0175,8.0209,8.0209,8.0209,8.0209,8.0209,8.0953,8.1663,8.2408,8.3152,8.3896,8.4606,8.4606,8.464,8.45,8.2942,8.2626,8.2844,7.97,7.9215,8.0394,8.026,7.9262,7.7962,7.8549,7.8831,7.8861,7.8861,7.8861,7.8861,7.8861,7.8933,7.9302,8.1032,8.148,8.1855,8.3543,8.3995,8.3995,8.3995,8.3995,8.3995,8.3995,8.4059,8.4059,8.4059,8.4123,8.4187,8.4187,8.6905,8.9072,8.9072,8.9072,8.9072,8.9072,8.9072,8.9072,8.9072,8.9072,8.9072,8.9072,8.9072,8.9072,8.9072,8.9072,8.9072,8.9072,8.9072,8.9072,8.9072,8.9072,8.9072,8.9072,8.9072,8.9072,8.9072,8.9072,8.9072,0.0,0.0,7.5709,7.5709,0.0,0.0,0.0,0.0,0.0,0.0,0.0,0.0,0.0,0.0,0.0,0.0,0.0,0.0,0.0,0.0,0.0,0.0,0.0,0.0,0.0,0.0,0.0,0.0,0.0,0.0,0.0,7.845,7.9194,8.0175,8.0209,8.0209,8.0209,8.0209,8.0445,8.0919,8.0622,8.0838,8.1569,8.1221,8.1738,8.2942,8.1911,8.2026,8.2886,8.1271,8.0341,7.989,7.9234,7.8808,7.8659,7.8659,7.8609,7.8489,7.8699,7.8789,7.8789,7.8789,7.8789,7.8789,7.8789,7.8789,7.8933,7.9516,7.9698,7.9839,8.044,8.0548,8.0548,8.0548,8.0548,8.0548,8.0548,8.148,8.2258,8.2258,8.3218,8.3995,8.3995,8.4946,8.609,8.7202,8.6453,8.6546,8.8813,8.8118,8.7853,8.8959,8.9072,8.9072,8.9072,8.9072,8.9072,8.9072,8.9072,8.9072,8.9072,8.9072,8.9072,8.9072,8.9072,8.9072,8.9072,8.9072,8.9072,8.9072,8.9072,8.9072,7.5709,7.5709,0.0,7.5709,7.5709,0.0,7.5709,0.0,0.0,0.0,0.0,0.0,0.0,0.0,0.0,0.0,0.0,0.0,0.0,0.0,0.0,0.0,0.0,0.0,0.0,0.0,0.0,0.0,0.0,0.0,0.0,0.0,7.9431,8.0175,8.0209,7.9921,7.9392,7.9392,7.9432,7.9567,7.9271,7.9537,8.0221,7.9906,8.0348,8.133,8.0227,8.0408,8.1212,7.9814,7.9034,7.8645,7.8753,7.8556,7.816,7.816,7.843,7.8789,7.8789,7.8789,7.8789,7.8789,7.8789,7.8789,7.8789,7.8789,7.8789,7.8789,7.8789,7.8789,7.8789,7.8789,7.8789,7.8789,7.8789,7.8789,7.8789,7.9698,8.0509,8.0509,8.1411,8.2191,8.2191,8.2191,8.2956,8.5225,8.4695,8.482,8.6965,8.6846,8.6932,8.806,8.8756,8.9072,8.9072,8.9072,8.9072,8.9072,8.9072,8.9072,8.9072,8.9072,8.9207,8.9478,8.9207,8.9207,8.9478,8.9207,8.9072,8.9072,8.9072,8.9072]}]]